[[{"header":{"parameterUnit":"m.s-1","parameterCategory":1,"la1":30.6,"la2":29.2853,"lo1":-89.7004,"lo2":-87.6739,"dy":0.0162,"dx":0.0183,"nx":112,"ny":82,"refTime":"2023-05-30T12:00:00:Z","depth":0,"parameterNumber":2,"parameterNumberName":"U-component_of_WINDS"},"data":[0.0,0.0,0.0,0.0,0.0,0.0,0.0,0.0,0.0,0.0,0.0,0.0,0.0,0.0,0.0,0.0,0.0,0.0,0.0,0.0,0.0,0.0,0.0,0.0,0.0,0.0,0.0,0.0,0.0,0.0,0.0,0.0,0.0,0.0,0.0,0.0,0.0,0.0,0.0,0.0,0.0,0.0,0.0,0.0,0.0,0.0,0.0,0.0,0.0,0.0,0.0,0.0,0.0,0.0,0.0,0.0,0.0,0.0,0.0,0.0,0.0,0.0,0.0,0.0,0.0,0.0,0.0,0.0,0.0,0.0,0.0,0.0,0.0,0.0,0.0,0.0,0.0,0.0,0.0,0.0,0.0,0.0,0.0,0.0,0.0,0.0,0.0,0.0,0.0,0.0,1.9226,2.0602,2.3759,2.6033,2.6692,2.6639,2.4397,1.9185,0.0,0.0,0.0,0.0,0.0,0.0,0.0,0.0,0.0,0.0,0.0,0.0,0.0,0.0,0.0,0.0,0.0,0.0,0.0,0.0,0.0,0.0,0.0,0.0,0.0,0.0,0.0,0.0,0.0,0.0,0.0,0.0,0.0,0.0,0.0,0.0,0.0,0.0,0.0,0.0,0.0,0.0,0.0,0.0,0.0,0.0,0.0,0.0,0.0,0.0,0.0,0.0,0.0,0.0,0.0,0.0,0.0,0.0,0.0,0.0,0.0,0.0,0.0,0.0,0.0,0.0,0.0,0.0,0.0,0.0,0.0,0.0,0.0,0.0,0.0,0.0,0.0,0.0,0.0,0.0,0.0,0.0,0.0,0.0,0.0,0.0,0.0,0.0,0.0,0.0,0.0,0.0,0.0,0.0,0.0,0.0,0.0,0.0,0.0,0.0,0.0,0.0,0.0,0.0,2.0468,2.5046,2.6078,2.6707,2.7415,2.6887,2.4428,1.9453,0.0,0.0,0.0,0.0,0.0,0.0,0.0,0.0,0.0,0.0,0.0,0.0,0.0,0.0,0.0,0.0,0.0,0.0,0.0,0.0,0.0,0.0,0.0,0.0,0.0,0.0,0.0,0.0,0.0,0.0,0.0,0.0,0.0,0.0,0.0,0.0,0.0,0.0,0.0,0.0,0.0,0.0,0.0,0.0,0.0,0.0,0.0,0.0,0.0,0.0,0.0,0.0,0.0,0.0,0.0,0.0,0.0,0.0,0.0,0.0,0.0,0.0,0.0,0.0,0.0,0.0,0.0,0.0,0.0,0.0,0.0,0.0,0.0,0.0,0.0,0.0,0.0,0.0,0.0,0.0,0.0,0.0,0.0,0.0,0.0,0.0,0.0,0.0,0.0,0.0,0.0,0.0,0.0,0.0,0.0,0.0,0.0,0.0,0.0,0.0,0.0,0.0,0.0,1.9555,2.2069,2.6632,2.7126,2.7295,2.7595,2.693,2.448,1.9728,1.9319,0.0,0.0,0.0,0.0,0.0,0.0,0.0,0.0,0.0,0.0,0.0,0.0,0.0,0.0,0.0,0.0,0.0,0.0,0.0,0.0,0.0,0.0,0.0,0.0,0.0,0.0,0.0,0.0,0.0,0.0,0.0,0.0,0.0,0.0,0.0,0.0,0.0,0.0,0.0,0.0,0.0,0.0,0.0,0.0,0.0,0.0,0.0,0.0,0.0,0.0,0.0,0.0,0.0,0.0,0.0,0.0,0.0,0.0,0.0,0.0,0.0,0.0,0.0,0.0,0.0,0.0,0.0,0.0,0.0,0.0,0.0,0.0,0.0,0.0,0.0,0.0,0.0,0.0,0.0,0.0,0.0,0.0,0.0,0.0,0.0,0.0,0.0,0.0,0.0,0.0,0.0,0.0,0.0,0.0,0.0,0.0,0.0,0.0,0.0,0.0,0.0,0.0,2.2099,2.4238,2.7295,2.7625,2.7625,2.7625,2.693,2.4511,1.9916,1.9114,0.0,0.0,0.0,0.0,0.0,0.0,0.0,0.0,0.0,0.0,0.0,0.0,0.0,0.0,0.0,0.0,0.0,0.0,0.0,0.0,0.0,0.0,0.0,0.0,0.0,0.0,0.0,0.0,0.0,0.0,0.0,0.0,0.0,0.0,0.0,0.0,0.0,0.0,0.0,0.0,0.0,0.0,0.0,0.0,0.0,0.0,0.0,0.0,0.0,0.0,0.0,0.0,0.0,0.0,0.0,0.0,0.0,0.0,0.0,0.0,0.0,0.0,0.0,0.0,0.0,0.0,0.0,0.0,0.0,0.0,0.0,0.0,0.0,0.0,0.0,0.0,0.0,0.0,0.0,0.0,0.0,0.0,0.0,0.0,0.0,0.0,0.0,0.0,0.0,0.0,0.0,0.0,0.0,0.0,0.0,0.0,0.0,0.0,0.0,0.0,0.0,0.0,2.4492,2.731,2.7595,2.7625,2.7625,2.7625,2.693,2.4511,1.9916,1.892,0.0,0.0,0.0,0.0,0.0,0.0,0.0,0.0,0.0,0.0,0.0,0.0,0.0,0.0,0.0,0.0,0.0,0.0,0.0,0.0,0.0,0.0,0.0,0.0,0.0,0.0,0.0,0.0,0.0,0.0,0.0,0.0,0.0,0.0,0.0,0.0,0.0,0.0,0.0,0.0,0.0,0.0,0.0,0.0,0.0,0.0,0.0,0.0,0.0,0.0,0.0,0.0,0.0,0.0,0.0,0.0,0.0,0.0,0.0,0.0,0.0,0.0,0.0,0.0,0.0,0.0,0.0,0.0,0.0,0.0,0.0,0.0,0.0,0.0,0.0,0.0,0.0,0.0,0.0,0.0,0.0,0.0,0.0,0.0,0.0,0.0,0.0,0.0,0.0,0.0,0.0,0.0,0.0,0.0,0.0,0.0,0.0,0.0,0.0,0.0,0.0,0.0,2.3909,2.6213,2.749,2.7625,2.7408,2.693,2.6229,2.3998,1.9686,0.0,0.0,0.0,0.0,0.0,0.0,0.0,0.0,0.0,0.0,0.0,0.0,0.0,0.0,0.0,0.0,0.0,0.0,0.0,0.0,0.0,0.0,0.0,0.0,0.0,0.0,0.0,0.0,0.0,0.0,0.0,0.0,0.0,0.0,0.0,0.0,0.0,0.0,0.0,0.0,0.0,0.0,0.0,0.0,0.0,0.0,0.0,0.0,0.0,0.0,0.0,0.0,0.0,0.0,0.0,0.0,0.0,0.0,0.0,0.0,0.0,0.0,0.0,0.0,0.0,0.0,0.0,0.0,0.0,0.0,0.0,0.0,0.0,0.0,0.0,0.0,0.0,0.0,0.0,0.0,0.0,0.0,0.0,0.0,0.0,0.0,0.0,0.0,0.0,0.0,0.0,0.0,0.0,0.0,0.0,0.0,0.0,0.0,0.0,0.0,0.0,0.0,2.144,2.3954,2.6078,2.7475,2.7625,2.7408,2.6878,2.639,2.4287,2.012,0.0,0.0,0.0,0.0,0.0,0.0,0.0,0.0,0.0,0.0,0.0,0.0,0.0,0.0,0.0,0.0,0.0,0.0,0.0,0.0,0.0,0.0,0.0,0.0,0.0,0.0,0.0,0.0,0.0,0.0,0.0,0.0,0.0,0.0,0.0,0.0,0.0,0.0,0.0,0.0,0.0,0.0,0.0,0.0,0.0,0.0,0.0,0.0,0.0,0.0,0.0,0.0,0.0,0.0,0.0,0.0,0.0,0.0,0.0,0.0,0.0,0.0,0.0,0.0,0.0,0.0,0.0,0.0,0.0,0.0,0.0,0.0,0.0,0.0,0.0,0.0,0.0,0.0,0.0,0.0,0.0,0.0,0.0,0.0,0.0,0.0,0.0,0.0,0.0,0.0,0.0,0.0,0.0,0.0,0.0,0.0,0.0,0.0,0.0,0.0,0.0,0.0,2.1605,2.5136,2.7625,2.7625,2.7625,2.7575,2.7575,2.7575,2.5664,0.0,0.0,0.0,0.0,0.0,0.0,0.0,0.0,0.0,0.0,0.0,0.0,0.0,0.0,0.0,0.0,0.0,0.0,0.0,0.0,0.0,0.0,0.0,0.0,0.0,0.0,0.0,0.0,0.0,0.0,0.0,0.0,0.0,0.0,0.0,0.0,0.0,0.0,0.0,0.0,0.0,0.0,0.0,0.0,0.0,0.0,0.0,0.0,0.0,0.0,0.0,0.0,0.0,0.0,0.0,0.0,0.0,0.0,0.0,0.0,0.0,0.0,0.0,0.0,0.0,0.0,0.0,0.0,0.0,0.0,0.0,0.0,0.0,0.0,0.0,0.0,0.0,0.0,0.0,0.0,0.0,0.0,0.0,0.0,0.0,0.0,0.0,0.0,0.0,0.0,0.0,0.0,0.0,0.0,0.0,0.0,0.0,0.0,0.0,0.0,0.0,0.0,0.0,2.1665,2.5136,2.7625,2.7625,2.7625,2.7188,2.6162,2.6054,2.403,1.9324,0.0,0.0,0.0,0.0,0.0,0.0,0.0,0.0,0.0,0.0,0.0,0.0,0.0,0.0,0.0,0.0,0.0,0.0,0.0,0.0,0.0,0.0,0.0,0.0,0.0,0.0,0.0,0.0,0.0,0.0,0.0,0.0,0.0,0.0,0.0,0.0,0.0,0.0,0.0,0.0,0.0,0.0,0.0,0.0,0.0,0.0,0.0,0.0,0.0,0.0,0.0,0.0,0.0,0.0,0.0,0.0,0.0,0.0,0.0,0.0,0.0,0.0,0.0,0.0,0.0,0.0,0.0,0.0,0.0,0.0,0.0,0.0,0.0,0.0,0.0,0.0,0.0,0.0,0.0,0.0,0.0,0.0,0.0,0.0,0.0,0.0,0.0,0.0,0.0,0.0,0.0,0.0,0.0,0.0,0.0,0.0,0.0,0.0,0.0,0.0,0.0,0.0,2.1695,2.5136,2.7625,2.7625,2.7625,2.724,2.6375,2.6269,2.4713,2.098,0.0,0.0,0.0,0.0,0.0,0.0,0.0,0.0,0.0,0.0,0.0,0.0,0.0,0.0,0.0,0.0,0.0,0.0,0.0,0.0,0.0,0.0,0.0,0.0,0.0,0.0,0.0,0.0,0.0,0.0,0.0,0.0,0.0,0.0,0.0,0.0,0.0,0.0,0.0,0.0,0.0,0.0,0.0,0.0,0.0,0.0,0.0,0.0,0.0,0.0,0.0,0.0,0.0,0.0,0.0,0.0,0.0,0.0,0.0,0.0,0.0,0.0,0.0,0.0,0.0,0.0,0.0,0.0,0.0,0.0,0.0,0.0,0.0,0.0,0.0,0.0,0.0,0.0,0.0,0.0,0.0,0.0,0.0,0.0,0.0,0.0,0.0,0.0,0.0,0.0,0.0,0.0,0.0,0.0,0.0,0.0,0.0,0.0,0.0,0.0,0.0,0.0,2.1695,2.5136,2.7625,2.7625,2.7625,2.7575,2.7509,2.7509,2.6574,2.4458,0.0,0.0,0.0,0.0,0.0,0.0,0.0,0.0,0.0,0.0,0.0,0.0,0.0,0.0,0.0,0.0,0.0,0.0,0.0,0.0,0.0,0.0,0.0,0.0,0.0,0.0,0.0,0.0,0.0,0.0,0.0,0.0,0.0,0.0,0.0,0.0,0.0,0.0,0.0,0.0,0.0,0.0,0.0,0.0,0.0,0.0,0.0,0.0,0.0,0.0,0.0,0.0,0.0,0.0,0.0,0.0,0.0,0.0,0.0,0.0,2.303,2.0645,0.0,0.0,0.0,0.0,0.0,0.0,0.0,0.0,0.0,0.0,0.0,0.0,0.0,0.0,0.0,0.0,0.0,0.0,0.0,0.0,0.0,0.0,0.0,0.0,0.0,0.0,0.0,0.0,0.0,0.0,0.0,0.0,0.0,0.0,0.0,0.0,0.0,0.0,0.0,0.0,2.1695,2.5136,2.7625,2.7625,2.7625,2.7357,2.6774,2.6721,2.5469,2.256,2.1848,0.0,0.0,0.0,0.0,0.0,0.0,0.0,0.0,0.0,0.0,0.0,0.0,0.0,0.0,0.0,0.0,0.0,0.0,0.0,0.0,0.0,0.0,0.0,0.0,0.0,0.0,0.0,0.0,0.0,0.0,0.0,0.0,0.0,0.0,0.0,0.0,0.0,0.0,0.0,0.0,0.0,0.0,0.0,0.0,0.0,0.0,0.0,0.0,0.0,0.0,0.0,0.0,0.0,0.0,0.0,0.0,0.0,0.0,0.0,2.4816,2.3505,0.0,0.0,0.0,0.0,0.0,0.0,0.0,0.0,0.0,0.0,0.0,0.0,0.0,0.0,0.0,0.0,0.0,0.0,0.0,0.0,0.0,0.0,0.0,0.0,0.0,0.0,0.0,0.0,0.0,0.0,0.0,0.0,0.0,0.0,0.0,0.0,0.0,0.0,0.0,0.0,2.1695,2.542,2.8068,2.8068,2.8353,2.8136,2.7093,2.7307,2.6515,2.4201,2.3204,0.0,0.0,0.0,0.0,0.0,0.0,0.0,0.0,0.0,0.0,0.0,0.0,0.0,0.0,0.0,0.0,0.0,0.0,0.0,0.0,0.0,0.0,0.0,0.0,0.0,0.0,0.0,0.0,0.0,0.0,0.0,0.0,0.0,0.0,0.0,0.0,0.0,0.0,0.0,0.0,0.0,0.0,0.0,0.0,0.0,0.0,0.0,0.0,0.0,0.0,0.0,0.0,0.0,2.6615,2.6688,2.6399,2.6399,2.7265,2.8687,2.7076,2.6923,2.7502,2.3849,0.0,0.0,0.0,0.0,0.0,0.0,0.0,0.0,0.0,0.0,0.0,0.0,0.0,0.0,0.0,0.0,0.0,0.0,0.0,0.0,0.0,0.0,2.3726,2.37,2.56,2.6566,2.3623,0.0,0.0,0.0,0.0,0.0,0.0,0.0,0.0,0.0,0.0,0.0,2.2323,2.6019,2.8637,2.8757,2.9265,2.9124,2.7937,2.8423,2.8134,2.6694,2.5191,2.4149,0.0,0.0,0.0,0.0,0.0,0.0,0.0,0.0,0.0,0.0,0.0,0.0,0.0,0.0,0.0,0.0,0.0,0.0,0.0,0.0,0.0,0.0,0.0,0.0,0.0,0.0,0.0,0.0,0.0,0.0,0.0,0.0,2.597,2.597,0.0,0.0,0.0,0.0,0.0,0.0,0.0,0.0,0.0,0.0,0.0,0.0,0.0,2.7052,2.6961,2.9271,3.0089,2.9491,3.1849,3.2702,3.2263,3.2263,3.2432,3.2662,3.2398,0.0,2.7739,2.7147,0.0,0.0,0.0,0.0,0.0,0.0,0.0,0.0,0.0,0.0,0.0,0.0,0.0,0.0,0.0,0.0,0.0,0.0,0.0,0.0,0.0,0.0,2.8503,2.8576,2.8856,2.9053,2.8646,2.5837,2.3038,2.1765,2.1498,2.0594,0.0,0.0,0.0,0.0,0.0,0.0,2.4807,2.7141,2.8816,2.9385,2.9535,2.9535,2.9337,2.9391,2.8811,2.7207,2.6865,2.5778,2.3702,2.2566,0.0,0.0,0.0,0.0,0.0,0.0,0.0,0.0,0.0,0.0,0.0,0.0,0.0,0.0,0.0,0.0,0.0,0.0,0.0,0.0,0.0,0.0,0.0,0.0,0.0,0.0,0.0,0.0,0.0,2.3914,2.474,2.5199,2.463,2.3473,0.0,0.0,0.0,0.0,0.0,0.0,0.0,0.0,0.0,2.8305,2.8802,2.9573,3.0657,3.1857,3.2278,3.1968,3.3138,3.3598,3.3406,3.3406,3.3406,3.3406,3.3406,3.2476,3.0869,2.9617,2.8163,2.6522,0.0,0.0,0.0,0.0,2.3579,2.3985,2.6234,2.7283,2.7486,2.6522,0.0,0.0,0.0,0.0,0.0,0.0,0.0,2.5535,2.7106,2.7806,2.842,2.9751,3.0057,2.9997,2.9666,2.8473,2.6804,2.4541,2.2929,2.1137,1.8657,1.9765,0.0,0.0,0.0,2.4866,2.6004,2.8218,2.9774,3.0058,3.0024,2.9667,2.8886,2.8727,2.8278,2.728,2.7026,2.6668,2.6077,2.3942,2.2678,0.0,0.0,0.0,0.0,0.0,0.0,0.0,0.0,0.0,0.0,0.0,0.0,0.0,0.0,0.0,0.0,0.0,0.0,0.0,0.0,0.0,0.0,0.0,0.0,0.0,0.0,0.0,0.0,2.4502,2.5217,2.5419,2.5786,2.497,0.0,0.0,0.0,0.0,0.0,0.0,2.7038,2.7573,2.8789,3.0886,3.0954,3.1732,3.3389,3.3592,3.3677,3.3677,3.388,3.3964,3.3964,3.3964,3.3964,3.3964,3.3964,3.3964,3.3812,3.1782,3.0734,3.0159,2.7909,2.6691,2.6184,2.6201,2.6437,2.708,2.933,3.048,3.0852,3.0294,2.933,2.818,2.7097,0.0,0.0,0.0,0.0,2.6877,2.8281,2.8295,2.8422,3.0094,3.0492,3.0395,3.0138,2.9932,2.9149,2.703,2.5046,2.3071,2.1066,2.2368,0.0,2.168,2.4388,2.6826,2.75,2.9295,3.0567,3.0746,3.0661,3.0201,2.9114,2.8769,2.8316,2.769,2.7444,2.7561,2.8202,2.5897,2.4978,2.5728,0.0,0.0,0.0,0.0,0.0,0.0,0.0,0.0,0.0,0.0,0.0,0.0,0.0,0.0,0.0,0.0,0.0,0.0,0.0,0.0,0.0,0.0,0.0,0.0,0.0,0.0,0.0,0.0,0.0,2.892,3.0118,0.0,0.0,0.0,0.0,2.585,2.6328,2.7622,2.977,3.0581,3.1664,3.3203,3.3237,3.3305,3.3406,3.4083,3.4438,3.4438,3.5165,3.5504,3.5504,3.5504,3.5504,3.5504,3.5504,3.5504,3.5385,3.3863,3.2408,3.1123,3.097,2.96,2.7941,3.0074,3.0446,3.0192,3.2425,3.3203,3.2899,3.0784,2.8602,2.7199,2.9262,2.8366,0.0,0.0,2.8796,2.9069,3.0125,3.0335,3.0381,3.0488,3.0503,3.0683,3.1285,2.9499,2.806,2.916,2.9265,2.8547,2.6542,0.0,2.6363,2.6258,2.6437,2.75,2.9983,3.0417,3.0746,3.1347,3.1452,3.1394,3.1364,3.06,2.9818,2.8969,2.887,2.8884,2.8961,2.8801,2.833,2.7503,2.6547,0.0,0.0,0.0,0.0,0.0,0.0,0.0,0.0,0.0,0.0,0.0,0.0,0.0,0.0,0.0,0.0,0.0,0.0,0.0,0.0,0.0,0.0,0.0,0.0,0.0,0.0,0.0,0.0,2.9122,3.0889,0.0,2.8101,2.9378,2.9969,2.8904,3.0173,3.1376,3.2188,3.2476,3.3068,3.4083,3.4117,3.4336,3.4827,3.5098,3.5216,3.5216,3.5487,3.5622,3.5622,3.5622,3.5622,3.5622,3.5622,3.5622,3.5588,3.5047,3.4523,3.3981,3.3508,3.2831,3.2154,3.2493,3.2747,3.3034,3.3829,3.4421,3.4624,3.3339,3.2374,3.1782,3.2121,3.1985,3.1648,3.1339,3.1596,3.1821,3.1297,3.1127,3.1147,3.1162,3.1165,3.124,3.1422,3.0791,3.0268,3.0746,2.9116,2.7425,2.6707,2.7993,2.8682,2.741,2.8682,3.0103,3.1046,3.1165,3.101,3.0748,3.0208,2.9628,2.9129,2.8298,2.8182,2.8939,2.7986,2.7855,2.8939,2.8427,2.8274,2.8507,2.8183,2.6771,0.0,0.0,0.0,0.0,0.0,0.0,0.0,0.0,0.0,0.0,0.0,0.0,0.0,0.0,0.0,0.0,0.0,0.0,0.0,0.0,0.0,0.0,0.0,0.0,0.0,2.9145,3.0613,2.9549,3.2045,3.273,2.988,3.1788,3.2722,3.1504,3.2887,3.3778,3.3778,3.4015,3.437,3.4861,3.4878,3.5115,3.5622,3.5622,3.5757,3.6011,3.6011,3.6146,3.64,3.64,3.64,3.64,3.64,3.64,3.64,3.64,3.64,3.6299,3.5267,3.4878,3.481,3.4336,3.4455,3.4878,3.4878,3.5199,3.5537,3.503,3.4878,3.4776,3.4303,3.4489,3.4622,3.355,3.3382,3.3339,3.216,3.1697,3.1482,3.1482,3.1482,3.1482,3.1482,3.1482,3.1482,3.1482,2.9759,2.8263,2.8263,2.9699,3.0103,2.7955,2.9834,3.121,3.0313,3.0971,3.1278,3.0777,2.995,2.9192,2.862,2.6895,2.6583,2.8438,2.7112,2.6905,2.8529,2.8048,2.7968,2.8442,2.8442,2.7329,2.5158,0.0,0.0,0.0,0.0,0.0,0.0,0.0,0.0,0.0,0.0,0.0,0.0,0.0,0.0,0.0,0.0,0.0,0.0,0.0,0.0,0.0,0.0,0.0,2.9347,3.1182,3.2118,3.0577,3.3917,3.5321,3.2765,3.3917,3.4451,3.3541,3.4134,3.4523,3.4523,3.5216,3.5622,3.5622,3.5639,3.5656,3.5656,3.5673,3.6062,3.6806,3.6806,3.7195,3.7905,3.7905,3.7905,3.7905,3.7905,3.7905,3.7905,3.7905,3.7905,3.7753,3.6248,3.5656,3.5656,3.5622,3.5622,3.5622,3.5622,3.5622,3.5622,3.5622,3.5622,3.5622,3.5622,3.5622,3.547,3.4783,3.4087,3.3443,3.2749,3.2064,3.1482,3.1482,3.1482,3.1482,3.1482,3.1482,3.1482,3.1482,3.1482,3.1482,3.1482,3.1482,3.0657,2.8083,2.9894,0.0,2.8023,2.9884,3.1437,3.1319,3.0616,3.0122,3.0122,2.6562,2.5329,2.7591,2.6485,2.6298,2.7644,2.7731,2.7628,2.731,2.7308,2.6923,2.6187,0.0,0.0,0.0,0.0,0.0,0.0,0.0,0.0,0.0,0.0,0.0,0.0,0.0,0.0,0.0,0.0,0.0,0.0,0.0,0.0,0.0,3.0925,3.2118,3.1678,3.3175,3.4412,3.4596,3.58,3.6167,3.5066,3.556,3.5693,3.504,3.5199,3.5318,3.5318,3.5504,3.5622,3.5622,3.6163,3.6468,3.6468,3.7009,3.7381,3.7601,3.7601,3.7702,3.7905,3.7905,3.7905,3.7905,3.7905,3.7905,3.7905,3.7905,3.7905,3.7804,3.684,3.6468,3.64,3.5825,3.5622,3.5622,3.5622,3.5622,3.5622,3.5622,3.5622,3.5622,3.5622,3.5622,3.5362,3.4186,3.3735,3.3323,3.2104,3.164,3.1482,3.1482,3.1482,3.1482,3.1482,3.1482,3.1482,3.1482,3.1482,3.1482,3.1482,3.1482,3.1228,3.0552,3.1061,3.1025,2.974,3.0207,2.9676,2.7211,2.6704,2.6371,2.5801,2.4761,2.5125,2.7552,2.6818,2.6687,2.7644,2.7712,2.7696,2.757,2.7397,2.6176,0.0,0.0,0.0,0.0,0.0,0.0,0.0,0.0,0.0,0.0,0.0,0.0,0.0,0.0,0.0,0.0,0.0,0.0,0.0,0.0,0.0,0.0,3.2871,3.4266,3.4614,3.5459,3.6248,3.6725,3.7247,3.7244,3.6519,3.664,3.6416,3.565,3.5622,3.5622,3.5622,3.5926,3.6096,3.6096,3.6857,3.7246,3.7246,3.7686,3.8058,3.8362,3.8362,3.8514,3.8819,3.8819,3.8819,3.8819,3.8819,3.8819,3.8819,3.8819,3.8819,3.8717,0.0,0.0,0.0,0.0,3.6569,3.6569,3.6569,3.6569,3.6569,3.6569,3.6569,3.6569,3.6569,3.6303,3.5921,3.5132,3.4446,3.3764,3.297,3.2553,3.2362,3.2362,3.2362,3.2362,3.2362,3.2362,3.2362,3.2362,3.2362,0.0,3.2362,3.1898,3.1108,3.0043,3.0821,3.0949,2.9356,3.0104,2.9896,2.7571,2.6979,2.6454,2.5627,2.4355,0.0,0.0,0.0,2.596,2.6614,2.6527,0.0,0.0,0.0,2.6171,2.5062,2.4406,0.0,0.0,2.3105,2.2372,0.0,0.0,0.0,0.0,0.0,0.0,0.0,0.0,0.0,0.0,0.0,0.0,0.0,0.0,0.0,0.0,3.489,3.6707,3.7514,3.7624,3.7624,3.7624,3.8218,3.8252,3.7285,3.7152,3.6684,3.5694,3.5622,3.5656,3.574,3.64,0.0,0.0,0.0,3.8024,3.8024,3.8108,3.8481,3.9106,3.9106,3.9462,4.007,4.007,4.007,4.007,4.007,4.007,4.007,4.007,4.007,3.9935,3.8565,3.7973,3.7905,3.7905,3.7905,3.7905,3.7905,0.0,0.0,3.7905,3.7905,3.7905,3.7793,3.7286,3.6648,3.6476,3.5498,3.4512,3.4395,3.3984,3.3499,3.3499,3.3499,3.3499,3.3499,3.3499,3.3499,3.3499,3.3499,3.3499,3.3499,3.2467,3.0851,2.8487,3.0018,3.0503,2.8084,2.9711,3.069,2.9725,2.8886,0.0,2.738,2.4783,2.4155,2.6395,2.5314,2.486,2.5327,2.5319,2.4978,2.4268,2.5641,2.6769,2.7537,2.7537,2.7537,2.7446,2.3176,2.2231,0.0,0.0,0.0,0.0,0.0,0.0,0.0,0.0,0.0,0.0,0.0,0.0,0.0,0.0,0.0,3.4367,3.6064,3.7533,3.8358,3.8469,3.8469,3.8469,3.8209,3.7843,3.7266,3.6803,3.6291,3.5667,3.5622,3.5893,3.6518,3.6705,3.706,3.7669,3.8396,3.8785,3.8785,3.9377,3.9732,3.9868,3.9868,0.0,4.007,4.007,4.007,4.007,4.007,4.007,4.007,4.007,4.007,3.9986,3.9123,3.843,3.7905,3.7905,3.7905,3.7905,3.7905,3.7905,3.7905,3.7905,3.7905,3.7793,3.7103,3.6818,0.0,3.5276,3.4727,3.4411,3.3804,3.3607,3.3499,3.3499,3.3499,3.3499,3.3499,3.3499,3.3499,3.3499,3.3499,3.3499,3.3499,3.2841,3.2153,3.1629,3.097,3.0096,2.8844,2.8587,2.7632,2.5452,2.506,2.4885,2.4709,2.4204,2.4582,2.642,2.624,2.6117,2.6219,2.748,2.748,2.6043,2.7595,2.7897,2.6714,2.6714,2.6714,2.6701,2.5772,2.5595,0.0,0.0,0.0,0.0,0.0,0.0,0.0,0.0,0.0,0.0,0.0,3.1054,3.1843,0.0,3.4816,3.6046,3.7294,3.823,3.8652,3.8707,3.8707,3.8707,3.8234,3.772,3.7266,3.6724,3.6182,3.5667,3.5977,3.6366,3.6755,3.7483,3.8058,3.8447,3.9157,3.9529,3.9529,3.9901,4.007,4.007,4.007,4.007,4.007,4.007,4.007,4.007,4.007,4.007,4.007,4.007,4.007,4.0037,3.9681,3.9326,3.8988,3.8988,3.8988,3.8988,3.8988,3.8988,3.8988,3.8988,3.8988,3.8939,3.8522,3.7854,3.7083,3.6337,3.5623,3.4941,3.4613,3.4502,3.4502,3.4502,3.4502,3.4502,3.4502,3.4502,3.4502,3.4502,3.4502,3.4502,3.4502,3.3933,3.338,3.3051,3.2063,3.111,3.0191,2.9435,2.8216,2.6052,2.5833,2.5717,2.53,2.5234,2.5586,2.6483,2.6533,2.6533,2.6533,2.7284,2.7351,2.6521,2.7736,2.7736,2.6533,2.6905,2.6905,2.6533,2.6533,2.6533,0.0,0.0,0.0,0.0,0.0,0.0,0.0,2.8264,2.942,3.1054,3.2027,3.2981,3.4266,3.5183,3.6174,3.7496,3.8267,3.8707,3.8707,3.8707,3.8658,3.8546,3.8183,3.772,3.7266,3.6724,3.6251,3.587,3.6417,3.6907,3.7195,3.8345,3.9056,3.9191,3.9766,4.007,4.007,4.007,4.007,4.007,4.007,4.007,4.007,4.007,4.007,4.007,4.007,4.007,4.007,4.007,4.007,4.007,4.007,4.007,4.007,4.007,4.007,4.007,4.007,4.007,4.007,4.007,4.007,4.007,3.9901,3.8995,3.7978,3.7632,3.6646,3.5668,3.5569,3.5504,3.5504,3.5504,3.5504,3.5504,3.5504,3.5504,3.5504,3.5504,3.5504,3.5504,3.5504,3.504,3.4457,3.3784,3.2989,3.2119,3.13,3.0483,2.938,2.7868,2.7537,2.7229,2.6589,2.6533,2.6533,2.6533,2.6533,2.6533,2.6533,2.6658,2.6658,2.6533,2.7284,2.7284,2.6533,2.7162,2.7095,2.6533,2.6533,2.6533,2.3933,2.4171,2.6007,2.797,2.9072,3.0613,0.0,3.4064,3.3605,3.5275,3.6248,3.6883,3.7037,3.7734,3.8358,3.8542,3.8652,3.8707,3.8707,3.8707,3.8496,3.8065,3.7946,3.772,3.7266,3.6724,3.6474,3.6632,3.6721,3.7347,3.8667,3.8903,3.9292,3.9935,4.0037,4.007,4.007,4.007,4.007,4.007,4.007,4.007,4.007,4.007,4.007,4.007,4.007,4.007,4.007,4.007,4.007,4.007,4.007,4.007,4.007,4.007,4.007,4.007,4.007,4.007,4.007,4.007,4.007,3.9969,3.9262,3.8908,3.8509,3.7128,3.6615,3.6337,3.5668,3.5504,3.5504,3.5504,3.5504,3.5504,3.5504,3.5504,3.5504,3.5504,3.5504,3.5504,3.5504,3.5444,3.516,3.4472,3.3191,3.1951,3.1296,2.9817,2.8559,2.7789,2.704,2.6589,2.6533,2.6533,2.6533,2.6533,2.6533,2.6533,2.6533,2.7162,2.7229,2.6533,2.7284,2.7284,2.6533,2.6589,2.6589,2.6533,2.6533,2.6533,2.8281,2.816,2.8695,3.0794,3.1826,3.2742,3.4468,3.4669,3.4981,3.6652,3.7643,3.8193,3.8193,3.8469,3.8707,3.8707,3.8707,3.8707,3.8707,3.8707,3.8627,3.8382,3.7843,3.7285,3.6803,3.6249,3.6195,3.6768,3.7195,3.7889,3.8937,3.9394,3.9766,4.007,4.007,4.007,4.007,4.007,4.007,4.007,4.007,4.007,4.007,4.007,4.007,4.007,4.007,4.007,4.007,4.007,4.007,4.007,4.007,4.007,4.007,4.007,4.007,4.007,4.007,4.007,4.007,4.007,4.007,4.002,3.9731,3.9262,3.869,3.7616,3.6964,3.6446,3.5668,3.5504,3.5504,3.5504,3.5504,3.5504,3.5504,3.5504,3.5504,3.5504,3.5504,3.5504,3.5504,3.5504,3.519,3.431,3.3853,3.3275,3.2457,3.1438,3.0124,2.8492,2.7233,2.6533,2.6533,2.6533,2.6533,2.6533,2.6533,2.6533,2.6533,2.685,2.685,2.6533,2.685,2.685,2.6533,2.6533,2.6533,2.6533,2.6533,2.6697,3.0248,3.059,3.0882,3.3134,3.4309,3.4971,3.5119,3.5605,3.6376,3.7569,3.8285,3.8707,3.8707,3.8707,3.8707,3.8707,3.8707,3.8707,3.8707,3.8707,3.8596,3.8318,3.7756,3.7058,3.6249,3.581,3.6028,3.7009,3.7601,3.8311,3.9242,3.9783,4.007,4.007,4.007,4.007,4.007,4.007,4.007,4.007,4.007,4.007,4.007,4.007,4.007,4.007,4.007,4.007,4.007,4.007,4.007,4.007,4.007,4.007,4.007,4.007,4.007,4.007,4.007,4.007,4.007,4.007,4.007,4.007,4.007,3.9662,3.9086,3.8318,3.7557,3.6737,3.6006,3.5668,3.5504,3.5504,3.5504,3.5504,3.5504,3.5504,3.5504,3.5504,3.5504,3.5504,3.5504,3.5504,3.5279,3.4543,3.4412,3.4044,3.3266,3.2399,3.0895,2.8591,2.7378,2.6697,2.6546,2.6533,2.6533,2.6533,2.6533,2.6533,2.6533,2.6533,2.6533,2.6533,2.6533,2.6533,2.6533,2.6533,2.6533,2.6533,2.6615,2.6904,2.7662,2.9513,3.1453,3.4643,3.6609,3.7894,3.8431,3.8579,3.8615,3.8652,3.8689,3.8707,3.8707,3.8707,3.8707,3.8707,3.8707,3.8707,3.8707,3.8707,3.8318,3.7377,3.7614,3.7287,3.5766,3.5622,3.6248,3.7753,3.7889,3.8531,3.9969,4.007,4.007,4.007,4.007,4.007,4.007,4.007,4.007,4.007,4.007,4.007,4.007,4.007,4.007,4.007,4.007,4.007,4.007,4.007,4.007,4.007,4.007,4.007,4.007,4.007,4.007,4.007,4.007,4.007,4.007,4.007,4.007,4.007,4.007,4.007,3.9901,3.9086,3.8358,3.7573,3.6783,3.6054,3.5504,3.5504,3.5504,3.5504,3.5504,3.5504,3.5504,3.5504,3.5504,3.5504,3.5504,3.5504,3.5504,3.5439,3.4595,3.3782,3.3206,3.1805,2.9971,2.7614,2.7339,2.7042,2.6502,2.6533,2.6533,2.6533,2.6533,2.6533,2.6533,2.6533,2.6533,2.6533,2.6533,2.6533,2.6533,2.6533,2.6533,2.6546,2.7005,2.7268,2.9565,3.2128,3.4708,3.6825,3.8047,3.8701,3.8707,3.8707,3.8707,3.8707,3.7404,3.6237,3.6237,3.6237,3.6237,3.6237,3.7643,3.8707,3.8707,3.8707,3.8578,3.8252,3.8032,3.7702,3.7175,3.6504,3.6618,3.7787,3.7905,3.8531,4.0003,4.007,4.007,4.007,4.007,4.007,4.007,4.007,4.007,4.007,4.007,4.007,4.007,4.007,4.007,4.007,4.007,4.007,4.007,4.007,4.007,4.007,4.007,4.007,4.007,4.007,4.007,4.007,4.007,4.007,4.0155,4.0663,4.0832,4.0916,4.139,4.1542,4.142,4.0613,3.9845,3.889,3.7654,3.6725,3.6043,3.5609,3.5504,3.5504,3.5504,3.5504,3.5504,3.5504,3.5504,3.5504,3.5504,3.5504,3.5067,3.3754,3.3822,3.3668,3.2904,3.1443,3.025,2.9451,2.8469,2.7758,2.757,2.7218,2.7005,2.7005,2.6666,2.6533,2.6533,2.6533,2.6533,2.6533,2.6533,2.6533,2.6533,2.6829,2.7005,2.7017,2.757,2.8021,3.2136,3.4543,3.6558,3.832,3.9019,3.9171,3.8792,3.8707,3.8707,3.8707,3.6743,3.499,3.499,3.499,3.4715,3.3862,3.5789,3.7386,3.7386,3.7386,3.7638,3.8323,3.8267,3.8054,3.777,3.7347,3.7394,3.8111,3.8269,3.8819,4.002,4.007,4.007,4.007,4.007,4.007,4.007,4.007,4.007,4.007,4.007,4.007,4.007,4.007,4.007,4.007,4.007,4.007,4.007,4.007,4.007,4.007,4.007,4.007,4.007,4.007,4.0257,4.0476,4.0476,4.0476,4.0595,4.1356,4.1593,4.1677,4.2151,4.2286,4.2179,4.171,4.0811,3.9652,3.8716,3.7655,3.6701,3.6282,3.6193,3.6133,3.5908,3.5863,3.5789,3.5549,3.5504,3.5504,3.5504,3.5504,3.492,3.331,3.331,3.3031,3.1756,3.1083,3.05,2.9952,2.8969,2.8323,2.8122,2.7783,2.7582,2.7582,2.7243,2.7042,2.7042,2.7042,2.7042,2.7042,2.7042,2.7042,2.7055,2.7406,2.7582,2.7595,2.8147,2.8586,3.499,3.6504,3.7085,3.9104,3.9599,3.9432,3.8833,3.8707,3.8689,3.8597,3.6578,3.4789,3.4752,3.4789,3.41,3.1825,3.3568,3.5174,3.5174,3.5174,3.5853,3.7708,3.8419,3.8479,3.7707,3.8093,3.8485,3.8695,3.8914,3.9309,4.0037,4.007,4.007,4.007,4.007,4.007,4.007,4.007,4.007,4.007,4.007,4.007,4.007,4.007,4.007,4.007,4.007,4.007,4.007,4.007,4.007,4.007,4.007,4.007,4.007,4.0121,4.0595,4.1221,4.1288,4.1288,4.139,4.2117,4.2354,4.2354,4.2405,4.2405,4.2405,4.2405,4.1271,4.0043,3.995,3.8756,3.7518,3.7419,3.7404,3.724,3.6656,3.6537,3.6357,3.5729,3.5579,3.5549,3.5549,3.5534,3.5133,3.4177,3.3241,3.1974,3.0139,3.0633,3.055,2.9101,2.8976,2.8762,2.8235,2.816,2.8147,2.8147,2.8122,2.8109,2.8109,2.8109,2.8109,2.8109,2.8109,2.8109,2.8109,2.8134,2.8147,2.816,2.8712,2.8976,3.6012,3.7888,3.9478,3.9583,3.9599,3.9432,3.8833,3.8707,3.8358,3.7165,3.4468,3.2137,3.1531,3.1916,3.2302,3.2302,3.5385,3.7771,3.7771,3.7771,3.7931,3.8442,3.914,3.9516,3.9311,3.9738,4.0023,4.0092,3.9422,3.9309,4.0037,4.007,4.007,4.007,4.007,4.007,4.007,4.007,4.007,4.007,4.007,4.007,4.007,4.007,4.007,4.007,4.007,4.007,4.007,4.007,4.007,4.007,4.007,4.007,4.0155,4.0713,4.1035,4.1373,4.2472,4.2489,4.2134,4.2878,4.3132,4.3234,4.3826,4.3995,4.3995,4.3995,4.3231,4.2178,4.1,3.991,3.8846,3.7646,3.7404,3.736,3.721,3.718,3.712,3.6956,3.6552,3.6237,3.6237,3.5833,3.5133,3.4177,3.3808,3.2961,3.1119,3.0419,3.0012,2.9591,2.9578,2.9515,2.9377,2.8963,2.8725,2.8725,2.8335,2.8109,2.8109,2.8109,2.8109,2.8109,2.8109,2.8109,2.8109,2.8511,2.8725,2.8737,2.9302,2.9578,3.7868,3.9346,4.0389,3.9924,3.9819,3.9381,3.7662,3.7295,3.6796,3.5028,3.2082,2.9898,3.0155,3.0852,3.1311,3.1072,3.4449,3.7092,3.7092,3.7092,3.7496,3.8579,3.9405,3.9946,4.0008,4.0387,4.0634,4.0753,3.9976,3.9648,4.0054,4.007,4.007,4.007,4.007,4.007,4.007,4.007,4.007,4.007,4.007,4.007,4.007,4.007,4.007,4.007,4.007,4.007,4.007,4.007,4.007,4.007,4.007,4.029,4.0629,4.1052,4.161,4.2286,4.3132,4.3369,4.3369,4.3792,4.3927,4.4012,4.4451,4.4587,4.4587,4.4587,4.3948,4.301,4.177,4.0763,3.9822,3.8557,3.8287,3.8212,3.7898,3.7838,3.7749,3.7464,3.7135,3.6881,3.6881,3.6357,3.5776,3.5184,3.4501,3.3449,3.2033,3.0983,3.0419,3.0419,3.0075,2.9792,2.9792,2.9503,2.9302,2.9302,2.9013,2.885,2.885,2.885,2.885,2.885,2.885,2.885,2.885,2.9164,2.9302,2.9315,2.9641,2.9792,3.9842,4.0489,4.0441,4.0158,4.0101,3.9296,3.6246,3.552,3.4883,3.2631,2.9848,2.8191,2.9475,3.0467,3.0723,2.9635,3.2661,3.5247,3.5449,3.5485,3.6303,3.845,3.9496,4.0123,4.0311,4.057,4.083,4.0989,4.0466,4.007,4.007,4.007,4.007,4.007,4.007,4.007,4.007,4.007,4.007,4.007,4.007,4.007,4.007,4.007,4.007,4.007,4.007,4.007,4.007,4.007,4.007,4.0087,4.0189,4.0629,4.1221,4.1424,4.232,4.3436,4.3538,4.4012,4.4587,4.4587,4.4587,4.4587,4.4587,4.4587,4.4587,4.4587,4.3948,4.3108,4.2269,4.1346,4.05,3.961,3.9424,3.926,3.8661,3.8527,3.8362,3.7793,3.7599,3.7539,3.7539,3.7015,3.6611,3.6611,3.5301,3.4005,3.3227,3.2015,3.118,3.1044,3.0279,2.9792,2.9792,2.9792,2.9792,2.9792,2.9792,2.9792,2.9792,2.9792,2.9792,2.9792,2.9792,2.9792,2.9792,2.9792,2.9792,2.9792,2.9792,2.9792,4.0373,4.0489,4.0441,4.0158,4.0101,3.9336,3.6406,3.5619,3.4428,3.0643,2.8787,2.7677,2.731,2.8429,2.9989,3.1715,3.4284,3.6541,3.7881,3.8065,3.823,3.8652,4.001,4.0914,4.0943,4.1363,4.1626,4.1647,4.0672,4.007,4.007,4.007,4.007,4.007,4.007,4.007,4.007,4.007,4.007,4.007,4.007,4.007,4.007,4.007,4.007,4.007,4.007,4.007,4.007,4.007,4.007,4.0138,4.0764,4.1085,4.1356,4.2591,4.32,4.3521,4.4147,4.4468,4.4587,4.4587,4.4587,4.4587,4.4587,4.4587,4.4587,4.4587,4.3948,4.3108,4.2269,4.1346,4.05,3.961,3.9424,3.9394,3.9275,3.9245,3.9215,3.9095,3.8616,3.8227,3.8227,3.7689,3.724,3.724,3.6567,3.6015,3.5866,3.3139,3.0895,3.0139,2.9856,2.9792,2.9792,2.9792,2.9792,2.9792,2.9792,2.9792,2.9792,2.9792,2.9792,2.9792,2.9792,2.9792,2.9792,2.9792,2.9792,2.9792,2.9792,2.9792,4.0489,4.0489,4.0473,4.0339,4.0321,3.935,3.5646,3.4396,3.2864,2.8875,2.6988,2.6186,2.6542,2.7567,2.8888,3.0461,3.3495,3.5899,3.6688,3.79,3.8707,3.8707,3.9753,4.0653,4.1075,4.1151,4.1326,4.1775,4.072,4.007,4.007,4.007,4.007,4.007,4.007,4.007,4.007,4.007,4.007,4.007,4.007,4.007,4.007,4.007,4.007,4.007,4.007,4.007,4.007,4.007,4.0307,4.0696,4.1068,4.1677,4.2439,4.3166,4.3673,4.4079,4.4451,4.4587,4.4587,4.4587,4.4587,4.4587,4.4587,4.4587,4.4587,4.4587,4.3948,4.3108,4.2269,4.1346,4.05,3.961,3.9424,3.9424,3.9424,3.9424,3.9424,3.9424,3.9155,3.8931,3.8931,3.8362,3.7913,3.7913,3.7375,3.6805,3.6295,3.4237,3.2428,3.1408,3.0846,3.0355,2.9869,2.9792,2.9792,2.9792,2.9792,2.9792,2.9792,2.9792,2.9792,2.9792,2.9792,2.9792,2.9792,2.9792,2.9792,2.9792,2.9792,2.9792,4.0392,4.0489,4.0489,4.0489,4.0354,3.9146,3.4917,3.3119,3.1279,2.7537,2.5583,2.4886,2.5944,2.6806,2.7669,2.8594,3.1524,3.4018,3.488,3.6688,3.8102,3.8652,3.9405,4.0212,4.1038,4.0903,4.1061,4.174,4.072,4.007,4.007,4.007,4.007,4.007,4.007,4.007,4.007,4.007,4.007,4.007,4.007,4.007,4.007,4.007,4.007,4.007,4.007,4.007,4.007,4.007,4.0527,4.1221,4.1373,4.2252,4.3436,4.3606,4.4062,4.4587,4.4587,4.4587,4.4587,4.4587,4.4587,4.4587,4.4587,4.4587,4.4587,4.4587,4.3814,4.2847,4.2189,4.1213,4.0239,3.9538,3.9424,3.9424,3.9424,3.9424,3.9424,3.9424,3.9424,3.9424,3.9424,3.8975,3.8601,3.8601,3.8033,3.7322,3.6631,3.5682,3.4632,3.3449,3.1937,3.0825,3.0152,2.9934,2.9792,2.9792,2.9792,2.9792,2.9792,2.9792,2.9792,2.9792,2.9792,2.9792,2.9792,2.9792,2.9792,2.9792,2.9792,2.9792,4.0085,4.0489,4.0489,4.0489,3.995,3.8488,3.4974,3.279,3.0534,2.7069,2.5494,2.4772,2.4698,2.5336,2.6339,2.7702,2.8833,3.0827,3.4477,3.5192,3.6193,3.8432,3.9405,4.0212,4.1038,4.1234,4.1486,4.1782,4.072,4.007,4.007,4.007,4.007,4.007,4.007,4.007,4.007,4.007,4.007,4.007,4.007,4.007,4.007,4.007,4.007,4.007,4.007,4.007,4.007,4.007,4.0527,4.1271,4.1931,4.2692,4.3504,4.4215,4.4519,4.4587,4.4587,4.4587,4.4587,4.4587,4.4587,4.4587,4.4587,4.4587,4.4587,4.4587,4.341,4.2125,4.1997,4.0774,3.9481,3.9409,3.9424,3.9424,3.9424,3.9424,3.9424,3.9424,3.9424,3.9424,3.9424,3.9364,3.9334,3.9334,3.8736,3.8302,3.8217,3.7555,3.6763,3.5812,3.2671,3.0764,3.1009,3.0279,2.9792,2.9792,2.9792,2.9792,2.9792,2.9792,2.9792,2.9792,2.9792,2.9792,2.9792,2.9792,2.9792,2.9792,2.9792,2.9792,3.945,3.9777,3.9777,3.9777,3.8738,3.7103,3.4737,3.2449,3.0088,2.7593,2.5933,2.4836,2.4543,2.4756,2.5114,2.5551,2.7126,2.8833,3.0448,3.3183,3.5357,3.6347,3.8083,3.968,4.0983,4.0527,4.0365,4.0775,4.0336,4.007,4.007,4.007,4.007,4.007,4.007,4.007,4.007,4.007,4.007,4.007,4.007,4.007,4.007,4.007,4.007,4.007,4.007,4.007,4.007,4.007,4.0781,4.188,4.2185,4.3047,4.4147,4.4468,4.4587,4.4587,4.4587,4.4587,4.4587,4.4587,4.4587,4.4587,4.4587,4.4587,4.4587,4.4587,4.335,4.1997,4.1997,4.0706,3.9424,3.9424,3.9424,3.9424,3.9424,3.9424,3.9424,3.9424,3.9424,3.9424,3.9424,3.9424,3.9424,3.9424,3.9185,3.9005,3.9005,3.8235,3.7608,3.7441,3.5319,3.3676,3.3295,3.2326,3.1747,3.1747,3.0838,3.0281,3.0281,2.9967,2.9792,2.9792,2.9792,2.9792,2.9792,2.9792,2.9792,2.9792,2.9792,2.9792,3.8219,3.8719,3.8911,3.8911,3.7623,3.5968,3.4526,3.2025,2.9579,2.8013,2.6305,2.5005,2.4693,2.4623,2.4528,2.4321,2.5682,2.6979,2.7695,3.0742,3.3146,3.3862,3.5477,3.7367,3.9478,3.973,3.9931,4.0314,4.0204,4.007,4.007,4.007,4.007,4.007,4.007,4.007,4.007,4.007,4.007,4.007,4.007,4.007,4.007,4.007,4.007,4.007,4.007,4.007,4.007,4.007,4.095,4.2286,4.2286,4.3217,4.4587,4.4587,4.4587,4.4587,4.4587,4.4587,4.4587,4.4587,4.4587,4.4587,4.4587,4.4587,4.4587,4.4587,4.335,4.1933,4.1674,4.0516,3.9424,3.9424,3.9424,3.9424,3.9424,3.9424,3.9424,3.9424,3.9424,3.9424,3.9424,3.9424,3.9424,3.9424,3.9424,3.9424,3.9424,3.8708,3.8355,3.8665,3.7662,3.6476,3.5142,3.4066,3.3467,3.3467,3.2111,3.1299,3.1299,3.0615,3.0193,3.0043,3.0043,2.9955,2.9792,2.9792,2.9792,2.9792,2.9792,2.988,3.6276,3.7353,3.8007,3.8007,3.6757,3.5276,3.4391,3.1564,2.8871,2.8063,2.6505,2.5224,2.5034,2.4891,2.4731,2.4528,2.4358,2.5071,2.7457,2.7842,2.876,3.1146,3.1458,3.2761,3.6028,3.8904,4.0664,4.0897,4.0417,4.007,4.007,4.007,4.007,4.007,4.007,4.007,4.007,4.007,4.007,4.007,4.007,4.007,4.007,4.007,4.007,4.007,4.007,4.007,4.007,4.007,4.095,4.2286,4.2286,4.3217,4.4587,4.4587,4.4587,4.4587,4.4587,4.4587,4.4587,4.4587,4.4587,4.4587,4.4587,4.4587,4.4587,4.4587,4.335,4.1804,4.0946,4.006,3.9424,3.9424,3.9424,3.9424,3.9424,3.9424,3.9424,3.9424,3.9424,3.9424,3.9424,3.9424,3.9424,3.9424,3.9424,3.9424,3.9424,3.9424,3.9409,3.9409,3.9394,3.8468,3.6158,3.5099,3.4594,3.4594,3.3544,3.3013,3.3013,3.1928,3.1135,3.062,3.0608,3.0331,2.9792,2.9792,2.9792,2.9792,2.9792,3.008,3.4693,3.518,3.5391,3.5391,3.4141,3.2833,3.2545,3.0314,2.8198,2.7948,2.6505,2.5253,2.5034,2.4962,2.485,2.4543,2.4462,2.4635,2.5237,2.8172,3.054,3.1311,3.4835,3.7668,3.8858,3.995,4.0664,4.0897,4.0417,4.007,4.007,4.007,4.007,4.007,4.007,4.007,4.007,4.007,4.007,4.007,4.007,4.007,4.007,4.007,4.007,4.007,4.007,4.007,4.007,4.007,4.095,4.2286,4.2286,4.3217,4.4587,4.4587,4.4587,4.4587,4.4587,4.4587,4.4587,4.4587,4.4587,4.4587,4.4587,4.4587,4.4457,4.3873,4.2909,4.1804,4.0946,4.006,3.9424,3.9424,3.9424,3.9424,3.9424,3.9424,3.9424,3.9424,3.9424,3.9424,3.9424,3.9424,3.9424,3.9424,3.9424,3.9424,3.9424,3.9424,3.9424,3.9424,3.9424,3.9086,3.8352,3.7387,3.6774,3.6774,3.5454,3.4603,3.4603,3.3225,3.2397,3.2228,3.1182,3.0532,3.0357,2.998,2.9792,2.9792,2.9792,3.0093,3.3089,3.3519,3.375,3.3718,3.2699,3.1698,3.1698,2.9737,2.789,2.789,2.6505,2.5264,2.5141,2.5046,2.4937,2.4723,2.4572,2.476,2.5559,2.8184,3.0375,3.1274,3.533,3.8136,3.8364,3.9616,4.0435,4.0481,4.0422,4.0336,4.0121,4.007,4.007,4.007,4.007,4.007,4.007,4.007,4.007,4.007,4.007,4.007,4.007,4.007,4.007,4.007,4.007,4.007,0.0,4.007,4.095,4.2286,4.2286,4.3217,4.4587,4.4587,4.4587,4.4587,4.4587,4.4587,4.4587,4.4587,4.4587,4.4587,4.4587,4.4587,4.4514,4.3931,4.2909,4.1869,4.1346,4.0309,3.9424,3.9424,3.9424,3.9424,3.9424,3.9424,3.9424,3.9424,3.9424,3.9424,3.9424,3.9424,3.9424,3.9424,3.9424,3.9424,3.9424,3.9424,3.9424,3.9424,3.9424,3.9424,3.9424,3.8782,3.8383,3.8383,3.7063,3.6318,3.6318,3.4562,3.3569,3.3331,3.1915,3.1022,3.062,3.0068,2.9792,2.9792,3.0005,3.0394,0.0,3.2216,3.2807,3.2737,3.216,3.1583,3.1525,2.964,0.0,2.7813,2.6467,2.5303,2.5303,2.5152,2.501,2.4998,2.4723,2.5333,2.7734,2.8215,2.9127,3.1384,3.3788,3.5323,3.5443,3.8275,4.0021,3.9772,4.04,4.0569,4.0086,4.0087,4.007,4.007,4.007,4.007,4.007,4.007,4.007,4.007,4.007,4.007,4.007,4.007,4.007,4.007,4.007,4.007,4.007,4.007,4.0916,4.2219,4.2269,4.32,4.4502,4.4553,4.4587,4.4587,4.4587,4.4587,4.4587,4.4587,4.4587,4.4587,4.4587,4.4587,4.4587,4.4587,4.335,4.1997,4.1997,4.0706,3.9424,3.9424,3.9424,3.9424,3.9424,3.9424,3.9424,3.9424,3.9424,3.9424,3.9424,3.9424,3.9424,3.9424,3.9424,3.9424,3.9424,3.9424,3.9424,3.9424,3.9424,3.9424,3.9424,3.9424,3.9424,3.9424,3.8472,3.7919,3.7919,3.6015,3.4645,3.406,3.2937,3.1782,3.067,3.0156,2.9905,2.9917,3.0432,3.0947,3.0186,0.0,3.1083,3.1064,3.0891,3.0525,0.0,2.8775,2.7717,2.7044,2.6063,2.5303,2.5303,2.5264,2.516,2.4896,2.4771,2.5469,2.7569,3.1005,3.3532,3.4073,3.634,3.7363,3.6193,3.8011,3.9517,4.0024,4.0026,3.9934,3.9812,3.998,4.007,4.007,4.007,4.007,4.007,4.007,4.007,4.007,4.007,4.007,4.007,4.007,4.007,4.007,4.007,4.007,4.007,4.007,4.0629,4.1508,4.2066,4.2861,4.3775,4.435,4.4587,4.4587,4.4587,4.4587,4.4587,4.4587,4.4587,4.4587,4.4587,4.4587,4.4587,4.4587,4.335,4.1997,4.1997,4.0706,3.9424,3.9424,3.9424,3.9424,3.9424,3.9424,3.9424,3.9424,3.9424,3.9424,3.9424,3.9424,3.9424,3.9424,3.9424,3.9424,3.9424,3.9424,3.9424,3.9424,3.9424,3.9424,3.9424,3.9424,3.9424,3.9424,3.9177,3.9017,3.9017,3.7753,3.6965,3.69,3.4619,3.2726,3.121,3.1085,3.1009,3.1022,3.1148,3.1499,2.9782,3.0059,3.0482,3.0062,3.0206,3.0217,2.9333,2.8486,2.764,2.6774,0.0,2.5303,2.5303,2.5947,2.6165,2.5182,2.646,2.8033,2.9292,3.1696,3.377,3.4862,3.6182,3.711,3.7386,3.8615,3.9492,3.9644,3.9832,3.9719,3.9212,3.9324,3.9467,3.9563,3.958,3.9732,4.007,4.007,4.007,4.007,4.007,4.007,4.007,4.007,4.007,4.007,4.007,4.007,4.007,4.007,4.0527,4.1271,4.1999,4.276,4.3521,4.4282,4.4587,4.4587,4.4587,4.4587,4.4587,4.4587,4.4587,4.4587,4.4587,4.4587,4.4587,4.4587,4.335,4.1997,4.1997,4.0706,3.9424,3.9424,3.9424,3.9424,3.9424,3.9424,3.9424,3.9424,3.9424,3.9424,3.9424,3.9424,3.9424,3.9424,3.9424,3.9424,3.9424,3.9424,3.9424,3.9424,3.9424,3.9424,3.9424,3.9424,3.9424,3.9424,3.9424,3.9424,3.9424,3.8383,3.7587,3.7098,3.4925,3.338,3.2529,3.1744,3.1386,3.1399,3.165,3.1926,2.9473,2.9941,3.0518,2.9558,2.9832,3.0089,2.9228,0.0,0.0,0.0,0.0,2.538,2.5649,2.6697,2.7091,2.5859,2.8681,3.1233,3.1845,3.2265,3.3128,3.4789,3.532,3.6219,3.7973,3.9093,3.9502,3.9009,3.9626,3.9631,3.8701,3.8608,3.8694,3.8914,3.8868,3.9174,3.9901,4.002,4.007,4.007,4.007,4.007,4.007,4.007,4.007,4.007,4.007,4.007,4.007,4.007,4.046,4.1102,4.183,4.2591,4.3335,4.4113,4.4468,4.4587,4.4587,4.4587,4.4587,4.4587,4.4587,4.4587,4.4587,4.4587,4.4587,4.4587,4.335,4.1997,4.1997,4.0706,3.9424,3.9424,3.9424,3.9424,3.9424,3.9424,3.9424,3.9424,3.9424,3.9424,3.9424,3.9424,3.9424,3.9424,3.9424,3.9424,3.9424,3.9424,3.9424,3.9424,3.9424,3.9424,3.9424,3.9424,3.9424,3.9424,3.9424,3.9424,3.9424,3.8546,3.7572,3.6448,3.5086,3.4353,3.4193,3.2794,3.2021,3.1883,3.2351,3.2495,2.7832,2.9101,3.0644,2.9698,2.9483,2.9268,2.8384,0.0,0.0,0.0,0.0,2.5755,2.7236,2.6505,2.6041,2.7077,2.9681,3.2233,3.4183,3.6266,3.6945,3.5192,3.6853,3.7459,3.5724,3.7588,3.886,3.8761,3.9005,3.9122,3.8958,3.8719,3.8614,3.8663,3.8308,3.843,3.9157,3.9766,4.007,4.007,4.007,4.007,4.007,4.007,4.007,4.007,4.007,4.007,4.007,4.007,4.0155,4.0324,4.1068,4.1813,4.2557,4.3318,4.4012,4.4587,4.4587,4.4587,4.4587,4.4587,4.4587,4.4587,4.4587,4.4587,4.4587,4.4587,4.335,4.1997,4.1997,4.0706,3.9424,3.9424,3.9424,3.9424,3.9424,3.9424,3.9424,3.9424,3.9424,3.9424,3.9424,3.9424,3.9424,3.9424,3.9424,3.9424,3.9424,3.9424,3.9424,3.9424,3.9424,3.9424,3.9424,3.9424,3.9424,3.9424,3.9424,3.9424,3.9424,3.9265,3.8634,3.7587,3.7334,3.6726,3.5823,3.5568,3.4996,3.4166,3.4245,3.3811,2.7461,2.8555,3.0098,2.9668,3.0521,3.1237,3.0409,2.9854,0.0,0.0,2.6757,2.6997,2.7766,2.7986,2.914,3.2428,3.1996,3.2198,3.4884,3.4971,3.4816,3.4972,3.6028,3.6798,3.7,3.8028,3.8707,3.8707,3.8793,3.871,3.8435,3.8271,3.8174,3.8027,3.7789,3.7928,3.8396,3.8734,3.9292,4.007,4.007,4.007,4.007,4.007,4.007,4.007,4.007,4.007,4.007,4.007,4.007,4.0155,4.0916,4.1407,4.1847,4.2997,4.391,4.4587,4.4587,4.4587,4.4587,4.4587,4.4587,4.4587,4.4587,4.4587,4.4587,4.4587,4.368,4.2583,4.2125,4.1095,3.999,3.9481,3.9424,3.9424,3.9424,3.9424,3.9424,3.9424,3.9424,3.9424,3.9424,3.9424,3.9424,3.9424,3.9424,3.9424,3.9424,3.9424,3.9424,3.9424,3.9424,3.9424,3.9424,3.9424,3.9424,3.9424,3.9424,3.9424,3.9424,3.9424,3.9177,3.8708,3.8069,3.7587,3.7098,3.6448,3.5668,3.4664,3.4664,3.4108,2.7109,2.7969,2.9297,2.9297,3.0723,3.2129,3.2109,3.1548,3.0559,2.8917,2.8599,2.8559,2.8497,2.9698,3.193,3.5715,3.3978,3.3146,3.5955,3.4531,3.3858,3.5661,3.5852,3.6633,3.8524,3.8707,3.8707,3.8707,3.8707,3.8515,3.8099,3.798,3.781,3.7586,3.7391,3.7403,3.7789,3.7682,3.8379,3.9817,3.9817,3.9918,4.007,4.007,4.007,4.007,4.007,4.007,4.007,4.007,4.007,4.0138,4.0713,4.1052,4.1373,4.2675,4.3639,4.4316,4.4316,4.4418,4.4587,4.4587,4.4587,4.4587,4.4587,4.4587,4.4587,4.4587,4.4121,4.3366,4.2252,4.1346,4.05,3.961,3.9424,3.9424,3.9424,3.9424,3.9424,3.9424,3.9424,3.9424,3.9424,3.9424,3.9424,3.9424,3.9424,3.9424,3.9424,3.9424,3.9424,3.9424,3.9424,3.9424,3.9424,3.9424,3.9424,3.9424,3.9424,3.9424,3.9424,3.9424,3.9424,3.9424,3.862,3.8144,3.8144,3.7329,3.6383,3.5453,3.5142,3.4498,2.6055,2.707,2.8398,2.8398,2.8535,2.9258,3.1562,3.0213,2.883,3.0048,3.0327,3.029,3.0237,3.0987,3.1872,3.2724,3.4577,3.6613,3.857,3.867,3.8507,3.8426,3.8432,3.8505,3.8689,3.8707,3.8707,3.8707,3.8707,3.8658,3.8627,3.8183,3.7895,3.7862,3.6992,3.6824,3.7525,3.7081,3.7601,3.9073,3.9073,3.9428,4.007,4.007,4.007,4.007,4.007,4.007,4.007,4.007,4.007,4.0087,4.0138,4.0595,4.1305,4.2083,4.2844,4.3504,4.3504,4.3978,4.4587,4.4587,4.4587,4.4587,4.4587,4.4587,4.4587,4.4587,4.457,4.4121,4.2442,4.1346,4.05,3.961,3.9424,3.9424,3.9424,3.9424,3.9424,3.9424,3.9424,3.9424,3.9424,3.9424,3.9424,3.9424,3.9424,3.9424,3.9424,3.9424,3.9424,3.9424,3.9424,3.9424,3.9424,3.9424,3.9424,3.9424,3.9424,3.9424,3.9424,3.9424,3.9424,3.9424,3.9337,3.9265,3.9265,3.9192,3.862,3.751,3.654,3.5588,2.5937,2.6973,2.8301,2.8301,2.8301,2.9101,3.2207,3.2141,3.1295,3.079,3.1487,3.1808,3.0609,3.2833,3.471,3.4414,3.6337,3.8289,3.9545,3.9364,3.9044,3.8961,3.8803,3.8707,3.8707,3.8707,3.8707,3.8707,3.8707,3.8707,3.8707,3.8496,3.8249,3.7893,3.7524,3.7334,3.7303,3.6824,3.7058,3.8088,3.8248,3.87,3.9411,3.9411,3.9648,4.007,4.007,4.007,4.007,4.007,4.007,4.007,4.007,4.0544,4.1238,4.1508,4.2083,4.2726,4.2726,4.3217,4.3859,4.3859,4.4181,4.4587,4.4587,4.4587,4.4587,4.4587,4.4587,4.431,4.3108,4.2125,4.128,4.0447,3.9793,3.9424,3.9424,3.9424,3.9424,3.9424,3.9424,3.9424,3.9424,3.9424,3.9424,3.9424,3.9424,3.9424,3.9424,3.9424,3.9424,3.9424,3.9424,3.9424,3.9424,3.9424,3.9424,3.9424,3.9424,3.9424,3.9424,3.9424,3.9424,3.9424,3.9424,3.9424,3.9424,3.9424,3.887,3.7753,3.7343,3.6618,2.623,2.6973,2.7969,2.8223,2.8086,2.8789,3.2246,3.2812,3.2563,3.2435,3.2821,3.2787,3.1436,3.4032,3.6169,3.5584,3.7658,3.9508,4.0024,3.9622,3.9212,3.9125,3.8855,3.8707,3.8707,3.8707,3.8707,3.8707,3.8707,3.8707,3.8707,3.8707,3.8546,3.8183,3.798,3.7755,3.7433,3.6904,3.6824,3.7136,3.7329,3.7874,3.865,3.865,3.9056,3.9732,3.9732,3.9868,4.007,4.007,4.007,4.007,4.007,4.0392,4.0849,4.0849,4.1322,4.1948,4.1948,4.2439,4.3064,4.3064,4.3589,4.4215,4.4215,4.4384,4.4587,4.4587,4.4587,4.444,4.3873,4.2847,4.1804,4.0878,4.0045,3.9424,3.9424,3.9424,3.9424,3.9424,3.9424,3.9424,3.9424,3.9424,3.9424,3.9424,3.9424,3.9424,3.9424,3.9424,3.9424,3.9424,3.9424,3.9424,3.9424,3.9424,3.9424,3.9424,3.9424,3.9424,3.9424,3.9424,3.9424,3.9424,3.9424,3.9424,3.9424,3.9424,3.9017,3.8308,3.7994,3.742,2.6894,2.6953,2.7226,2.8066,2.7656,2.793,3.1406,3.1523,3.187,3.5215,3.4457,3.3133,3.2936,3.4391,3.5591,3.552,3.8315,4.0406,4.0139,3.9819,3.9481,3.9133,3.8855,3.8707,3.8707,3.8707,3.8707,3.8707,3.8707,3.8707,3.8707,3.8707,3.8707,3.8707,3.8183,3.7893,3.7893,3.7433,3.696,3.6416,3.6416,3.6903,3.7889,3.7889,3.8294,3.8988,3.8988,3.9394,4.007,4.007,4.007,4.007,4.007,4.007,4.007,4.007,4.0544,4.1187,4.1187,4.1677,4.2286,4.2286,4.2794,4.3403,4.3403,4.3944,4.457,4.457,4.457,4.4587,4.4587,4.329,4.1804,4.0946,4.0045,3.9424,3.9424,3.9424,3.9424,3.9424,3.9424,3.9424,3.9424,3.9424,3.9424,3.9424,3.9424,3.9424,3.9424,3.9424,3.9424,3.9424,3.9424,3.9424,3.9424,3.9424,3.9424,3.9424,3.9424,3.9424,3.9424,3.9424,3.9424,3.9424,3.9424,3.9424,3.9424,3.9424,3.9424,3.9337,3.8308,3.7829,2.5951,2.6894,2.7773,2.7461,2.8105,2.9414,3.168,3.1992,3.2597,3.5343,3.4462,3.3173,3.3062,3.536,3.6901,3.5699,3.8315,4.0473,4.0389,4.0139,3.9819,3.9486,3.9152,3.8894,3.8719,3.8707,3.8707,3.8707,3.8707,3.8707,3.8707,3.8707,3.8707,3.8707,3.8546,3.8465,3.8465,3.7964,3.7614,3.7452,3.6764,3.6672,3.711,3.711,3.7516,3.8227,3.8227,3.8633,3.936,3.9868,4.007,4.007,4.007,4.007,4.007,4.007,4.0223,4.0409,4.0409,4.0899,4.1525,4.1525,4.2033,4.2625,4.2625,4.3166,4.3775,4.3775,4.4147,4.4587,4.4587,4.3739,4.2707,4.1804,4.0447,3.9424,3.9424,3.9424,3.9424,3.9424,3.9424,3.9424,3.9424,3.9424,3.9424,3.9424,3.9424,3.9424,3.9424,3.9424,3.9424,3.9424,3.9424,3.9424,3.9424,3.9424,3.9424,3.9424,3.9424,3.9424,3.9424,3.9424,3.9424,3.9424,3.9424,3.9424,3.9424,3.9424,3.9424,3.9424,3.9104,3.8943,2.6894,2.7661,2.8281,2.8496,2.9082,3.0137,3.2207,3.3203,3.4121,3.5605,3.5061,3.4272,3.4127,3.6299,3.7757,3.668,3.8738,4.0489,4.0489,4.0286,4.0022,3.9819,3.9408,3.9036,3.8884,3.8762,3.8707,3.8707,3.8707,3.8707,3.8707,3.8707,3.8707,3.8707,3.8707,3.8707,3.8707,3.8382,3.8099,3.7893,3.7268,3.6991,3.6956,3.6525,3.6738,3.7483,3.777,3.8159,3.8616,3.9343,3.9648,3.9681,3.9969,4.007,4.007,4.007,4.007,4.007,4.007,4.0375,4.0747,4.0747,4.1255,4.1863,4.1863,4.2388,4.3031,4.3335,4.3758,4.4198,4.4502,4.3948,4.3108,4.2189,4.0961,3.9793,3.9481,3.9424,3.9424,3.9424,3.9424,3.9424,3.9424,3.9424,3.9424,3.9424,3.9424,3.9424,3.9424,3.9424,3.9424,3.9424,3.9424,3.9424,3.9424,3.9424,3.9424,3.9424,3.9424,3.9424,3.9424,3.9424,3.9424,3.9424,3.9424,3.9424,3.9424,3.9424,3.9424,3.9424,3.9424,3.9424,2.8734,2.8798,2.8788,3.0371,3.0351,3.0547,3.2871,3.4746,3.5976,3.5918,3.5957,3.5918,3.5665,3.7011,3.8118,3.793,3.9296,4.0392,4.0392,4.0247,4.012,4.0101,3.9576,3.9178,3.9125,3.8884,3.8719,3.8707,3.8707,3.8707,3.8707,3.8707,3.8707,3.8707,3.8707,3.8707,3.8707,3.8707,3.8465,3.798,3.7928,3.7685,3.721,3.6165,3.6056,3.6721,3.7483,3.7804,3.7872,3.8599,3.8903,3.8971,3.9698,3.9986,3.9986,4.0054,4.007,4.007,4.007,4.007,4.007,4.007,4.0544,4.1102,4.1102,4.161,4.2337,4.3031,4.3267,4.3487,4.4265,4.3848,4.3026,4.2316,4.1412,4.05,3.9666,3.9481,3.9424,3.9424,3.9424,3.9424,3.9424,3.9424,3.9424,3.9424,3.9424,3.9424,3.9424,3.9424,3.9424,3.9424,3.9424,3.9424,3.9424,3.9424,3.9424,3.9424,3.9424,3.9424,3.9424,3.9424,3.9424,3.9424,3.9424,3.9424,3.9424,3.9424,3.9424,3.9424,3.9424,3.9424,2.7233,2.8233,2.9279,2.9764,3.123,3.2734,3.3281,3.4746,3.5996,3.5976,3.5957,3.5897,3.586,3.6589,3.7175,3.7127,3.8507,3.9546,3.9546,4.0053,4.0339,4.012,3.9982,3.9668,3.9133,3.9063,3.8923,3.8738,3.8707,3.8707,3.8707,3.8707,3.8707,3.8707,3.8707,3.8707,3.8707,3.8707,3.8627,3.8496,3.8099,3.7859,3.772,3.6706,3.6114,3.591,3.6688,3.7026,3.7077,3.7838,3.8142,3.821,3.8937,3.9225,3.9292,3.9868,4.007,4.007,4.007,4.007,4.007,4.007,4.0189,4.0324,4.0324,4.0849,4.1474,4.1644,4.21,4.2709,4.347,4.3063,4.2522,4.2916,4.1869,4.0622,4.0432,3.9849,3.9424,3.9424,3.9424,3.9424,3.9424,3.9424,3.9424,3.9424,3.9424,3.9424,3.9424,3.9424,3.9424,3.9424,3.9424,3.9424,3.9424,3.9424,3.9424,3.9424,3.9424,3.9424,3.9424,3.9424,3.9424,3.9424,3.9424,3.9424,3.9424,3.9424,3.9424,3.9424,3.9424,3.9424,2.76,2.8388,2.9047,2.9999,3.1816,3.3398,3.3398,3.4746,3.5996,3.5996,3.5976,3.5937,3.5918,3.6497,3.6975,3.6922,3.7926,3.8715,3.8681,3.9046,3.9419,3.9672,3.9584,3.9505,3.9584,3.9289,3.9036,3.8894,3.8792,3.8707,3.8707,3.8707,3.8707,3.8707,3.8707,3.8707,3.8707,3.8707,3.8707,3.8707,3.8433,3.815,3.7859,3.7135,3.6481,3.6002,3.6412,3.6468,3.6282,3.706,3.7364,3.7449,3.8193,3.8684,3.9039,3.9411,3.9783,4.007,4.007,4.007,4.007,4.007,4.007,4.007,4.007,4.0358,4.0747,4.1102,4.1474,4.1931,4.2675,4.2545,4.2301,4.2697,4.1678,4.069,4.069,3.999,3.9424,3.9424,3.9424,3.9424,3.9424,3.9424,3.9424,3.9424,3.9424,3.9424,3.9424,3.9424,3.9424,3.9424,3.9424,3.9424,3.9424,3.9424,3.9424,3.9424,3.9424,3.9424,3.9424,3.9424,3.9424,3.9424,3.9424,3.9424,3.9424,3.9424,3.9424,3.9424,3.9424,3.9424,2.8195,2.8604,2.8828,3.0469,3.2031,3.3223,3.3379,3.4629,3.582,3.5976,3.5996,3.5976,3.5937,3.6445,3.6858,3.6754,3.7372,3.7868,3.7829,3.7911,3.8277,3.8988,3.8829,3.8917,3.9586,3.9165,3.8801,3.8689,3.8607,3.8529,3.8487,3.8615,3.8707,3.8707,3.8707,3.8707,3.8707,3.8707,3.8707,3.8707,3.8707,3.8465,3.8013,3.7632,3.7097,3.6539,3.6457,3.6139,3.579,3.6361,3.6586,3.6654,3.7415,3.8075,3.8633,3.8903,3.9377,3.9918,4.0037,4.007,4.007,4.007,4.007,4.007,4.007,4.007,4.0206,4.0832,4.1018,4.117,4.1914,4.1961,4.1856,4.1988,4.1356,4.0738,4.0727,3.999,3.9424,3.9424,3.9424,3.9424,3.9424,3.9424,3.9424,3.9424,3.9424,3.9424,3.9424,3.9424,3.9424,3.9424,3.9424,3.9424,3.9424,3.9424,3.9424,3.9424,3.9424,3.9424,3.9424,3.9424,3.9424,3.9424,3.9424,3.9424,3.9424,3.9424,3.9424,3.9424,3.9424,3.9424,2.6929,2.8165,2.9551,3.0488,3.1543,3.2539,3.3242,3.416,3.5098,3.584,3.5996,3.5996,3.5996,3.6035,3.6054,3.6046,3.6606,3.7055,3.7055,3.7599,3.8046,3.8161,3.8131,3.8038,3.785,3.7776,3.7516,3.7075,3.7623,3.7905,3.7672,3.8322,3.8707,3.8707,3.8707,3.8707,3.8707,3.8707,3.8707,3.8707,3.8707,3.8658,3.8578,3.8515,3.7982,3.7076,3.6603,3.6333,3.6266,3.5885,3.5774,3.5859,3.6637,3.6992,3.7229,3.8514,3.9056,3.9225,3.9868,4.007,4.007,4.007,4.007,4.007,4.007,4.007,4.0104,4.0206,4.0223,4.0409,4.1153,4.0754,4.04,4.1172,4.1096,4.0815,4.0769,3.999,3.9424,3.9424,3.9424,3.9424,3.9424,3.9424,3.9424,3.9424,3.9424,3.9424,3.9424,3.9424,3.9424,3.9424,3.9424,3.9424,3.9424,3.9424,3.9424,3.9424,3.9424,3.9424,3.9424,3.9424,3.9424,3.9424,3.9424,3.9424,3.9424,3.9424,3.9424,3.9424,3.9424,3.9424,2.7141,2.8352,2.9561,3.0464,3.1406,3.2207,3.2637,3.3379,3.4219,3.5098,3.5273,3.543,3.5918,3.5976,3.5937,3.5918,3.6157,3.6309,3.619,3.6449,3.6815,3.7219,3.7276,3.7406,3.7753,3.7617,3.7395,3.7171,3.7205,3.7169,3.7072,3.7245,3.7551,3.801,3.8028,3.823,3.8707,3.8707,3.8707,3.8707,3.8707,3.8707,3.8707,3.8707,3.8267,3.7578,3.7342,3.6943,3.6374,3.6139,3.5854,3.5656,3.5994,3.64,3.6857,3.7516,3.8278,3.9039,3.936,3.9732,4.007,4.007,4.007,4.007,4.007,4.007,4.007,4.007,4.007,4.0155,4.0493,4.0221,4.0022,4.0407,4.0394,4.0387,4.0767,4.0427,3.999,3.9481,3.9424,3.9424,3.9424,3.9424,3.9424,3.9424,3.9424,3.9424,3.9424,3.9424,3.9424,3.9424,3.9424,3.9424,3.9424,3.9424,3.9424,3.9424,3.9424,3.9424,3.9424,3.9424,3.9424,3.9424,3.9424,3.9424,3.9424,3.9424,3.9424,3.9424,3.9424,3.9424,2.7227,2.8091,2.8849,3.0029,3.0852,3.1504,3.2031,3.2637,3.334,3.4199,3.4375,3.4648,3.5508,3.5859,3.5976,3.5937,3.5918,3.5843,3.5708,3.563,3.5795,3.6372,3.6411,3.6661,3.7296,3.7143,3.6969,3.6898,3.6713,3.6545,3.6391,3.6398,3.6646,3.7195,3.7184,3.7569,3.8395,3.8597,3.8707,3.8707,3.8707,3.8707,3.8707,3.8707,3.8465,3.8099,3.7946,3.7452,3.6746,3.6498,3.6182,3.5783,3.565,3.5977,3.6502,3.6705,3.7483,3.8481,3.8853,3.9343,3.9834,4.002,4.007,4.007,4.007,4.007,4.007,4.007,4.007,4.007,4.007,4.0012,3.9896,3.9715,3.9936,4.0248,4.0531,4.061,4.0432,3.9538,3.9424,3.9424,3.9424,3.9424,3.9424,3.9424,3.9424,3.9424,3.9424,3.9424,3.9424,3.9424,3.9424,3.9424,3.9424,3.9424,3.9424,3.9424,3.9424,3.9424,3.9424,3.9424,3.9424,3.9424,3.9424,3.9424,3.9424,3.9424,3.9424,3.9424,3.9424,3.9424,2.6428,2.6745,2.7225,2.8871,2.9463,3.0059,3.1641,3.2148,3.248,3.3301,3.3476,3.373,3.4609,3.5449,3.5996,3.5996,3.5937,3.5898,3.5897,3.5721,3.5622,3.5661,3.5603,3.5584,3.5641,3.5608,3.5503,3.5255,3.591,3.6099,3.5584,3.6254,3.6581,3.6387,3.6358,3.6743,3.7562,3.8322,3.8707,3.8707,3.8707,3.8707,3.8707,3.8707,3.8658,3.8627,3.8099,3.7859,3.7755,3.6786,3.6374,3.6291,3.5827,3.5639,3.5774,3.6502,3.6823,3.7094,3.8497,3.9022,3.9157,3.9851,4.007,4.007,4.007,4.007,4.007,4.007,4.007,4.007,4.007,4.0104,3.9901,3.9135,4.0071,4.0878,3.991,4.021,4.0432,3.9538,3.9424,3.9424,3.9424,3.9424,3.9424,3.9424,3.9424,3.9424,3.9424,3.9424,3.9424,3.9424,3.9424,3.9424,3.9424,3.9424,3.9424,3.9424,3.9424,3.9424,3.9424,3.9424,3.9424,3.9424,3.9424,3.9424,3.9424,3.9424,3.9424,3.9424,3.9424,3.9424,2.6524,2.7024,2.7621,2.8275,2.8946,2.9609,3.0249,3.0898,3.1601,3.2461,3.2637,3.2871,3.3711,3.457,3.5351,3.5918,3.5976,3.5957,3.5918,3.5835,3.5728,3.5618,3.5584,3.5565,3.5493,3.5493,3.546,3.5369,3.5458,3.5455,3.5248,3.5154,3.5299,3.5773,3.557,3.6119,3.7477,3.7771,3.8193,3.8707,3.8707,3.8707,3.8707,3.8707,3.8707,3.8707,3.8515,3.8216,3.7859,3.7488,3.6981,3.6374,3.6182,3.5898,3.5656,3.5926,3.6349,3.6857,3.7381,3.8193,3.9039,3.9292,3.9698,4.007,4.007,4.007,4.007,4.007,4.007,4.007,4.007,4.007,4.002,3.9731,4.0828,4.1624,4.0686,4.0592,4.0622,4.0309,3.9793,3.9424,3.9424,3.9424,3.9424,3.9424,3.9424,3.9424,3.9424,3.9424,3.9424,3.9424,3.9424,3.9424,3.9424,3.9424,3.9424,3.9424,3.9424,3.9424,3.9424,3.9424,3.9424,3.9424,3.9424,3.9424,3.9424,3.9424,3.9424,3.9424,3.9424,3.9424,2.6524,2.6813,2.7101,2.7439,2.8236,2.9004,2.934,3.0131,3.0996,3.1582,3.1738,3.2012,3.2832,3.3476,3.4141,3.498,3.5371,3.5547,3.5508,3.5723,3.5835,3.5658,3.5612,3.5584,3.5526,3.5493,3.5493,3.5493,3.532,3.519,3.5105,3.4716,3.4667,3.5038,3.5016,3.555,3.6652,3.6945,3.7496,3.8303,3.8303,3.8432,3.8707,3.8707,3.8707,3.8707,3.8707,3.8496,3.8132,3.798,3.7506,3.6865,3.6522,3.6182,3.5871,3.5667,3.5943,3.6434,3.6688,3.7432,3.8328,3.8836,3.9326,3.9766,4.0003,4.007,4.007,4.007,4.007,4.007,4.007,4.007,4.007,4.007,4.1018,4.1822,4.1516,4.1284,4.108,4.0758,3.999,3.9424,3.9424,3.9424,3.9424,3.9424,3.9424,3.9424,3.9424,3.9424,3.9424,3.9424,3.9424,3.9553,3.9793,3.9538,3.9538,3.9793,3.9864,3.9737,3.9409,3.9935,4.013,3.9864,4.0115,4.0255,4.0255,3.9681,3.9424,3.9424,3.9424,3.9424,0.0,0.0,0.0,2.637,2.7285,2.8203,2.8988,2.9963,3.0703,3.0703,3.0801,3.1152,3.1992,3.2168,3.2402,3.3203,3.4082,3.4668,3.4668,3.5332,3.5773,3.5651,3.5568,3.5507,3.543,3.5449,3.5468,3.5468,3.5488,3.5383,3.5122,3.5105,3.4813,3.4223,3.471,3.4981,3.499,3.5844,3.667,3.7441,3.7477,3.79,3.867,3.8689,3.8707,3.8707,3.8707,3.8707,3.8658,3.815,3.7911,3.779,3.6825,3.6416,3.6308,3.5827,3.5622,3.5723,3.6485,3.6755,3.7026,3.8481,3.8971,3.914,3.9868,4.007,4.007,4.007,4.007,4.007,4.007,4.007,4.007,4.007,4.0646,4.1407,4.2134,4.216,4.1772,4.0878,4.0045,3.9424,3.9409,3.9424,3.9424,3.9424,3.9424,3.9424,3.9424,3.9424,3.9424,3.9424,3.9409,3.9793,4.069,3.999,3.9864,4.0675,4.0758,4.0378,3.9481,4.1095,4.1593,4.0743,4.1543,4.1997,4.1997,4.0255,3.9409,3.9409,3.9409,3.9424,2.6717,0.0,0.0,0.0,0.0,0.0,2.8279,2.9516,3.0634,3.0624,3.0661,3.0762,3.1053,3.1113,3.1211,3.1543,3.2812,3.3769,3.3769,3.3945,3.4036,3.3905,3.3877,3.3795,3.3641,3.4199,3.4564,3.4564,3.5141,3.5479,3.5383,3.5207,3.4813,3.4223,3.4346,3.4615,3.499,3.5229,3.5789,3.6633,3.7202,3.7606,3.7845,3.8432,3.8707,3.8707,3.8707,3.8707,3.8707,3.8546,3.805,3.7396,3.7452,3.6808,3.5854,3.6097,3.5941,3.5656,3.5859,3.6315,3.6941,3.7905,3.8565,3.914,3.9868,4.007,4.007,4.007,4.007,4.007,4.007,4.007,4.007,4.007,4.0646,4.1407,4.2134,4.2202,4.2028,4.1709,4.0961,4.0115,3.9481,3.9424,3.9424,3.9424,3.9424,3.9424,3.9424,3.9424,3.961,4.0239,4.0378,4.069,4.1543,4.1412,4.1412,4.1609,4.1674,4.1543,4.1295,4.1739,4.1869,4.1674,4.1869,4.1997,4.1997,4.0894,4.0378,4.0309,3.9666,3.9424,0.0,0.0,0.0,2.5418,0.0,0.0,2.7956,2.9302,3.0552,3.0557,3.0582,3.0603,3.0642,3.0687,3.0723,3.0801,3.168,3.248,3.2851,3.3184,3.3357,3.3249,3.3216,3.3128,3.2961,3.3372,3.3814,3.416,3.4661,3.5122,3.5474,3.5258,3.4944,3.4595,3.4338,3.4364,3.4663,3.4559,3.4926,3.5771,3.6229,3.6817,3.7514,3.7973,3.8377,3.8707,3.8707,3.8707,3.8707,3.8707,3.8234,3.7506,3.7578,3.7041,3.6249,3.6139,3.6028,3.5898,3.5694,3.591,3.6417,3.7178,3.7939,3.8667,3.9411,3.9834,4.007,4.007,4.007,4.007,4.007,4.007,4.007,4.007,4.0409,4.1018,4.2066,4.2282,4.2286,4.2512,4.1528,4.0569,4.006,3.992,3.992,3.992,3.992,3.992,3.992,3.992,4.0115,4.0622,4.1013,4.1609,4.2458,4.2189,4.2125,4.252,4.252,4.2379,4.1997,4.2707,4.2892,4.252,4.2909,4.2909,4.252,4.128,4.0485,4.0115,3.961,3.9424,0.0,0.0,0.0,2.5418,2.6678,0.0,2.789,2.9179,3.0314,3.0237,3.0256,3.0294,3.0314,3.0366,3.0407,3.043,3.0605,3.1055,3.1934,3.2676,3.3086,3.3027,3.2966,3.2875,3.2743,3.2769,3.3103,3.3853,3.4083,3.4584,3.5449,3.5273,3.5122,3.5105,3.4595,3.4269,3.42,3.3961,3.4183,3.4862,3.4954,3.5789,3.7221,3.7434,3.7881,3.8579,3.867,3.8707,3.8707,3.8707,3.8382,3.7859,3.7433,3.721,3.6981,3.6122,3.6011,3.6266,3.581,3.5667,3.574,3.6535,3.7229,3.7939,3.8751,3.9445,3.9969,4.0054,4.007,4.007,4.007,4.007,4.007,4.007,4.007,4.0476,4.1965,4.2286,4.2509,4.328,4.2125,4.0946,4.0743,4.0758,4.0811,4.0675,4.0758,4.0811,4.0811,4.0811,4.0878,4.1013,4.1674,4.252,4.3366,4.2707,4.2645,4.3383,4.3426,4.3108,4.2316,4.3798,4.4253,4.3443,4.4196,4.4196,4.3306,4.1723,4.0569,3.9681,3.9681,3.961,2.7852,2.664,2.5457,2.6178,2.7121,0.0,2.789,2.8659,2.9179,2.8544,2.8409,2.8448,2.8503,2.8521,2.8553,2.8668,2.9297,3.0098,3.1016,3.1289,3.1348,3.1211,3.1205,3.113,3.0995,3.1595,3.2069,3.2179,3.343,3.4584,3.5449,3.5446,3.532,3.5105,3.4999,3.4696,3.42,3.4147,3.4111,3.4045,3.4679,3.5155,3.555,3.6872,3.7569,3.7753,3.8414,3.8707,3.8707,3.8707,3.8382,3.7893,3.779,3.7268,3.6563,3.6803,3.6399,3.581,3.6139,3.5985,3.574,3.6535,3.6874,3.7246,3.8582,3.9089,3.9326,3.9918,4.007,4.007,4.007,4.007,4.007,4.007,4.007,4.0476,4.1965,4.2286,4.2689,4.408,4.3486,4.2332,4.0946,4.128,4.1543,4.0811,4.128,4.1739,4.1739,4.1739,4.1997,4.2724,4.2909,4.3426,4.4253,4.4196,4.4196,4.4327,4.4327,4.4253,4.4121,4.444,4.4514,4.4327,4.4514,4.4196,4.3306,4.297,4.2332,4.1478,4.1478,4.1095,2.789,2.6948,2.6159,2.7024,2.7582,0.0,0.0,2.8198,2.839,2.7986,2.789,2.7909,2.7937,2.7975,2.8039,2.8132,2.8906,2.9512,2.959,3.0351,3.0879,3.0801,3.0742,3.0671,3.0601,3.0941,3.1306,3.1679,3.3256,3.4391,3.4834,3.5257,3.5432,3.5304,3.5174,3.4944,3.4656,3.4338,3.4123,3.4012,3.4273,3.4605,3.5027,3.6321,3.711,3.7533,3.834,3.8707,3.8707,3.8707,3.8546,3.8267,3.8013,3.7452,3.6803,3.6803,3.6643,3.6357,3.6097,3.6028,3.5993,3.6152,3.6468,3.6924,3.7669,3.8413,3.914,3.9868,4.007,4.007,4.007,4.007,4.007,4.007,4.007,4.0476,4.1965,4.2286,4.2743,4.4282,4.4253,4.3545,4.2189,4.2395,4.252,4.2062,4.2395,4.2645,4.2645,4.2645,4.2847,4.3246,4.368,4.4138,4.457,4.4587,4.4587,4.4587,4.4587,4.4587,4.4587,4.4587,4.4587,4.4587,4.4587,4.4384,4.3948,4.3948,4.329,4.1997,4.1997,4.1804,2.8179,2.7371,2.6813,2.7678,2.7775,2.764,0.0,0.0,0.0,2.7428,2.739,2.739,2.739,2.7439,2.7497,2.7593,2.8379,2.8768,2.8144,2.9414,3.0391,3.0391,3.0605,3.0662,3.049,3.0342,3.066,3.1641,3.2814,3.368,3.416,3.4872,3.5334,3.5474,3.5289,3.5138,3.5105,3.4574,3.4246,3.42,3.3928,3.4137,3.4789,3.5661,3.6486,3.7294,3.812,3.856,3.8707,3.8707,3.8707,3.8658,3.8099,3.7685,3.7285,3.6764,3.6764,3.696,3.6165,3.6054,3.6182,3.5854,3.622,3.6772,3.6772,3.7821,3.9106,3.9698,3.9969,4.007,4.007,4.007,4.007,4.007,4.007,4.0443,4.1796,4.2202,4.2692,4.4079,4.4468,4.431,4.3426,4.3443,4.3502,4.3306,4.3426,4.3562,4.3562,4.3562,4.3562,4.3562,4.4196,4.4587,4.4587,4.4587,4.4587,4.4587,4.4587,4.4587,4.4587,4.4587,4.4587,4.4587,4.4587,4.4587,4.4587,4.4587,4.3873,4.2504,4.2504,4.2379,2.9159,2.7813,2.6813,2.7678,2.7313,2.6755,2.6755,0.0,2.6524,2.5745,0.0,2.5591,2.5591,0.0,0.0,2.5774,2.6521,2.7128,2.7148,2.7988,2.8594,2.8594,2.9941,3.0547,2.9721,2.9458,3.0037,3.1665,3.1191,3.1814,3.4083,3.4295,3.4699,3.5488,3.546,3.5354,3.5105,3.4793,3.4489,3.42,3.3928,3.3844,3.3972,3.4798,3.5624,3.6468,3.7276,3.8028,3.8707,3.8707,3.8707,3.8658,3.8099,3.7859,3.7755,3.7285,3.6843,3.6539,3.6921,3.644,3.5783,3.6182,3.6515,3.6772,3.6772,3.7821,3.9005,3.9089,3.958,4.007,4.007,4.007,4.007,4.007,4.007,4.0307,4.1153,4.183,4.254,4.3386,4.4113,4.431,4.3426,4.3931,4.4196,4.3443,4.3948,4.4457,4.4457,4.4457,4.4457,4.4457,4.4514,4.4587,4.4587,4.4587,4.4587,4.4587,4.4587,4.4587,4.4587,4.4587,4.4587,4.4587,4.4587,4.4587,4.4587,4.4587,4.4514,4.431,4.431,4.3873,2.8621,2.8236,2.8025,2.7928,2.7621,2.7217,2.6717,2.6217,2.5726,2.538,0.0,0.0,0.0,0.0,0.0,0.0,2.6229,2.6665,2.6308,2.7422,2.8301,2.8301,2.8945,2.9414,2.9492,2.9815,3.0306,3.0987,3.1114,3.1814,3.3353,3.393,3.4603,3.5468,3.5493,3.5446,3.532,3.507,3.4793,3.4486,3.4189,3.3935,3.3825,3.4623,3.5192,3.5624,3.6927,3.7679,3.8028,3.8505,3.8707,3.8676,3.8465,3.8183,3.7859,3.7685,3.7285,3.6882,3.7114,3.6921,3.6522,3.6416,3.6294,3.6197,3.6637,3.7516,3.8447,3.887,3.9512,4.007,4.007,4.007,4.007,4.007,4.007,4.029,4.1035,4.1441,4.188,4.2625,4.3386,4.3782,4.3411,4.4024,4.4457,4.4138,4.4384,4.4587,4.4587,4.4587,4.4587,4.4587,4.4587,4.4587,4.4587,4.4587,4.4587,4.4587,4.4587,4.4587,4.4587,4.4587,4.4587,4.4587,4.4587,4.4587,4.4587,4.4587,4.4587,4.4587,4.4587,4.4384,2.8959,2.8844,2.8852,2.7794,2.7351,2.7024,2.639,2.5745,2.5303,2.5303,2.5303,0.0,0.0,0.0,2.5341,2.5447,0.0,2.6256,2.5741,2.6777,2.7598,2.7598,2.7793,2.8262,2.9082,2.9645,3.0004,3.0147,3.071,3.1468,3.2526,3.3372,3.4237,3.5122,3.5391,3.5493,3.5493,3.5223,3.4963,3.4713,3.4357,3.4068,3.3825,3.4412,3.477,3.5064,3.6285,3.7074,3.7562,3.812,3.8505,3.8707,3.8707,3.8465,3.8099,3.7946,3.7614,3.719,3.719,3.7097,3.6921,3.6539,3.6028,3.5723,3.6282,3.6992,3.7753,3.8481,3.9225,3.9834,4.002,4.007,4.007,4.007,4.007,4.0223,4.0781,4.1068,4.1373,4.188,4.2591,4.3115,4.3115,4.3927,4.4587,4.4587,4.4587,4.4587,4.4587,4.4587,4.4587,4.4587,4.4587,4.4587,4.4587,4.4587,4.4587,4.4587,4.4587,4.4587,4.4587,4.4587,4.4587,4.4587,4.4587,4.4587,4.4587,4.4587,4.4587,4.4587,4.4587,4.4587,3.108,2.9759,2.8698,2.7044,2.6005,2.538,2.5341,2.5322,2.5303,2.5303,2.5303,2.5303,2.5303,2.5303,2.5322,2.539,2.5485,0.0,0.0,2.5703,2.5781,2.5781,2.6523,2.7383,2.8242,2.8301,2.8571,2.9286,2.9302,2.9987,3.166,3.2506,3.3333,3.4199,3.5064,3.5493,3.5493,3.5223,3.4963,3.4713,3.4357,3.4068,3.3807,3.3825,3.4266,3.499,3.5045,3.6009,3.7507,3.7544,3.7991,3.8707,3.8707,3.8707,3.8627,3.8099,3.7614,3.719,3.719,3.6882,3.6416,3.6433,3.6028,3.5622,3.5656,3.6197,3.6975,3.7736,3.8464,3.9191,3.9884,4.007,4.007,4.007,4.007,4.0087,4.0104,4.0696,4.1221,4.1238,4.183,4.2337,4.2337,4.3572,4.4587,4.4587,4.4587,4.4587,4.4587,4.4587,4.4587,4.4587,4.4587,4.4587,4.4587,4.4587,4.4587,4.4587,4.4587,4.4587,4.4587,4.4587,4.4587,4.4587,4.4587,4.4587,4.4587,4.4587,4.4587,4.4587,4.4587,4.4587,3.1815,3.1611,3.1135,2.8299,2.7758,2.7498,2.5755,2.5322,2.5303,2.5303,2.5303,2.5303,2.5303,2.5303,2.5322,2.539,2.5455,2.5525,0.0,2.5664,2.5703,2.5703,2.6465,2.7129,2.7402,2.8337,2.9031,2.928,2.9737,3.0487,3.1641,3.2468,3.3295,3.416,3.5045,3.5493,3.5493,3.5417,3.5138,3.4694,3.4591,3.4284,3.3807,3.3807,3.3954,3.4247,3.4752,3.5661,3.6743,3.7276,3.7955,3.8707,3.8707,3.8707,3.8676,3.8515,3.8117,3.7614,3.7323,3.7285,3.7268,3.6603,3.6266,3.6054,3.5694,3.6163,3.6823,3.7094,3.8041,3.9056,3.9292,3.9715,4.007,4.007,4.007,4.007,4.007,4.0273,4.046,4.046,4.1068,4.1576,4.1576,4.2405,4.3234,4.3741,4.4248,4.4587,4.4587,4.4587,4.4587,4.4587,4.4587,4.4587,4.4587,4.4587,4.4587,4.4587,4.4587,4.4587,4.4587,4.4587,4.4587,4.4587,4.4587,4.4587,4.4587,4.4587,4.4587,4.4587,4.4587,4.4587,3.2718,3.2781,3.2512,2.9669,2.9129,2.8772,2.6756,2.6024,2.5774,2.5774,2.5514,2.5505,2.614,2.5736,2.5428,2.5823,2.5659,2.5534,0.0,2.5664,2.5703,2.5703,2.6191,2.666,2.6973,2.791,2.872,2.9253,2.9746,3.0379,3.1198,3.2295,3.316,3.3718,3.4891,3.5493,3.5493,3.5493,3.5289,3.4832,3.4753,3.442,3.3935,3.3842,3.3807,3.3825,3.4357,3.5055,3.5899,3.6725,3.7533,3.8303,3.8597,3.8707,3.8707,3.8707,3.835,3.7859,3.7542,3.7542,3.7578,3.7097,3.6684,3.635,3.5985,3.6123,3.6485,3.7026,3.7669,3.8379,3.9174,3.9529,3.9749,4.002,4.007,4.007,4.007,4.007,4.007,4.007,4.046,4.0798,4.0798,4.1407,4.2252,4.3267,4.3842,4.4265,4.4536,4.4587,4.4587,4.4587,4.4587,4.4587,4.4587,4.4587,4.4587,4.4587,4.4587,4.4587,4.4587,4.4587,4.4705,4.4976,4.4722,4.4705,4.4976,4.4705,4.4587,4.4587,4.4587,4.4587]},{"header":{"parameterUnit":"m.s-1","parameterCategory":1,"la1":30.6,"la2":29.2853,"lo1":-89.7004,"lo2":-87.6739,"dy":0.0162,"dx":0.0183,"nx":112,"ny":82,"refTime":"2023-05-30T12:00:00:Z","depth":0,"parameterNumber":3,"parameterNumberName":"V-component_of_WINDS"},"data":[0.0,0.0,0.0,0.0,0.0,0.0,0.0,0.0,0.0,0.0,0.0,0.0,0.0,0.0,0.0,0.0,0.0,0.0,0.0,0.0,0.0,0.0,0.0,0.0,0.0,0.0,0.0,0.0,0.0,0.0,0.0,0.0,0.0,0.0,0.0,0.0,0.0,0.0,0.0,0.0,0.0,0.0,0.0,0.0,0.0,0.0,0.0,0.0,0.0,0.0,0.0,0.0,0.0,0.0,0.0,0.0,0.0,0.0,0.0,0.0,0.0,0.0,0.0,0.0,0.0,0.0,0.0,0.0,0.0,0.0,0.0,0.0,0.0,0.0,0.0,0.0,0.0,0.0,0.0,0.0,0.0,0.0,0.0,0.0,0.0,0.0,0.0,0.0,0.0,0.0,1.6132,1.7287,1.9936,2.1845,2.2397,2.2551,2.1115,1.7657,0.0,0.0,0.0,0.0,0.0,0.0,0.0,0.0,0.0,0.0,0.0,0.0,0.0,0.0,0.0,0.0,0.0,0.0,0.0,0.0,0.0,0.0,0.0,0.0,0.0,0.0,0.0,0.0,0.0,0.0,0.0,0.0,0.0,0.0,0.0,0.0,0.0,0.0,0.0,0.0,0.0,0.0,0.0,0.0,0.0,0.0,0.0,0.0,0.0,0.0,0.0,0.0,0.0,0.0,0.0,0.0,0.0,0.0,0.0,0.0,0.0,0.0,0.0,0.0,0.0,0.0,0.0,0.0,0.0,0.0,0.0,0.0,0.0,0.0,0.0,0.0,0.0,0.0,0.0,0.0,0.0,0.0,0.0,0.0,0.0,0.0,0.0,0.0,0.0,0.0,0.0,0.0,0.0,0.0,0.0,0.0,0.0,0.0,0.0,0.0,0.0,0.0,0.0,0.0,1.7174,2.1016,2.1882,2.241,2.2902,2.3579,2.1995,1.7362,0.0,0.0,0.0,0.0,0.0,0.0,0.0,0.0,0.0,0.0,0.0,0.0,0.0,0.0,0.0,0.0,0.0,0.0,0.0,0.0,0.0,0.0,0.0,0.0,0.0,0.0,0.0,0.0,0.0,0.0,0.0,0.0,0.0,0.0,0.0,0.0,0.0,0.0,0.0,0.0,0.0,0.0,0.0,0.0,0.0,0.0,0.0,0.0,0.0,0.0,0.0,0.0,0.0,0.0,0.0,0.0,0.0,0.0,0.0,0.0,0.0,0.0,0.0,0.0,0.0,0.0,0.0,0.0,0.0,0.0,0.0,0.0,0.0,0.0,0.0,0.0,0.0,0.0,0.0,0.0,0.0,0.0,0.0,0.0,0.0,0.0,0.0,0.0,0.0,0.0,0.0,0.0,0.0,0.0,0.0,0.0,0.0,0.0,0.0,0.0,0.0,0.0,0.0,1.6409,1.8518,2.2347,2.2761,2.2802,2.3053,2.3826,2.2432,1.8077,1.7858,0.0,0.0,0.0,0.0,0.0,0.0,0.0,0.0,0.0,0.0,0.0,0.0,0.0,0.0,0.0,0.0,0.0,0.0,0.0,0.0,0.0,0.0,0.0,0.0,0.0,0.0,0.0,0.0,0.0,0.0,0.0,0.0,0.0,0.0,0.0,0.0,0.0,0.0,0.0,0.0,0.0,0.0,0.0,0.0,0.0,0.0,0.0,0.0,0.0,0.0,0.0,0.0,0.0,0.0,0.0,0.0,0.0,0.0,0.0,0.0,0.0,0.0,0.0,0.0,0.0,0.0,0.0,0.0,0.0,0.0,0.0,0.0,0.0,0.0,0.0,0.0,0.0,0.0,0.0,0.0,0.0,0.0,0.0,0.0,0.0,0.0,0.0,0.0,0.0,0.0,0.0,0.0,0.0,0.0,0.0,0.0,0.0,0.0,0.0,0.0,0.0,0.0,1.8543,2.0338,2.2802,2.3078,2.3078,2.3078,2.3826,2.2658,1.8735,1.8948,0.0,0.0,0.0,0.0,0.0,0.0,0.0,0.0,0.0,0.0,0.0,0.0,0.0,0.0,0.0,0.0,0.0,0.0,0.0,0.0,0.0,0.0,0.0,0.0,0.0,0.0,0.0,0.0,0.0,0.0,0.0,0.0,0.0,0.0,0.0,0.0,0.0,0.0,0.0,0.0,0.0,0.0,0.0,0.0,0.0,0.0,0.0,0.0,0.0,0.0,0.0,0.0,0.0,0.0,0.0,0.0,0.0,0.0,0.0,0.0,0.0,0.0,0.0,0.0,0.0,0.0,0.0,0.0,0.0,0.0,0.0,0.0,0.0,0.0,0.0,0.0,0.0,0.0,0.0,0.0,0.0,0.0,0.0,0.0,0.0,0.0,0.0,0.0,0.0,0.0,0.0,0.0,0.0,0.0,0.0,0.0,0.0,0.0,0.0,0.0,0.0,0.0,2.0552,2.2815,2.3053,2.3078,2.3078,2.3078,2.3826,2.2658,1.8735,1.9169,0.0,0.0,0.0,0.0,0.0,0.0,0.0,0.0,0.0,0.0,0.0,0.0,0.0,0.0,0.0,0.0,0.0,0.0,0.0,0.0,0.0,0.0,0.0,0.0,0.0,0.0,0.0,0.0,0.0,0.0,0.0,0.0,0.0,0.0,0.0,0.0,0.0,0.0,0.0,0.0,0.0,0.0,0.0,0.0,0.0,0.0,0.0,0.0,0.0,0.0,0.0,0.0,0.0,0.0,0.0,0.0,0.0,0.0,0.0,0.0,0.0,0.0,0.0,0.0,0.0,0.0,0.0,0.0,0.0,0.0,0.0,0.0,0.0,0.0,0.0,0.0,0.0,0.0,0.0,0.0,0.0,0.0,0.0,0.0,0.0,0.0,0.0,0.0,0.0,0.0,0.0,0.0,0.0,0.0,0.0,0.0,0.0,0.0,0.0,0.0,0.0,0.0,2.0062,2.1995,2.2965,2.3078,2.3305,2.3826,2.4567,2.348,2.0032,0.0,0.0,0.0,0.0,0.0,0.0,0.0,0.0,0.0,0.0,0.0,0.0,0.0,0.0,0.0,0.0,0.0,0.0,0.0,0.0,0.0,0.0,0.0,0.0,0.0,0.0,0.0,0.0,0.0,0.0,0.0,0.0,0.0,0.0,0.0,0.0,0.0,0.0,0.0,0.0,0.0,0.0,0.0,0.0,0.0,0.0,0.0,0.0,0.0,0.0,0.0,0.0,0.0,0.0,0.0,0.0,0.0,0.0,0.0,0.0,0.0,0.0,0.0,0.0,0.0,0.0,0.0,0.0,0.0,0.0,0.0,0.0,0.0,0.0,0.0,0.0,0.0,0.0,0.0,0.0,0.0,0.0,0.0,0.0,0.0,0.0,0.0,0.0,0.0,0.0,0.0,0.0,0.0,0.0,0.0,0.0,0.0,0.0,0.0,0.0,0.0,0.0,1.799,2.01,2.1882,2.2952,2.3078,2.3305,2.3884,2.4394,2.3351,2.0207,0.0,0.0,0.0,0.0,0.0,0.0,0.0,0.0,0.0,0.0,0.0,0.0,0.0,0.0,0.0,0.0,0.0,0.0,0.0,0.0,0.0,0.0,0.0,0.0,0.0,0.0,0.0,0.0,0.0,0.0,0.0,0.0,0.0,0.0,0.0,0.0,0.0,0.0,0.0,0.0,0.0,0.0,0.0,0.0,0.0,0.0,0.0,0.0,0.0,0.0,0.0,0.0,0.0,0.0,0.0,0.0,0.0,0.0,0.0,0.0,0.0,0.0,0.0,0.0,0.0,0.0,0.0,0.0,0.0,0.0,0.0,0.0,0.0,0.0,0.0,0.0,0.0,0.0,0.0,0.0,0.0,0.0,0.0,0.0,0.0,0.0,0.0,0.0,0.0,0.0,0.0,0.0,0.0,0.0,0.0,0.0,0.0,0.0,0.0,0.0,0.0,0.0,1.8129,2.1091,2.3078,2.3078,2.3078,2.3138,2.3138,2.3138,2.1919,0.0,0.0,0.0,0.0,0.0,0.0,0.0,0.0,0.0,0.0,0.0,0.0,0.0,0.0,0.0,0.0,0.0,0.0,0.0,0.0,0.0,0.0,0.0,0.0,0.0,0.0,0.0,0.0,0.0,0.0,0.0,0.0,0.0,0.0,0.0,0.0,0.0,0.0,0.0,0.0,0.0,0.0,0.0,0.0,0.0,0.0,0.0,0.0,0.0,0.0,0.0,0.0,0.0,0.0,0.0,0.0,0.0,0.0,0.0,0.0,0.0,0.0,0.0,0.0,0.0,0.0,0.0,0.0,0.0,0.0,0.0,0.0,0.0,0.0,0.0,0.0,0.0,0.0,0.0,0.0,0.0,0.0,0.0,0.0,0.0,0.0,0.0,0.0,0.0,0.0,0.0,0.0,0.0,0.0,0.0,0.0,0.0,0.0,0.0,0.0,0.0,0.0,0.0,1.8179,2.1091,2.3078,2.3078,2.3078,2.3531,2.461,2.4724,2.3615,2.0996,0.0,0.0,0.0,0.0,0.0,0.0,0.0,0.0,0.0,0.0,0.0,0.0,0.0,0.0,0.0,0.0,0.0,0.0,0.0,0.0,0.0,0.0,0.0,0.0,0.0,0.0,0.0,0.0,0.0,0.0,0.0,0.0,0.0,0.0,0.0,0.0,0.0,0.0,0.0,0.0,0.0,0.0,0.0,0.0,0.0,0.0,0.0,0.0,0.0,0.0,0.0,0.0,0.0,0.0,0.0,0.0,0.0,0.0,0.0,0.0,0.0,0.0,0.0,0.0,0.0,0.0,0.0,0.0,0.0,0.0,0.0,0.0,0.0,0.0,0.0,0.0,0.0,0.0,0.0,0.0,0.0,0.0,0.0,0.0,0.0,0.0,0.0,0.0,0.0,0.0,0.0,0.0,0.0,0.0,0.0,0.0,0.0,0.0,0.0,0.0,0.0,0.0,1.8204,2.1091,2.3078,2.3078,2.3078,2.3471,2.4381,2.4496,2.3555,2.1443,0.0,0.0,0.0,0.0,0.0,0.0,0.0,0.0,0.0,0.0,0.0,0.0,0.0,0.0,0.0,0.0,0.0,0.0,0.0,0.0,0.0,0.0,0.0,0.0,0.0,0.0,0.0,0.0,0.0,0.0,0.0,0.0,0.0,0.0,0.0,0.0,0.0,0.0,0.0,0.0,0.0,0.0,0.0,0.0,0.0,0.0,0.0,0.0,0.0,0.0,0.0,0.0,0.0,0.0,0.0,0.0,0.0,0.0,0.0,0.0,0.0,0.0,0.0,0.0,0.0,0.0,0.0,0.0,0.0,0.0,0.0,0.0,0.0,0.0,0.0,0.0,0.0,0.0,0.0,0.0,0.0,0.0,0.0,0.0,0.0,0.0,0.0,0.0,0.0,0.0,0.0,0.0,0.0,0.0,0.0,0.0,0.0,0.0,0.0,0.0,0.0,0.0,1.8204,2.1091,2.3078,2.3078,2.3078,2.3138,2.3185,2.3185,2.2597,2.1074,0.0,0.0,0.0,0.0,0.0,0.0,0.0,0.0,0.0,0.0,0.0,0.0,0.0,0.0,0.0,0.0,0.0,0.0,0.0,0.0,0.0,0.0,0.0,0.0,0.0,0.0,0.0,0.0,0.0,0.0,0.0,0.0,0.0,0.0,0.0,0.0,0.0,0.0,0.0,0.0,0.0,0.0,0.0,0.0,0.0,0.0,0.0,0.0,0.0,0.0,0.0,0.0,0.0,0.0,0.0,0.0,0.0,0.0,0.0,0.0,1.231,1.1502,0.0,0.0,0.0,0.0,0.0,0.0,0.0,0.0,0.0,0.0,0.0,0.0,0.0,0.0,0.0,0.0,0.0,0.0,0.0,0.0,0.0,0.0,0.0,0.0,0.0,0.0,0.0,0.0,0.0,0.0,0.0,0.0,0.0,0.0,0.0,0.0,0.0,0.0,0.0,0.0,1.8204,2.1091,2.3078,2.3078,2.3078,2.3365,2.4002,2.406,2.375,2.2958,2.2724,0.0,0.0,0.0,0.0,0.0,0.0,0.0,0.0,0.0,0.0,0.0,0.0,0.0,0.0,0.0,0.0,0.0,0.0,0.0,0.0,0.0,0.0,0.0,0.0,0.0,0.0,0.0,0.0,0.0,0.0,0.0,0.0,0.0,0.0,0.0,0.0,0.0,0.0,0.0,0.0,0.0,0.0,0.0,0.0,0.0,0.0,0.0,0.0,0.0,0.0,0.0,0.0,0.0,0.0,0.0,0.0,0.0,0.0,0.0,1.3685,1.3231,0.0,0.0,0.0,0.0,0.0,0.0,0.0,0.0,0.0,0.0,0.0,0.0,0.0,0.0,0.0,0.0,0.0,0.0,0.0,0.0,0.0,0.0,0.0,0.0,0.0,0.0,0.0,0.0,0.0,0.0,0.0,0.0,0.0,0.0,0.0,0.0,0.0,0.0,0.0,0.0,1.8204,2.133,2.3552,2.3552,2.3791,2.4137,2.461,2.4372,2.4084,2.3886,2.3612,0.0,0.0,0.0,0.0,0.0,0.0,0.0,0.0,0.0,0.0,0.0,0.0,0.0,0.0,0.0,0.0,0.0,0.0,0.0,0.0,0.0,0.0,0.0,0.0,0.0,0.0,0.0,0.0,0.0,0.0,0.0,0.0,0.0,0.0,0.0,0.0,0.0,0.0,0.0,0.0,0.0,0.0,0.0,0.0,0.0,0.0,0.0,0.0,0.0,0.0,0.0,0.0,0.0,1.3415,1.3745,1.4333,1.4333,1.5191,1.6562,1.5008,1.5001,1.5958,1.3769,0.0,0.0,0.0,0.0,0.0,0.0,0.0,0.0,0.0,0.0,0.0,0.0,0.0,0.0,0.0,0.0,0.0,0.0,0.0,0.0,0.0,0.0,1.5853,1.6137,1.7267,1.8173,1.7721,0.0,0.0,0.0,0.0,0.0,0.0,0.0,0.0,0.0,0.0,0.0,1.8731,2.1832,2.4029,2.413,2.4556,2.4874,2.5045,2.4491,2.4349,2.4784,2.4327,2.3939,0.0,0.0,0.0,0.0,0.0,0.0,0.0,0.0,0.0,0.0,0.0,0.0,0.0,0.0,0.0,0.0,0.0,0.0,0.0,0.0,0.0,0.0,0.0,0.0,0.0,0.0,0.0,0.0,0.0,0.0,0.0,0.0,0.9452,0.9452,0.0,0.0,0.0,0.0,0.0,0.0,0.0,0.0,0.0,0.0,0.0,0.0,0.0,1.3414,1.411,1.4435,1.5331,1.677,1.7024,1.7664,1.8533,1.8533,1.863,1.8857,1.8611,0.0,1.6096,1.5753,0.0,0.0,0.0,0.0,0.0,0.0,0.0,0.0,0.0,0.0,0.0,0.0,0.0,0.0,0.0,0.0,0.0,0.0,0.0,0.0,0.0,0.0,2.0144,2.1339,2.1843,2.2293,2.3405,1.9294,1.5686,1.6777,1.7024,1.6528,0.0,0.0,0.0,0.0,0.0,0.0,2.0815,2.2774,2.418,2.4657,2.4782,2.4782,2.4835,2.4771,2.5266,2.6736,2.6748,2.6231,2.5086,2.5619,0.0,0.0,0.0,0.0,0.0,0.0,0.0,0.0,0.0,0.0,0.0,0.0,0.0,0.0,0.0,0.0,0.0,0.0,0.0,0.0,0.0,0.0,0.0,0.0,0.0,0.0,0.0,0.0,0.0,0.8704,0.9005,0.9172,0.8965,0.866,0.0,0.0,0.0,0.0,0.0,0.0,0.0,0.0,0.0,1.5771,1.572,1.6141,1.7169,1.7297,1.7708,1.8457,1.8653,1.8912,1.9287,1.9287,1.9287,1.9287,1.9287,1.875,1.7822,1.71,1.626,1.5312,0.0,0.0,0.0,0.0,1.3613,1.3848,1.5146,1.5752,1.5869,1.5312,0.0,0.0,0.0,0.0,0.0,0.0,0.0,1.6189,1.8456,2.011,2.1513,2.2829,2.3168,2.3436,2.4564,2.2246,1.9925,1.9785,1.8734,1.7347,1.5655,1.6584,0.0,0.0,0.0,2.0865,2.182,2.3678,2.4983,2.5222,2.5985,2.6479,2.6585,2.6671,2.6835,2.7161,2.7987,2.7979,2.7003,2.7062,2.552,0.0,0.0,0.0,0.0,0.0,0.0,0.0,0.0,0.0,0.0,0.0,0.0,0.0,0.0,0.0,0.0,0.0,0.0,0.0,0.0,0.0,0.0,0.0,0.0,0.0,0.0,0.0,0.0,0.8918,0.9178,0.9252,0.9385,0.9398,0.0,0.0,0.0,0.0,0.0,0.0,1.4834,1.56,1.6621,1.7832,1.7871,1.832,1.9277,1.9394,1.9443,1.9443,1.9561,1.9609,1.9609,1.9609,1.9609,1.9609,1.9609,1.9609,1.9521,1.835,1.7744,1.7412,1.6113,1.541,1.5117,1.5127,1.5264,1.5635,1.6934,1.7598,1.7812,1.749,1.6934,1.6269,1.5644,0.0,0.0,0.0,0.0,1.7958,2.0453,2.1614,2.2406,2.3724,2.4038,2.4286,2.5065,2.4239,2.3186,2.248,2.1016,1.9359,1.7677,1.8769,0.0,1.8191,2.0464,2.251,2.3075,2.4582,2.5649,2.5799,2.6771,2.7433,2.7628,2.7903,2.7948,2.769,2.8669,2.9043,2.8449,2.8139,2.7021,2.5063,0.0,0.0,0.0,0.0,0.0,0.0,0.0,0.0,0.0,0.0,0.0,0.0,0.0,0.0,0.0,0.0,0.0,0.0,0.0,0.0,0.0,0.0,0.0,0.0,0.0,0.0,0.0,0.0,0.0,1.0598,1.0962,0.0,0.0,0.0,0.0,1.3745,1.4744,1.5867,1.7187,1.7656,1.8281,1.917,1.9189,1.9228,1.9287,1.9678,1.9883,1.9883,2.0303,2.0498,2.0498,2.0498,2.0498,2.0498,2.0498,2.0498,2.043,1.9551,1.8711,1.7969,1.7881,1.709,1.6213,1.7363,1.7578,1.7432,1.8721,1.917,1.8994,1.7773,1.6514,1.5703,1.6894,1.6377,0.0,0.0,1.8701,1.9423,2.2496,2.3382,2.3737,2.5132,2.5482,2.5632,2.6251,2.4643,2.3441,2.4469,2.4556,2.3954,2.2272,0.0,2.2121,2.2033,2.2184,2.3075,2.5159,2.5523,2.5799,2.642,2.6508,2.6577,2.6552,2.7311,2.805,2.8843,2.8996,2.901,2.8961,2.8927,2.712,2.3283,2.3903,0.0,0.0,0.0,0.0,0.0,0.0,0.0,0.0,0.0,0.0,0.0,0.0,0.0,0.0,0.0,0.0,0.0,0.0,0.0,0.0,0.0,0.0,0.0,0.0,0.0,0.0,0.0,0.0,1.0672,1.1243,0.0,1.1928,1.3388,1.4698,1.5531,1.7071,1.8115,1.8584,1.875,1.9092,1.9678,1.9697,1.9824,2.0107,2.0264,2.0332,2.0332,2.0488,2.0566,2.0566,2.0566,2.0566,2.0566,2.0566,2.0566,2.0547,2.0234,1.9932,1.9619,1.9346,1.8955,1.8564,1.876,1.8906,1.9072,1.9531,1.9873,1.999,1.9248,1.8691,1.835,1.8545,1.8467,1.8735,2.0841,2.1614,2.2385,2.4784,2.5432,2.5562,2.6033,2.6151,2.6214,2.6483,2.5837,2.5398,2.5799,2.4431,2.3012,2.241,2.3489,2.4067,2.3,2.4067,2.5259,2.605,2.6151,2.6485,2.7204,2.7802,2.8363,2.8876,2.969,2.9827,2.9066,3.0011,3.0133,2.9066,2.9566,2.8898,2.6934,2.7216,2.5074,0.0,0.0,0.0,0.0,0.0,0.0,0.0,0.0,0.0,0.0,0.0,0.0,0.0,0.0,0.0,0.0,0.0,0.0,0.0,0.0,0.0,0.0,0.0,0.0,0.0,1.0608,1.1142,1.0755,1.1663,1.2564,1.3225,1.4739,1.6137,1.7373,1.8701,1.9502,1.9502,1.9639,1.9844,2.0127,2.0137,2.0273,2.0566,2.0566,2.0644,2.0791,2.0791,2.0869,2.1016,2.1016,2.1016,2.1016,2.1016,2.1016,2.1016,2.1016,2.1016,2.0957,2.0361,2.0137,2.0098,1.9824,1.9893,2.0137,2.0137,2.0322,2.0518,2.0225,2.0137,2.0078,1.9805,1.9912,2.0496,2.2101,2.305,2.3891,2.5581,2.6245,2.6533,2.6533,2.6533,2.6533,2.6533,2.6533,2.6533,2.6533,2.4971,2.3715,2.3715,2.4921,2.5259,2.3353,2.5034,2.6189,2.5435,2.5988,2.6714,2.7229,2.8051,2.8812,2.938,2.9609,2.9653,2.9448,2.933,2.9361,2.9414,2.8792,2.8213,2.7707,2.7707,2.5821,2.1966,0.0,0.0,0.0,0.0,0.0,0.0,0.0,0.0,0.0,0.0,0.0,0.0,0.0,0.0,0.0,0.0,0.0,0.0,0.0,0.0,0.0,0.0,0.0,1.0681,1.1349,1.169,1.1129,1.2345,1.3824,1.5279,1.5996,1.7177,1.917,1.9707,1.9932,1.9932,2.0332,2.0566,2.0566,2.0576,2.0586,2.0586,2.0596,2.082,2.125,2.125,2.1475,2.1885,2.1885,2.1885,2.1885,2.1885,2.1885,2.1885,2.1885,2.1885,2.1797,2.0928,2.0586,2.0586,2.0566,2.0566,2.0566,2.0566,2.0566,2.0566,2.0566,2.0566,2.0566,2.0566,2.0566,2.0789,2.1735,2.2776,2.3745,2.4791,2.5734,2.6533,2.6533,2.6533,2.6533,2.6533,2.6533,2.6533,2.6533,2.6533,2.6533,2.6533,2.6533,2.5724,2.3565,2.5084,0.0,2.3514,2.5187,2.6496,2.6514,2.7206,2.7723,2.7723,2.6912,2.7521,3.011,2.7069,2.6761,3.0168,2.6897,2.5096,2.5356,2.5243,2.4997,2.4526,0.0,0.0,0.0,0.0,0.0,0.0,0.0,0.0,0.0,0.0,0.0,0.0,0.0,0.0,0.0,0.0,0.0,0.0,0.0,0.0,0.0,1.1256,1.169,1.153,1.2157,1.2525,1.2592,1.3832,1.5166,1.6352,1.7536,1.8779,2.0129,2.0322,2.0391,2.0391,2.0498,2.0566,2.0566,2.0879,2.1055,2.1055,2.1367,2.1582,2.1709,2.1709,2.1768,2.1885,2.1885,2.1885,2.1885,2.1885,2.1885,2.1885,2.1885,2.1885,2.1826,2.1269,2.1055,2.1016,2.0684,2.0566,2.0566,2.0566,2.0566,2.0566,2.0566,2.0566,2.0566,2.0566,2.0566,2.0934,2.2627,2.3294,2.3879,2.5652,2.6314,2.6533,2.6533,2.6533,2.6533,2.6533,2.6533,2.6533,2.6533,2.6533,2.6533,2.6533,2.6533,2.6319,2.5636,2.6063,2.6498,2.6427,2.696,2.7313,2.7092,2.7293,2.7668,2.828,2.8111,2.8649,3.0199,2.9915,2.9901,3.03,2.933,2.8806,2.8926,2.6457,2.5723,0.0,0.0,0.0,0.0,0.0,0.0,0.0,0.0,0.0,0.0,0.0,0.0,0.0,0.0,0.0,0.0,0.0,0.0,0.0,0.0,0.0,0.0,1.1964,1.2472,1.2599,1.2906,1.3193,1.3367,1.4204,1.5427,1.6932,1.7772,1.8957,2.0479,2.0566,2.0566,2.0566,2.0742,2.084,2.084,2.1279,2.1504,2.1504,2.1758,2.1973,2.2148,2.2148,2.2236,2.2412,2.2412,2.2412,2.2412,2.2412,2.2412,2.2412,2.2412,2.2412,2.2353,0.0,0.0,0.0,0.0,2.1113,2.1113,2.1113,2.1113,2.1113,2.1113,2.1113,2.1113,2.1113,2.1491,2.2012,2.3144,2.4119,2.5098,2.6226,2.6834,2.7155,2.7155,2.7155,2.7155,2.7155,2.7155,2.7155,2.7155,2.7155,0.0,2.7155,2.6766,2.6219,2.5209,2.5862,2.6316,2.5858,2.6634,2.7275,2.7451,2.7816,2.8368,2.9222,2.8643,0.0,0.0,0.0,2.9214,2.9045,2.9204,0.0,0.0,0.0,2.6748,2.8704,2.7224,0.0,0.0,2.5214,2.4956,0.0,0.0,0.0,0.0,0.0,0.0,0.0,0.0,0.0,0.0,0.0,0.0,0.0,0.0,0.0,0.0,1.2699,1.336,1.3654,1.3694,1.3694,1.3694,1.4005,1.5068,1.709,1.7423,1.839,2.0401,2.0566,2.0586,2.0635,2.1016,0.0,0.0,0.0,2.1953,2.1953,2.2002,2.2217,2.2578,2.2578,2.2783,2.3135,2.3135,2.3135,2.3135,2.3135,2.3135,2.3135,2.3135,2.3135,2.3057,2.2266,2.1924,2.1885,2.1885,2.1885,2.1885,2.1885,0.0,0.0,2.1885,2.1885,2.1885,2.204,2.2737,2.3572,2.3801,2.5204,2.6602,2.6752,2.7397,2.8109,2.8109,2.8109,2.8109,2.8109,2.8109,2.8109,2.8109,2.8109,2.8109,2.8109,2.7243,2.5887,2.3904,2.53,2.5937,2.3986,2.56,2.7152,2.7719,2.851,0.0,3.0012,2.8636,2.8786,3.1317,2.8612,2.7129,2.7761,2.7874,2.8232,2.8921,2.7497,2.7963,3.045,3.045,3.045,3.0348,2.5966,2.5238,0.0,0.0,0.0,0.0,0.0,0.0,0.0,0.0,0.0,0.0,0.0,0.0,0.0,0.0,0.0,1.2593,1.3126,1.3661,1.3961,1.4001,1.4001,1.4001,1.4859,1.5869,1.718,1.8149,1.9195,2.0489,2.0566,2.0723,2.1084,2.1191,2.1396,2.1748,2.2168,2.2393,2.2393,2.2734,2.2939,2.3018,2.3018,0.0,2.3135,2.3135,2.3135,2.3135,2.3135,2.3135,2.3135,2.3135,2.3135,2.3086,2.2588,2.2187,2.1885,2.1885,2.1885,2.1885,2.1885,2.1885,2.1885,2.1885,2.1885,2.204,2.296,2.3343,0.0,2.5512,2.6288,2.6764,2.7619,2.795,2.8109,2.8109,2.8109,2.8109,2.8109,2.8109,2.8109,2.8109,2.8109,2.8109,2.8109,2.7557,2.6979,2.654,2.704,2.7578,2.7854,2.8837,2.9245,2.8516,2.8576,2.8754,2.8931,2.8591,2.9295,3.1347,3.086,3.058,3.0698,2.9468,2.9468,3.0899,2.9334,2.9397,3.1278,3.1278,3.1278,3.1263,3.0309,3.0101,0.0,0.0,0.0,0.0,0.0,0.0,0.0,0.0,0.0,0.0,0.0,1.1303,1.159,0.0,1.2672,1.312,1.3574,1.3915,1.4068,1.4088,1.4088,1.4088,1.5061,1.6108,1.718,1.831,1.9441,2.0489,2.0771,2.0996,2.1221,2.1641,2.1973,2.2197,2.2607,2.2822,2.2822,2.3037,2.3135,2.3135,2.3135,2.3135,2.3135,2.3135,2.3135,2.3135,2.3135,2.3135,2.3135,2.3135,2.3135,2.3115,2.291,2.2705,2.251,2.251,2.251,2.251,2.251,2.251,2.251,2.251,2.251,2.2595,2.3146,2.4115,2.5249,2.6279,2.7335,2.8295,2.8787,2.895,2.895,2.895,2.895,2.895,2.895,2.895,2.895,2.895,2.895,2.895,2.895,2.8473,2.8009,2.7733,2.7627,2.7767,2.865,2.8926,2.9091,2.9446,2.9457,2.9584,3.0018,3.0073,3.0492,3.1422,3.1482,3.1482,3.1482,3.0703,3.0644,3.1467,3.0269,3.0269,3.1482,3.1087,3.1087,3.1482,3.1482,3.1482,0.0,0.0,0.0,0.0,0.0,0.0,0.0,1.0287,1.0708,1.1303,1.1657,1.2004,1.2472,1.2806,1.3166,1.3647,1.3928,1.4088,1.4088,1.4088,1.4166,1.4412,1.5137,1.6108,1.718,1.831,1.9478,2.0605,2.1025,2.1309,2.1475,2.2139,2.2549,2.2627,2.2959,2.3135,2.3135,2.3135,2.3135,2.3135,2.3135,2.3135,2.3135,2.3135,2.3135,2.3135,2.3135,2.3135,2.3135,2.3135,2.3135,2.3135,2.3135,2.3135,2.3135,2.3135,2.3135,2.3135,2.3135,2.3135,2.3135,2.3135,2.3135,2.3135,2.3387,2.4723,2.6224,2.6719,2.8119,2.9534,2.9714,2.9792,2.9792,2.9792,2.9792,2.9792,2.9792,2.9792,2.9792,2.9792,2.9792,2.9792,2.9792,2.9402,2.8913,2.8348,2.7927,2.7921,2.8431,2.8425,2.8871,3.0147,3.045,3.0777,3.1409,3.1482,3.1482,3.1482,3.1482,3.1482,3.1482,3.1351,3.1351,3.1482,3.0703,3.0703,3.1482,3.0837,3.0896,3.1482,3.1482,3.1482,0.8711,0.8798,0.9466,1.018,1.0581,1.1142,0.0,1.2398,1.2231,1.2839,1.3193,1.3333,1.348,1.3734,1.3961,1.4028,1.4068,1.4088,1.4088,1.4088,1.4489,1.5379,1.5621,1.6108,1.718,1.831,1.9598,2.1043,2.1201,2.1562,2.2324,2.2461,2.2685,2.3057,2.3115,2.3135,2.3135,2.3135,2.3135,2.3135,2.3135,2.3135,2.3135,2.3135,2.3135,2.3135,2.3135,2.3135,2.3135,2.3135,2.3135,2.3135,2.3135,2.3135,2.3135,2.3135,2.3135,2.3135,2.3135,2.3135,2.3135,2.3135,2.3135,2.3309,2.4296,2.4787,2.5368,2.7348,2.8096,2.8518,2.9534,2.9792,2.9792,2.9792,2.9792,2.9792,2.9792,2.9792,2.9792,2.9792,2.9792,2.9792,2.9792,2.9741,2.9503,2.8925,2.898,2.9022,2.8552,2.9817,3.0625,3.0326,3.097,3.1409,3.1482,3.1482,3.1482,3.1482,3.1482,3.1482,3.1482,3.0837,3.0777,3.1482,3.0703,3.0703,3.1482,3.1409,3.1409,3.1482,3.1482,3.1482,0.9531,0.9765,1.0302,1.0453,1.1114,1.1917,1.2545,1.2619,1.2732,1.334,1.3701,1.3901,1.3901,1.4001,1.4088,1.4088,1.4088,1.4088,1.4088,1.4088,1.425,1.4734,1.5869,1.709,1.8149,1.9274,2.027,2.1121,2.1475,2.1875,2.248,2.2744,2.2959,2.3135,2.3135,2.3135,2.3135,2.3135,2.3135,2.3135,2.3135,2.3135,2.3135,2.3135,2.3135,2.3135,2.3135,2.3135,2.3135,2.3135,2.3135,2.3135,2.3135,2.3135,2.3135,2.3135,2.3135,2.3135,2.3135,2.3135,2.3135,2.3135,2.3135,2.3222,2.3637,2.4296,2.5126,2.6707,2.7602,2.8347,2.9534,2.9792,2.9792,2.9792,2.9792,2.9792,2.9792,2.9792,2.9792,2.9792,2.9792,2.9792,2.9792,2.9792,2.9922,3.0222,2.9558,2.9181,2.9482,2.9833,3.0256,3.0688,3.119,3.1482,3.1482,3.1482,3.1482,3.1482,3.1482,3.1482,3.1482,3.1161,3.1161,3.1482,3.1161,3.1161,3.1482,3.1482,3.1482,3.1482,3.1482,3.1676,0.961,1.0013,1.0558,1.0527,1.1396,1.2298,1.2696,1.2959,1.324,1.3674,1.3935,1.4088,1.4088,1.4088,1.4088,1.4088,1.4088,1.4088,1.4088,1.4088,1.4334,1.4901,1.6124,1.7577,1.9274,2.0157,2.0801,2.1367,2.1709,2.2119,2.2656,2.2969,2.3135,2.3135,2.3135,2.3135,2.3135,2.3135,2.3135,2.3135,2.3135,2.3135,2.3135,2.3135,2.3135,2.3135,2.3135,2.3135,2.3135,2.3135,2.3135,2.3135,2.3135,2.3135,2.3135,2.3135,2.3135,2.3135,2.3135,2.3135,2.3135,2.3135,2.3135,2.3135,2.3135,2.3714,2.4542,2.5724,2.6789,2.7936,2.9028,2.9534,2.9792,2.9792,2.9792,2.9792,2.9792,2.9792,2.9792,2.9792,2.9792,2.9792,2.9792,2.9792,2.9998,3.0696,3.0046,2.9725,3.0217,2.9949,3.0228,3.1339,3.1634,3.1676,3.1497,3.1482,3.1482,3.1482,3.1482,3.1482,3.1482,3.1482,3.1482,3.1482,3.1482,3.1482,3.1482,3.1482,3.1482,3.1482,3.1719,3.2063,0.8523,0.8882,0.9616,1.0674,1.1455,1.2312,1.3703,1.4041,1.4055,1.4068,1.4082,1.4088,1.4088,1.4088,1.4088,1.4088,1.4088,1.4088,1.4088,1.4088,1.4901,1.6935,1.6355,1.6993,2.0235,2.0566,2.0928,2.1797,2.1875,2.2246,2.3076,2.3135,2.3135,2.3135,2.3135,2.3135,2.3135,2.3135,2.3135,2.3135,2.3135,2.3135,2.3135,2.3135,2.3135,2.3135,2.3135,2.3135,2.3135,2.3135,2.3135,2.3135,2.3135,2.3135,2.3135,2.3135,2.3135,2.3135,2.3135,2.3135,2.3135,2.3135,2.3135,2.3135,2.3135,2.3135,2.3387,2.4542,2.563,2.6801,2.7844,2.8937,2.9792,2.9792,2.9792,2.9792,2.9792,2.9792,2.9792,2.9792,2.9792,2.9792,2.9792,2.9792,2.9792,2.9869,3.0607,3.0956,3.0428,3.058,3.1171,3.2332,3.2437,3.2228,3.1584,3.1482,3.1482,3.1482,3.1482,3.1482,3.1482,3.1482,3.1482,3.1482,3.1482,3.1482,3.1482,3.1482,3.1482,3.1497,3.2183,3.2497,0.806,0.8609,0.9544,1.0386,1.136,1.2481,1.3802,1.4088,1.4088,1.4088,1.3614,1.3279,1.3279,1.3279,1.3279,1.3279,1.3701,1.4088,1.4088,1.4088,1.4328,1.5068,1.5462,1.6101,1.7236,1.87,2.0193,2.1816,2.1885,2.2246,2.3096,2.3135,2.3135,2.3135,2.3135,2.3135,2.3135,2.3135,2.3135,2.3135,2.3135,2.3135,2.3135,2.3135,2.3135,2.3135,2.3135,2.3135,2.3135,2.3135,2.3135,2.3135,2.3135,2.3135,2.3135,2.3135,2.3135,2.3135,2.3135,2.3135,2.3184,2.3477,2.3574,2.3623,2.3896,2.3984,2.4156,2.5378,2.6498,2.7612,2.8375,2.9475,3.0244,2.988,2.9792,2.9792,2.9792,2.9792,2.9792,2.9792,2.9792,2.9792,2.9792,2.9792,3.0216,3.1476,3.1402,3.1396,3.1775,3.2137,3.2439,3.2853,3.304,3.308,3.2856,3.2437,3.2183,3.2183,3.1779,3.1482,3.1482,3.1482,3.1482,3.1482,3.1482,3.1482,3.1482,3.1973,3.2183,3.2198,3.2856,3.3395,0.7789,0.8134,0.8946,1.0178,1.1096,1.2163,1.3737,1.4088,1.4088,1.4088,1.3373,1.2822,1.2822,1.2822,1.2721,1.2325,1.3026,1.3607,1.3607,1.3607,1.3885,1.4615,1.4977,1.5665,1.7014,1.8014,1.9362,2.1125,2.1762,2.2412,2.3105,2.3135,2.3135,2.3135,2.3135,2.3135,2.3135,2.3135,2.3135,2.3135,2.3135,2.3135,2.3135,2.3135,2.3135,2.3135,2.3135,2.3135,2.3135,2.3135,2.3135,2.3135,2.3135,2.3135,2.3135,2.3135,2.3242,2.3369,2.3369,2.3369,2.3437,2.3877,2.4014,2.4062,2.4336,2.4414,2.4598,2.531,2.663,2.8023,2.8387,2.9685,3.0796,3.0444,3.0369,3.0319,3.0131,3.0093,3.003,2.9829,2.9792,2.9792,2.9792,2.9792,3.0355,3.1888,3.1888,3.2177,3.3463,3.3479,3.3431,3.3558,3.3769,3.3754,3.3514,3.311,3.2871,3.2871,3.2467,3.2228,3.2228,3.2228,3.2228,3.2228,3.2228,3.2228,3.2243,3.2662,3.2871,3.2886,3.3544,3.4068,0.7757,0.7593,0.8052,1.0113,1.0611,1.1214,1.3561,1.4088,1.4082,1.4048,1.3313,1.2748,1.2735,1.2748,1.2412,1.1583,1.2218,1.2889,1.2889,1.2889,1.3583,1.5427,1.4748,1.5449,1.9006,1.8579,1.8667,2.0036,2.157,2.2695,2.3115,2.3135,2.3135,2.3135,2.3135,2.3135,2.3135,2.3135,2.3135,2.3135,2.3135,2.3135,2.3135,2.3135,2.3135,2.3135,2.3135,2.3135,2.3135,2.3135,2.3135,2.3135,2.3135,2.3135,2.3135,2.3164,2.3437,2.3799,2.3838,2.3838,2.3896,2.4316,2.4453,2.4453,2.4482,2.4482,2.4482,2.4482,2.6166,2.7908,2.7973,2.9604,3.1342,3.1399,3.1386,3.1248,3.0758,3.0658,3.0507,2.998,2.9854,2.9829,2.9829,2.9817,3.0139,3.1044,3.196,3.3255,3.5133,3.4624,3.4228,3.4528,3.4532,3.4277,3.3649,3.3559,3.3544,3.3544,3.3514,3.3499,3.3499,3.3499,3.3499,3.3499,3.3499,3.3499,3.3499,3.3529,3.3544,3.3559,3.4218,3.4532,0.7655,0.745,0.7763,1.0053,1.0611,1.1214,1.3561,1.4088,1.3961,1.3527,1.2545,1.1697,1.1476,1.1617,1.1757,1.1757,1.2879,1.3748,1.3748,1.3748,1.3993,1.4468,1.444,1.4774,1.5684,1.7589,1.8983,1.9338,2.1293,2.2695,2.3115,2.3135,2.3135,2.3135,2.3135,2.3135,2.3135,2.3135,2.3135,2.3135,2.3135,2.3135,2.3135,2.3135,2.3135,2.3135,2.3135,2.3135,2.3135,2.3135,2.3135,2.3135,2.3135,2.3135,2.3184,2.3506,2.3691,2.3887,2.4521,2.4531,2.4326,2.4756,2.4902,2.4961,2.5303,2.54,2.54,2.54,2.6492,2.7785,2.831,2.9532,3.0761,3.131,3.1386,3.1348,3.1223,3.1198,3.1148,3.1009,3.067,3.0407,3.0407,3.0068,3.0139,3.1044,3.1389,3.2249,3.4109,3.4839,3.5139,3.5265,3.525,3.5175,3.5011,3.4517,3.4233,3.4233,3.3769,3.3499,3.3499,3.3499,3.3499,3.3499,3.3499,3.3499,3.3499,3.3978,3.4233,3.4247,3.4921,3.525,0.7447,0.7204,0.7577,0.9401,0.9836,1.0368,1.2328,1.2751,1.276,1.2662,1.1677,1.0882,1.0975,1.1229,1.1396,1.1309,1.2538,1.35,1.35,1.35,1.3647,1.4041,1.4342,1.4737,1.5458,1.7666,1.9381,1.9987,2.1705,2.2891,2.3125,2.3135,2.3135,2.3135,2.3135,2.3135,2.3135,2.3135,2.3135,2.3135,2.3135,2.3135,2.3135,2.3135,2.3135,2.3135,2.3135,2.3135,2.3135,2.3135,2.3135,2.3135,2.3135,2.3262,2.3457,2.3701,2.4023,2.4414,2.4902,2.5039,2.5039,2.5283,2.5361,2.541,2.5664,2.5742,2.5742,2.5742,2.6668,2.7798,2.8707,2.9889,3.0973,3.1925,3.2127,3.2064,3.18,3.175,3.1675,3.1436,3.116,3.0947,3.0947,3.0507,3.0287,3.0855,3.1065,3.1742,3.3171,3.4259,3.4839,3.4839,3.5213,3.5504,3.5504,3.516,3.4921,3.4921,3.4577,3.4382,3.4382,3.4382,3.4382,3.4382,3.4382,3.4382,3.4382,3.4756,3.4921,3.4936,3.5325,3.5504,0.7205,0.7139,0.7404,0.8627,0.889,0.9253,1.0565,1.0944,1.1082,1.1475,1.079,1.0261,1.0728,1.1089,1.1182,1.086,1.1968,1.2916,1.299,1.3003,1.3213,1.3995,1.4376,1.5101,1.6389,1.8169,1.9694,2.0998,2.2315,2.3135,2.3135,2.3135,2.3135,2.3135,2.3135,2.3135,2.3135,2.3135,2.3135,2.3135,2.3135,2.3135,2.3135,2.3135,2.3135,2.3135,2.3135,2.3135,2.3135,2.3135,2.3135,2.3144,2.3203,2.3457,2.3799,2.3916,2.4434,2.5078,2.5137,2.541,2.5742,2.5742,2.5742,2.5742,2.5742,2.5742,2.5742,2.5742,2.6668,2.7861,2.905,3.0316,3.15,3.2797,3.3081,3.2943,3.2441,3.2328,3.219,3.1712,3.1549,3.1499,3.1499,3.106,3.0721,3.0721,3.0958,3.1434,3.2228,3.3297,3.4027,3.4177,3.4986,3.5504,3.5504,3.5504,3.5504,3.5504,3.5504,3.5504,3.5504,3.5504,3.5504,3.5504,3.5504,3.5504,3.5504,3.5504,3.5504,3.5504,3.5504,3.5504,0.7119,0.7139,0.7404,0.8627,0.889,0.9081,0.9925,1.0551,1.0773,1.0104,0.9982,1.0074,0.994,1.0347,1.0915,1.1543,1.2478,1.33,1.3788,1.3854,1.3915,1.4068,1.4563,1.4993,1.5308,1.7771,1.9521,1.9753,2.1854,2.3135,2.3135,2.3135,2.3135,2.3135,2.3135,2.3135,2.3135,2.3135,2.3135,2.3135,2.3135,2.3135,2.3135,2.3135,2.3135,2.3135,2.3135,2.3135,2.3135,2.3135,2.3135,2.3174,2.3535,2.3721,2.3877,2.459,2.4941,2.5127,2.5488,2.5674,2.5742,2.5742,2.5742,2.5742,2.5742,2.5742,2.5742,2.5742,2.6668,2.7861,2.905,3.0316,3.15,3.2797,3.3081,3.3056,3.2955,3.293,3.2905,3.2805,3.2403,3.2077,3.2077,3.1625,3.1248,3.1248,3.0956,3.076,3.0904,3.2708,3.4312,3.5133,3.5424,3.5504,3.5504,3.5504,3.5504,3.5504,3.5504,3.5504,3.5504,3.5504,3.5504,3.5504,3.5504,3.5504,3.5504,3.5504,3.5504,3.5504,3.5504,3.5504,0.7139,0.7139,0.7228,0.7841,0.7929,0.8006,0.8394,0.8656,0.8883,0.8897,0.8899,0.9017,0.9595,1.0033,1.0514,1.1162,1.2191,1.3066,1.3353,1.3794,1.4088,1.4088,1.4469,1.4796,1.495,1.7573,1.938,1.948,2.1765,2.3135,2.3135,2.3135,2.3135,2.3135,2.3135,2.3135,2.3135,2.3135,2.3135,2.3135,2.3135,2.3135,2.3135,2.3135,2.3135,2.3135,2.3135,2.3135,2.3135,2.3135,2.3271,2.3496,2.3711,2.4062,2.4502,2.4922,2.5215,2.5449,2.5664,2.5742,2.5742,2.5742,2.5742,2.5742,2.5742,2.5742,2.5742,2.5742,2.6668,2.7861,2.905,3.0316,3.15,3.2797,3.3081,3.3081,3.3081,3.3081,3.3081,3.3081,3.2855,3.2667,3.2667,3.219,3.1813,3.1813,3.1361,3.1158,3.169,3.3207,3.4172,3.3977,3.4409,3.492,3.5439,3.5504,3.5504,3.5504,3.5504,3.5504,3.5504,3.5504,3.5504,3.5504,3.5504,3.5504,3.5504,3.5504,3.5504,3.5504,3.5504,3.5504,0.7122,0.7139,0.7139,0.7139,0.7115,0.6991,0.6866,0.6889,0.7078,0.7701,0.7639,0.7847,0.906,0.9493,0.9866,1.0408,1.1552,1.2466,1.2782,1.3353,1.3868,1.4068,1.4342,1.4636,1.4937,1.7257,1.893,1.9464,2.1765,2.3135,2.3135,2.3135,2.3135,2.3135,2.3135,2.3135,2.3135,2.3135,2.3135,2.3135,2.3135,2.3135,2.3135,2.3135,2.3135,2.3135,2.3135,2.3135,2.3135,2.3135,2.3398,2.3799,2.3887,2.4394,2.5078,2.5176,2.5439,2.5742,2.5742,2.5742,2.5742,2.5742,2.5742,2.5742,2.5742,2.5742,2.5742,2.5742,2.6849,2.8226,2.9131,3.0496,3.1865,3.2884,3.3081,3.3081,3.3081,3.3081,3.3081,3.3081,3.3081,3.3081,3.3081,3.2704,3.239,3.239,3.1913,3.1876,3.2551,3.3274,3.3444,3.2727,3.3802,3.4689,3.5148,3.5359,3.5504,3.5504,3.5504,3.5504,3.5504,3.5504,3.5504,3.5504,3.5504,3.5504,3.5504,3.5504,3.5504,3.5504,3.5504,3.5504,0.7068,0.7139,0.7139,0.7139,0.7044,0.6787,0.6246,0.6448,0.656,0.6125,0.6416,0.6928,0.7728,0.8171,0.8749,0.9946,1.0494,1.1296,1.2634,1.2896,1.3173,1.3988,1.4342,1.4636,1.4937,1.6451,1.7931,1.9372,2.1765,2.3135,2.3135,2.3135,2.3135,2.3135,2.3135,2.3135,2.3135,2.3135,2.3135,2.3135,2.3135,2.3135,2.3135,2.3135,2.3135,2.3135,2.3135,2.3135,2.3135,2.3135,2.3398,2.3828,2.4209,2.4648,2.5117,2.5527,2.5703,2.5742,2.5742,2.5742,2.5742,2.5742,2.5742,2.5742,2.5742,2.5742,2.5742,2.5742,2.7389,2.9223,2.9407,3.1146,3.2982,3.3068,3.3081,3.3081,3.3081,3.3081,3.3081,3.3081,3.3081,3.3081,3.3081,3.3031,3.3006,3.3006,3.2503,3.2139,3.221,3.1934,3.1957,3.2672,3.4882,3.5703,3.4288,3.4986,3.5504,3.5504,3.5504,3.5504,3.5504,3.5504,3.5504,3.5504,3.5504,3.5504,3.5504,3.5504,3.5504,3.5504,3.5504,3.5504,0.6956,0.7014,0.7014,0.7014,0.6831,0.6542,0.6125,0.5941,0.5917,0.5928,0.5927,0.6308,0.7503,0.7805,0.8221,0.9174,0.9873,1.0494,1.1082,1.2078,1.2956,1.3319,1.3861,1.4442,1.4917,1.6891,1.9037,2.1453,2.2589,2.3135,2.3135,2.3135,2.3135,2.3135,2.3135,2.3135,2.3135,2.3135,2.3135,2.3135,2.3135,2.3135,2.3135,2.3135,2.3135,2.3135,2.3135,2.3135,2.3135,2.3135,2.3545,2.418,2.4355,2.4853,2.5488,2.5674,2.5742,2.5742,2.5742,2.5742,2.5742,2.5742,2.5742,2.5742,2.5742,2.5742,2.5742,2.5742,2.7484,2.9407,2.9407,3.1235,3.3081,3.3081,3.3081,3.3081,3.3081,3.3081,3.3081,3.3081,3.3081,3.3081,3.3081,3.3081,3.3081,3.3081,3.288,3.2729,3.2729,3.3091,3.3127,3.2547,3.3517,3.4269,3.4178,3.5123,3.5726,3.5726,3.5948,3.6088,3.6088,3.5714,3.5504,3.5504,3.5504,3.5504,3.5504,3.5504,3.5504,3.5504,3.5504,3.5504,0.6739,0.6827,0.6861,0.6861,0.6634,0.6342,0.6088,0.5647,0.5349,0.5636,0.5412,0.5601,0.6848,0.7235,0.7616,0.8374,0.9157,0.982,1.008,1.1189,1.2064,1.2325,1.2913,1.3601,1.4369,1.707,1.98,2.2347,2.2862,2.3135,2.3135,2.3135,2.3135,2.3135,2.3135,2.3135,2.3135,2.3135,2.3135,2.3135,2.3135,2.3135,2.3135,2.3135,2.3135,2.3135,2.3135,2.3135,2.3135,2.3135,2.3643,2.4414,2.4414,2.4951,2.5742,2.5742,2.5742,2.5742,2.5742,2.5742,2.5742,2.5742,2.5742,2.5742,2.5742,2.5742,2.5742,2.5742,2.7484,2.9498,2.9863,3.1512,3.3081,3.3081,3.3081,3.3081,3.3081,3.3081,3.3081,3.3081,3.3081,3.3081,3.3081,3.3081,3.3081,3.3081,3.3081,3.3081,3.3081,3.3797,3.3785,3.2588,3.2739,3.3132,3.3788,3.4817,3.5421,3.5421,3.5977,3.6325,3.6325,3.6164,3.5983,3.5804,3.5804,3.5699,3.5504,3.5504,3.5504,3.5504,3.5504,3.5609,0.6396,0.6586,0.6702,0.6702,0.6481,0.622,0.6064,0.5566,0.5091,0.4948,0.4674,0.4732,0.5378,0.6091,0.6858,0.7616,0.8328,0.9125,0.9993,1.0134,1.0468,1.1336,1.145,1.1924,1.3113,1.6815,1.9724,2.1176,2.2403,2.3135,2.3135,2.3135,2.3135,2.3135,2.3135,2.3135,2.3135,2.3135,2.3135,2.3135,2.3135,2.3135,2.3135,2.3135,2.3135,2.3135,2.3135,2.3135,2.3135,2.3135,2.3643,2.4414,2.4414,2.4951,2.5742,2.5742,2.5742,2.5742,2.5742,2.5742,2.5742,2.5742,2.5742,2.5742,2.5742,2.5742,2.5742,2.5742,2.7484,2.9681,3.0855,3.2152,3.3081,3.3081,3.3081,3.3081,3.3081,3.3081,3.3081,3.3081,3.3081,3.3081,3.3081,3.3081,3.3081,3.3081,3.3081,3.3081,3.3081,3.3081,3.3068,3.3068,3.3056,3.3,3.2843,3.3747,3.4293,3.4293,3.5348,3.587,3.587,3.6891,3.7105,3.6492,3.6477,3.6148,3.5504,3.5504,3.5504,3.5504,3.5504,3.5848,0.6039,0.6203,0.624,0.624,0.602,0.5789,0.5739,0.5345,0.4972,0.4928,0.4674,0.468,0.5378,0.5706,0.6253,0.7503,0.7889,0.8302,0.9123,1.0254,1.1116,1.1396,1.2679,1.4084,1.5503,1.7787,1.9724,2.1176,2.2403,2.3135,2.3135,2.3135,2.3135,2.3135,2.3135,2.3135,2.3135,2.3135,2.3135,2.3135,2.3135,2.3135,2.3135,2.3135,2.3135,2.3135,2.3135,2.3135,2.3135,2.3135,2.3643,2.4414,2.4414,2.4951,2.5742,2.5742,2.5742,2.5742,2.5742,2.5742,2.5742,2.5742,2.5742,2.5742,2.5742,2.5742,2.5927,2.6754,2.8132,2.9681,3.0855,3.2152,3.3081,3.3081,3.3081,3.3081,3.3081,3.3081,3.3081,3.3081,3.3081,3.3081,3.3081,3.3081,3.3081,3.3081,3.3081,3.3081,3.3081,3.3081,3.3081,3.3081,3.3081,3.3089,3.3046,3.396,3.4594,3.4594,3.5146,3.5521,3.5521,3.61,3.6297,3.6108,3.6348,3.6387,3.6178,3.5729,3.5504,3.5504,3.5504,3.5863,0.5686,0.5835,0.5875,0.5945,0.5766,0.5589,0.5589,0.5243,0.4918,0.4918,0.4674,0.4625,0.5058,0.5324,0.5814,0.674,0.7337,0.7985,0.8738,1.005,1.1056,1.1383,1.2859,1.4448,1.5989,1.7431,1.9071,2.0961,2.1947,2.2589,2.3047,2.3135,2.3135,2.3135,2.3135,2.3135,2.3135,2.3135,2.3135,2.3135,2.3135,2.3135,2.3135,2.3135,2.3135,2.3135,2.3135,2.3135,0.0,2.3135,2.3643,2.4414,2.4414,2.4951,2.5742,2.5742,2.5742,2.5742,2.5742,2.5742,2.5742,2.5742,2.5742,2.5742,2.5742,2.5742,2.583,2.6658,2.8132,2.959,3.0316,3.1777,3.3081,3.3081,3.3081,3.3081,3.3081,3.3081,3.3081,3.3081,3.3081,3.3081,3.3081,3.3081,3.3081,3.3081,3.3081,3.3081,3.3081,3.3081,3.3081,3.3081,3.3081,3.3081,3.3081,3.3713,3.4108,3.4108,3.4714,3.5072,3.5072,3.6104,3.6474,3.6215,3.6876,3.6971,3.6492,3.5833,3.5504,3.5504,3.5759,3.6222,0.0,0.5463,0.5711,0.5772,0.5671,0.5569,0.5559,0.5226,0.0,0.4904,0.4667,0.4519,0.4519,0.5003,0.5487,0.5542,0.674,0.7987,0.8944,0.9784,1.0601,1.1423,1.2298,1.3383,1.4772,1.605,1.7819,2.0374,2.1031,2.1799,2.2911,2.3028,2.3135,2.3135,2.3135,2.3135,2.3135,2.3135,2.3135,2.3135,2.3135,2.3135,2.3135,2.3135,2.3135,2.3135,2.3135,2.3135,2.3135,2.3135,2.3623,2.4375,2.4404,2.4941,2.5693,2.5723,2.5742,2.5742,2.5742,2.5742,2.5742,2.5742,2.5742,2.5742,2.5742,2.5742,2.5742,2.5742,2.7484,2.9407,2.9407,3.1235,3.3081,3.3081,3.3081,3.3081,3.3081,3.3081,3.3081,3.3081,3.3081,3.3081,3.3081,3.3081,3.3081,3.3081,3.3081,3.3081,3.3081,3.3081,3.3081,3.3081,3.3081,3.3081,3.3081,3.3081,3.3081,3.3081,3.4037,3.4594,3.4594,3.6489,3.7315,3.6685,3.7723,3.7709,3.6552,3.5938,3.5639,3.5654,3.6267,3.6881,0.2973,0.0,0.5481,0.5477,0.5447,0.5382,0.0,0.5074,0.4887,0.4769,0.4596,0.4519,0.4519,0.4625,0.5062,0.615,0.6637,0.7544,0.956,1.1208,1.2204,1.2486,1.3227,1.3784,1.3622,1.5357,1.6774,1.7715,1.9739,2.1122,2.1392,2.2505,2.3135,2.3135,2.3135,2.3135,2.3135,2.3135,2.3135,2.3135,2.3135,2.3135,2.3135,2.3135,2.3135,2.3135,2.3135,2.3135,2.3135,2.3135,2.3457,2.3965,2.4287,2.4746,2.5273,2.5605,2.5742,2.5742,2.5742,2.5742,2.5742,2.5742,2.5742,2.5742,2.5742,2.5742,2.5742,2.5742,2.7484,2.9407,2.9407,3.1235,3.3081,3.3081,3.3081,3.3081,3.3081,3.3081,3.3081,3.3081,3.3081,3.3081,3.3081,3.3081,3.3081,3.3081,3.3081,3.3081,3.3081,3.3081,3.3081,3.3081,3.3081,3.3081,3.3081,3.3081,3.3081,3.3081,3.3313,3.3471,3.3471,3.4746,3.5386,3.517,3.6481,3.7153,3.7195,3.7045,3.6956,3.6971,3.712,3.7539,0.117,0.2168,0.3338,0.4963,0.5394,0.5328,0.5172,0.5023,0.4874,0.4721,0.0,0.4519,0.4519,0.4575,0.4908,0.5525,0.6659,0.8171,1.0373,1.1536,1.2291,1.2775,1.3259,1.3507,1.3607,1.4726,1.5756,1.6522,1.8048,1.9479,2.0522,2.1351,2.2102,2.2842,2.2852,2.2939,2.3135,2.3135,2.3135,2.3135,2.3135,2.3135,2.3135,2.3135,2.3135,2.3135,2.3135,2.3135,2.3135,2.3135,2.3398,2.3828,2.4248,2.4687,2.5127,2.5566,2.5742,2.5742,2.5742,2.5742,2.5742,2.5742,2.5742,2.5742,2.5742,2.5742,2.5742,2.5742,2.7484,2.9407,2.9407,3.1235,3.3081,3.3081,3.3081,3.3081,3.3081,3.3081,3.3081,3.3081,3.3081,3.3081,3.3081,3.3081,3.3081,3.3081,3.3081,3.3081,3.3081,3.3081,3.3081,3.3081,3.3081,3.3081,3.3081,3.3081,3.3081,3.3081,3.3081,3.3081,3.3081,3.4108,3.4897,3.5359,3.6324,3.691,3.7093,3.7332,3.7404,3.7419,3.7719,3.8048,0.0,0.0,0.0733,0.3826,0.4792,0.5035,0.5088,0.0,0.0,0.0,0.0,0.4532,0.458,0.4707,0.4838,0.4734,0.6952,0.94,1.1355,1.1744,1.2058,1.2748,1.2943,1.3272,1.3821,1.4229,1.4867,1.586,1.6413,1.7541,1.9507,1.9991,2.0791,2.2129,2.2327,2.2617,2.3037,2.3105,2.3135,2.3135,2.3135,2.3135,2.3135,2.3135,2.3135,2.3135,2.3135,2.3135,2.3135,2.3135,2.3359,2.373,2.415,2.459,2.5019,2.5469,2.5674,2.5742,2.5742,2.5742,2.5742,2.5742,2.5742,2.5742,2.5742,2.5742,2.5742,2.5742,2.7484,2.9407,2.9407,3.1235,3.3081,3.3081,3.3081,3.3081,3.3081,3.3081,3.3081,3.3081,3.3081,3.3081,3.3081,3.3081,3.3081,3.3081,3.3081,3.3081,3.3081,3.3081,3.3081,3.3081,3.3081,3.3081,3.3081,3.3081,3.3081,3.3081,3.3081,3.3081,3.3081,3.3953,3.4884,3.5974,3.6332,3.6518,3.6668,3.7067,3.7327,3.7496,3.8046,3.8385,0.0,0.0,0.0134,0.0713,0.1997,0.3464,0.4813,0.0,0.0,0.0,0.0,0.4541,0.4802,0.4674,0.4826,0.5632,0.8231,1.0707,1.2357,1.32,1.3447,1.2896,1.3414,1.3634,1.3091,1.3681,1.424,1.4396,1.566,1.6505,1.6838,1.8989,2.0316,2.0558,2.1453,2.2187,2.2607,2.2959,2.3135,2.3135,2.3135,2.3135,2.3135,2.3135,2.3135,2.3135,2.3135,2.3135,2.3135,2.3135,2.3184,2.3281,2.3711,2.4141,2.457,2.501,2.541,2.5742,2.5742,2.5742,2.5742,2.5742,2.5742,2.5742,2.5742,2.5742,2.5742,2.5742,2.7484,2.9407,2.9407,3.1235,3.3081,3.3081,3.3081,3.3081,3.3081,3.3081,3.3081,3.3081,3.3081,3.3081,3.3081,3.3081,3.3081,3.3081,3.3081,3.3081,3.3081,3.3081,3.3081,3.3081,3.3081,3.3081,3.3081,3.3081,3.3081,3.3081,3.3081,3.3081,3.3081,3.324,3.3882,3.4897,3.4967,3.5465,3.6295,3.6353,3.6878,3.7779,3.7866,3.8385,0.0,0.0,0.0,0.0,0.0599,0.1432,0.2193,0.3666,0.0,0.0,0.4478,0.4578,0.4833,0.4935,0.5467,0.7041,0.8424,0.9921,1.1587,1.2298,1.2672,1.2815,1.3113,1.3394,1.3467,1.3841,1.4088,1.4088,1.4698,1.5346,1.592,1.7139,1.8413,1.9796,2.0411,2.1132,2.2168,2.2363,2.2685,2.3135,2.3135,2.3135,2.3135,2.3135,2.3135,2.3135,2.3135,2.3135,2.3135,2.3135,2.3135,2.3184,2.3623,2.3906,2.416,2.4824,2.5352,2.5742,2.5742,2.5742,2.5742,2.5742,2.5742,2.5742,2.5742,2.5742,2.5742,2.5742,2.703,2.8588,2.9223,3.0687,3.2239,3.2982,3.3081,3.3081,3.3081,3.3081,3.3081,3.3081,3.3081,3.3081,3.3081,3.3081,3.3081,3.3081,3.3081,3.3081,3.3081,3.3081,3.3081,3.3081,3.3081,3.3081,3.3081,3.3081,3.3081,3.3081,3.3081,3.3081,3.3081,3.3081,3.3313,3.3797,3.4428,3.4897,3.5359,3.5974,3.6774,3.7829,3.7829,3.8383,0.0,0.0,0.0,0.0,0.0,0.0,0.0,0.2414,0.4567,0.4322,0.4466,0.4715,0.4961,0.5237,0.6062,0.7918,0.8314,0.9037,1.0992,1.147,1.199,1.2979,1.3138,1.3333,1.4021,1.4088,1.4088,1.4088,1.4088,1.4496,1.5296,1.5538,1.6637,1.8637,1.9154,2.0098,2.138,2.1646,2.2158,2.2988,2.2988,2.3047,2.3135,2.3135,2.3135,2.3135,2.3135,2.3135,2.3135,2.3135,2.3135,2.3174,2.3506,2.3701,2.3887,2.4639,2.5195,2.5586,2.5586,2.5644,2.5742,2.5742,2.5742,2.5742,2.5742,2.5742,2.5742,2.5742,2.638,2.7494,2.9039,3.0316,3.15,3.2797,3.3081,3.3081,3.3081,3.3081,3.3081,3.3081,3.3081,3.3081,3.3081,3.3081,3.3081,3.3081,3.3081,3.3081,3.3081,3.3081,3.3081,3.3081,3.3081,3.3081,3.3081,3.3081,3.3081,3.3081,3.3081,3.3081,3.3081,3.3081,3.3081,3.3081,3.3869,3.4345,3.4345,3.5116,3.6067,3.7035,3.7357,3.7979,0.0,0.0,0.0,0.0,0.0,0.0,0.0,0.1914,0.3668,0.3689,0.4397,0.5137,0.5332,0.5464,0.6051,0.733,0.7903,0.9129,1.1792,1.2193,1.2698,1.3891,1.3988,1.4015,1.4082,1.4088,1.4088,1.4088,1.4088,1.4166,1.425,1.5137,1.5794,1.5974,1.7942,1.9272,1.9743,2.0766,2.1709,2.2559,2.2559,2.2764,2.3135,2.3135,2.3135,2.3135,2.3135,2.3135,2.3135,2.3135,2.3135,2.3144,2.3174,2.3437,2.3848,2.4297,2.4736,2.5117,2.5117,2.5391,2.5742,2.5742,2.5742,2.5742,2.5742,2.5742,2.5742,2.5742,2.5732,2.638,2.8762,3.0316,3.15,3.2797,3.3081,3.3081,3.3081,3.3081,3.3081,3.3081,3.3081,3.3081,3.3081,3.3081,3.3081,3.3081,3.3081,3.3081,3.3081,3.3081,3.3081,3.3081,3.3081,3.3081,3.3081,3.3081,3.3081,3.3081,3.3081,3.3081,3.3081,3.3081,3.3081,3.3081,3.3154,3.324,3.324,3.3326,3.3869,3.4979,3.5908,3.6852,0.0,0.0,0.0,0.0,0.0,0.0,0.0,0.0701,0.212,0.4739,0.5552,0.5752,0.5466,0.5789,0.6277,0.6689,0.7724,0.8928,1.0043,1.1381,1.2498,1.2942,1.3646,1.4088,1.4088,1.4088,1.4088,1.4088,1.4088,1.4088,1.4088,1.4489,1.497,1.5696,1.6511,1.731,1.8194,1.9272,2.0121,2.068,2.164,2.2344,2.2754,2.2754,2.2891,2.3135,2.3135,2.3135,2.3135,2.3135,2.3135,2.3135,2.3135,2.3408,2.3809,2.3965,2.4297,2.4668,2.4668,2.4951,2.5322,2.5322,2.5508,2.5742,2.5742,2.5742,2.5742,2.5742,2.5742,2.61,2.7861,2.9223,3.0406,3.1601,3.2513,3.3081,3.3081,3.3081,3.3081,3.3081,3.3081,3.3081,3.3081,3.3081,3.3081,3.3081,3.3081,3.3081,3.3081,3.3081,3.3081,3.3081,3.3081,3.3081,3.3081,3.3081,3.3081,3.3081,3.3081,3.3081,3.3081,3.3081,3.3081,3.3081,3.3081,3.3081,3.3081,3.3081,3.3641,3.4746,3.5129,3.5828,0.0,0.0,0.0,0.0,0.0,0.0,0.0,0.0,0.0995,0.4558,0.5861,0.6151,0.5614,0.5848,0.6215,0.6274,0.7405,0.8398,0.8873,1.0524,1.1895,1.2242,1.3379,1.4088,1.4088,1.4088,1.4088,1.4088,1.4088,1.4088,1.4088,1.4088,1.4412,1.5137,1.5538,1.6026,1.6764,1.79,1.8763,1.9435,2.048,2.1428,2.2314,2.2314,2.2549,2.2939,2.2939,2.3018,2.3135,2.3135,2.3135,2.3135,2.3135,2.332,2.3584,2.3584,2.3857,2.4219,2.4219,2.4502,2.4863,2.4863,2.5166,2.5527,2.5527,2.5625,2.5742,2.5742,2.5742,2.5917,2.6754,2.8226,2.9681,3.0944,3.214,3.3081,3.3081,3.3081,3.3081,3.3081,3.3081,3.3081,3.3081,3.3081,3.3081,3.3081,3.3081,3.3081,3.3081,3.3081,3.3081,3.3081,3.3081,3.3081,3.3081,3.3081,3.3081,3.3081,3.3081,3.3081,3.3081,3.3081,3.3081,3.3081,3.3081,3.3081,3.3081,3.3081,3.3471,3.4191,3.4511,3.5047,-0.0,0.0,0.0,0.0,0.0,0.0,0.0,0.0,0.0556,0.2617,0.4766,0.6216,0.5882,0.5601,0.5637,0.6183,0.6756,0.7489,0.8715,0.9836,1.1042,1.2151,1.3379,1.4088,1.4088,1.4088,1.4088,1.4088,1.4088,1.4088,1.4088,1.4088,1.4088,1.4088,1.5137,1.5696,1.5696,1.6764,1.7827,1.8957,1.8957,2.0037,2.1875,2.1875,2.2109,2.251,2.251,2.2744,2.3135,2.3135,2.3135,2.3135,2.3135,2.3135,2.3135,2.3135,2.3408,2.3779,2.3779,2.4062,2.4414,2.4414,2.4707,2.5059,2.5059,2.5371,2.5732,2.5732,2.5732,2.5742,2.5742,2.7579,2.9681,3.0855,3.214,3.3081,3.3081,3.3081,3.3081,3.3081,3.3081,3.3081,3.3081,3.3081,3.3081,3.3081,3.3081,3.3081,3.3081,3.3081,3.3081,3.3081,3.3081,3.3081,3.3081,3.3081,3.3081,3.3081,3.3081,3.3081,3.3081,3.3081,3.3081,3.3081,3.3081,3.3081,3.3081,3.3081,3.3081,3.3154,3.4191,3.4664,-0.0566,0.0,0.0,0.0,0.0,0.0,0.0,0.0,0.0142,0.0771,0.3774,0.5999,0.4867,0.56,0.6341,0.6295,0.6756,0.7228,0.7577,0.8623,0.9836,1.095,1.2157,1.3203,1.3997,1.4088,1.4088,1.4088,1.4088,1.4088,1.4088,1.4088,1.4088,1.4088,1.4412,1.4573,1.4573,1.5628,1.6355,1.6675,1.823,1.9808,2.1426,2.1426,2.166,2.207,2.207,2.2305,2.2725,2.3018,2.3135,2.3135,2.3135,2.3135,2.3135,2.3135,2.3223,2.333,2.333,2.3613,2.3975,2.3975,2.4268,2.4609,2.4609,2.4922,2.5273,2.5273,2.5488,2.5742,2.5742,2.6935,2.8402,2.9681,3.1601,3.3081,3.3081,3.3081,3.3081,3.3081,3.3081,3.3081,3.3081,3.3081,3.3081,3.3081,3.3081,3.3081,3.3081,3.3081,3.3081,3.3081,3.3081,3.3081,3.3081,3.3081,3.3081,3.3081,3.3081,3.3081,3.3081,3.3081,3.3081,3.3081,3.3081,3.3081,3.3081,3.3081,3.3081,3.3081,3.3398,3.3556,-0.2294,-0.0906,0.0,0.0,0.0,0.0,0.0,0.0,0.0,0.0,0.1991,0.4056,0.4872,0.5912,0.6658,0.6468,0.6831,0.7139,0.7139,0.8105,0.9148,0.9836,1.13,1.2589,1.3294,1.3822,1.4088,1.4088,1.4088,1.4088,1.4088,1.4088,1.4088,1.4088,1.4088,1.4088,1.4088,1.4734,1.5296,1.5696,1.7082,1.8342,1.965,2.056,2.1211,2.1641,2.1807,2.2031,2.2295,2.2715,2.2891,2.291,2.3076,2.3135,2.3135,2.3135,2.3135,2.3135,2.3135,2.331,2.3525,2.3525,2.3818,2.417,2.417,2.4473,2.4844,2.5019,2.5264,2.5518,2.5693,2.6668,2.7861,2.9131,3.0866,3.2513,3.2982,3.3081,3.3081,3.3081,3.3081,3.3081,3.3081,3.3081,3.3081,3.3081,3.3081,3.3081,3.3081,3.3081,3.3081,3.3081,3.3081,3.3081,3.3081,3.3081,3.3081,3.3081,3.3081,3.3081,3.3081,3.3081,3.3081,3.3081,3.3081,3.3081,3.3081,3.3081,3.3081,3.3081,3.3081,3.3081,-0.4358,-0.2266,-0.0188,-0.0066,0.0,0.0,0.0,0.0,0.0,0.0,0.0,0.1176,0.5012,0.6276,0.6636,0.6688,0.6929,0.7122,0.7122,0.8006,0.8803,0.889,1.0697,1.2072,1.2242,1.3294,1.3997,1.4088,1.4088,1.4088,1.4088,1.4088,1.4088,1.4088,1.4088,1.4088,1.4088,1.4088,1.4573,1.5538,1.5613,1.6191,1.7253,1.9432,2.0712,2.1201,2.1641,2.1826,2.1865,2.2285,2.2461,2.25,2.292,2.3086,2.3086,2.3125,2.3135,2.3135,2.3135,2.3135,2.3135,2.3135,2.3408,2.373,2.373,2.4023,2.4443,2.4844,2.498,2.5107,2.5557,2.6607,2.7808,2.8947,3.0226,3.15,3.2698,3.2982,3.3081,3.3081,3.3081,3.3081,3.3081,3.3081,3.3081,3.3081,3.3081,3.3081,3.3081,3.3081,3.3081,3.3081,3.3081,3.3081,3.3081,3.3081,3.3081,3.3081,3.3081,3.3081,3.3081,3.3081,3.3081,3.3081,3.3081,3.3081,3.3081,3.3081,3.3081,3.3081,3.3081,3.3081,-0.3043,-0.2222,-0.147,-0.026,0.0,0.0,0.0,0.0,0.0,0.0,0.0,0.0313,0.1174,0.4088,0.6471,0.663,0.679,0.6973,0.6973,0.7243,0.7841,0.8803,0.9323,1.0351,1.2151,1.2504,1.3118,1.4004,1.4088,1.4088,1.4088,1.4088,1.4088,1.4088,1.4088,1.4088,1.4088,1.4088,1.425,1.4489,1.5296,1.5779,1.6108,1.8301,1.9813,2.0732,2.1182,2.1377,2.1406,2.1846,2.2021,2.206,2.248,2.2646,2.2685,2.3018,2.3135,2.3135,2.3135,2.3135,2.3135,2.3135,2.3203,2.3281,2.3281,2.3584,2.3945,2.4043,2.4307,2.4658,2.5098,2.6131,2.722,2.787,2.959,3.1311,3.1589,3.2413,3.3081,3.3081,3.3081,3.3081,3.3081,3.3081,3.3081,3.3081,3.3081,3.3081,3.3081,3.3081,3.3081,3.3081,3.3081,3.3081,3.3081,3.3081,3.3081,3.3081,3.3081,3.3081,3.3081,3.3081,3.3081,3.3081,3.3081,3.3081,3.3081,3.3081,3.3081,3.3081,3.3081,3.3081,-0.3879,-0.2484,-0.0951,-0.0196,0.0,0.0,0.0,0.0,0.0,0.0,0.0,0.0,0.0,0.1833,0.3968,0.6096,0.6602,0.6739,0.682,0.6885,0.7128,0.7891,0.8414,0.9302,1.0514,1.1638,1.2589,1.3203,1.3737,1.4088,1.4088,1.4088,1.4088,1.4088,1.4088,1.4088,1.4088,1.4088,1.4088,1.4088,1.4657,1.522,1.5779,1.7415,1.8789,1.9854,2.008,2.0423,2.0947,2.1396,2.1572,2.1621,2.2051,2.2334,2.2539,2.2754,2.2969,2.3135,2.3135,2.3135,2.3135,2.3135,2.3135,2.3135,2.3135,2.3301,2.3525,2.373,2.3945,2.4209,2.4639,2.5817,2.6949,2.7201,2.9319,3.1223,3.1223,3.2239,3.3081,3.3081,3.3081,3.3081,3.3081,3.3081,3.3081,3.3081,3.3081,3.3081,3.3081,3.3081,3.3081,3.3081,3.3081,3.3081,3.3081,3.3081,3.3081,3.3081,3.3081,3.3081,3.3081,3.3081,3.3081,3.3081,3.3081,3.3081,3.3081,3.3081,3.3081,3.3081,3.3081,3.3081,-0.5098,-0.2691,0.0,0.0,0.0,0.0,0.0,0.0,0.0,0.0,0.0,0.0,0.0,0.0,0.1126,0.4676,0.6003,0.6592,0.6585,0.6685,0.6749,0.6875,0.7724,0.845,0.8776,1.0494,1.177,1.2199,1.3199,1.3833,1.4008,1.4055,1.4088,1.4088,1.4088,1.4088,1.4088,1.4088,1.4088,1.4088,1.4088,1.4573,1.5455,1.6363,1.7496,1.8718,1.8877,1.952,2.0352,2.0887,2.1123,2.1162,2.1602,2.1982,2.2305,2.2461,2.2734,2.3047,2.3115,2.3135,2.3135,2.3135,2.3135,2.3135,2.3135,2.3135,2.3213,2.3574,2.3682,2.3769,2.4199,2.5462,2.6666,2.6749,2.8824,3.0838,3.111,3.2239,3.3081,3.3081,3.3081,3.3081,3.3081,3.3081,3.3081,3.3081,3.3081,3.3081,3.3081,3.3081,3.3081,3.3081,3.3081,3.3081,3.3081,3.3081,3.3081,3.3081,3.3081,3.3081,3.3081,3.3081,3.3081,3.3081,3.3081,3.3081,3.3081,3.3081,3.3081,3.3081,3.3081,3.3081,-0.4627,-0.234,0.0,0.0,0.0,0.0,0.0,0.0,0.0,0.0,0.0,0.0,0.0,0.0,0.0157,0.0787,0.3928,0.6367,0.6367,0.6545,0.6709,0.6729,0.6895,0.7394,0.8391,0.8721,0.9702,1.1601,1.2134,1.2775,1.3619,1.3948,1.4088,1.4088,1.4088,1.4088,1.4088,1.4088,1.4088,1.4088,1.4088,1.4166,1.4328,1.4496,1.5636,1.7585,1.855,1.9116,1.9283,2.0303,2.0654,2.0703,2.1152,2.1357,2.1494,2.2236,2.2549,2.2646,2.3018,2.3135,2.3135,2.3135,2.3135,2.3135,2.3135,2.3135,2.3154,2.3213,2.3223,2.333,2.376,2.4852,2.5862,2.6104,2.7719,2.9518,3.0861,3.2239,3.3081,3.3081,3.3081,3.3081,3.3081,3.3081,3.3081,3.3081,3.3081,3.3081,3.3081,3.3081,3.3081,3.3081,3.3081,3.3081,3.3081,3.3081,3.3081,3.3081,3.3081,3.3081,3.3081,3.3081,3.3081,3.3081,3.3081,3.3081,3.3081,3.3081,3.3081,3.3081,3.3081,3.3081,-0.4664,-0.3859,-0.2521,-0.0532,0.0,0.0,0.0,0.0,0.0,0.0,0.0,0.0,0.0,0.0,0.0,0.0,0.1579,0.3576,0.5975,0.6427,0.6491,0.6563,0.6573,0.6848,0.7424,0.7996,0.8805,0.9786,1.1109,1.2077,1.2494,1.3189,1.3667,1.3834,1.3841,1.3915,1.4088,1.4088,1.4088,1.4088,1.4088,1.4088,1.4088,1.4088,1.4977,1.6437,1.6919,1.7819,1.9036,1.952,2.0079,2.0586,2.0781,2.1016,2.1279,2.166,2.21,2.2539,2.2725,2.2939,2.3135,2.3135,2.3135,2.3135,2.3135,2.3135,2.3135,2.3135,2.3135,2.3184,2.3379,2.4527,2.562,2.5742,2.7118,2.8675,2.9619,3.1021,3.2239,3.2982,3.3081,3.3081,3.3081,3.3081,3.3081,3.3081,3.3081,3.3081,3.3081,3.3081,3.3081,3.3081,3.3081,3.3081,3.3081,3.3081,3.3081,3.3081,3.3081,3.3081,3.3081,3.3081,3.3081,3.3081,3.3081,3.3081,3.3081,3.3081,3.3081,3.3081,3.3081,3.3081,-0.474,-0.5016,-0.4634,-0.2034,-0.0673,0.0,0.0,0.0,0.0,0.0,0.0,0.0,0.0,0.0,0.0,0.0,0.0,0.1095,0.4226,0.5643,0.6312,0.6413,0.642,0.6464,0.6576,0.7388,0.7942,0.8265,0.9837,1.0999,1.1561,1.2355,1.3067,1.3446,1.3534,1.3674,1.3975,1.4048,1.4088,1.4088,1.4088,1.4088,1.4088,1.4088,1.4573,1.5296,1.5621,1.6675,1.8221,1.8798,1.9441,2.0245,2.0479,2.0771,2.1074,2.1191,2.1641,2.2217,2.2432,2.2715,2.2998,2.3105,2.3135,2.3135,2.3135,2.3135,2.3135,2.3135,2.3135,2.3135,2.3135,2.4042,2.5051,2.5301,2.6183,2.7404,2.891,3.0325,3.1589,3.2884,3.3081,3.3081,3.3081,3.3081,3.3081,3.3081,3.3081,3.3081,3.3081,3.3081,3.3081,3.3081,3.3081,3.3081,3.3081,3.3081,3.3081,3.3081,3.3081,3.3081,3.3081,3.3081,3.3081,3.3081,3.3081,3.3081,3.3081,3.3081,3.3081,3.3081,3.3081,3.3081,-0.466,-0.4776,-0.4862,-0.5091,-0.2513,0.0,0.0,0.0,0.0,0.0,0.0,0.0,0.0,0.0,0.0,0.0,0.0,0.0078,0.0313,0.3754,0.6281,0.6288,0.6278,0.6274,0.6285,0.6359,0.6821,0.7735,0.8208,0.9252,1.1134,1.1605,1.224,1.3154,1.3233,1.3373,1.3579,1.3948,1.4088,1.4088,1.4088,1.4088,1.4088,1.4088,1.4166,1.425,1.5296,1.5779,1.6026,1.8141,1.9036,1.9195,2.0167,2.0576,2.0654,2.1074,2.126,2.1416,2.2227,2.2529,2.2607,2.3008,2.3135,2.3135,2.3135,2.3135,2.3135,2.3135,2.3135,2.3135,2.3135,2.3154,2.3503,2.4573,2.4435,2.5173,2.9532,3.0854,3.1589,3.2884,3.3081,3.3081,3.3081,3.3081,3.3081,3.3081,3.3081,3.3081,3.3081,3.3081,3.3081,3.3081,3.3081,3.3081,3.3081,3.3081,3.3081,3.3081,3.3081,3.3081,3.3081,3.3081,3.3081,3.3081,3.3081,3.3081,3.3081,3.3081,3.3081,3.3081,3.3081,3.3081,-0.4677,-0.4765,-0.487,-0.4986,-0.4261,-0.2851,-0.0528,0.0,0.0,0.0,0.0,0.0,0.0,0.0,0.0,0.0,0.0,0.0,0.0,0.133,0.3283,0.596,0.6274,0.6271,0.6338,0.6338,0.6412,0.6795,0.7537,0.8267,0.8952,1.033,1.1384,1.1883,1.2596,1.3146,1.3641,1.3748,1.3901,1.4088,1.4088,1.4088,1.4088,1.4088,1.4088,1.4088,1.4496,1.5054,1.5779,1.6593,1.7738,1.9036,1.9441,2.0001,2.0586,2.0742,2.0986,2.1279,2.1582,2.2051,2.2539,2.2685,2.292,2.3135,2.3135,2.3135,2.3135,2.3135,2.3135,2.3135,2.3135,2.3135,2.3222,2.3637,2.393,2.4887,2.7314,2.9627,3.1311,3.1777,3.2513,3.3081,3.3081,3.3081,3.3081,3.3081,3.3081,3.3081,3.3081,3.3081,3.3081,3.3081,3.3081,3.3081,3.3081,3.3081,3.3081,3.3081,3.3081,3.3081,3.3081,3.3081,3.3081,3.3081,3.3081,3.3081,3.3081,3.3081,3.3081,3.3081,3.3081,3.3081,-0.4677,-0.4728,-0.4779,-0.4777,-0.4979,-0.4529,-0.1794,-0.0592,0.0,0.0,0.0,0.0,0.0,0.0,0.0,0.0,0.0,0.0,0.0,0.0,0.133,0.4774,0.5879,0.6274,0.6264,0.6338,0.6338,0.6338,0.6945,0.748,0.7783,0.9059,1.0187,1.1047,1.2228,1.2939,1.334,1.3447,1.3647,1.3941,1.3941,1.3988,1.4088,1.4088,1.4088,1.4088,1.4088,1.4489,1.5213,1.5538,1.6601,1.798,1.8709,1.9441,2.0089,2.0489,2.0752,2.1035,2.1182,2.1611,2.2129,2.2422,2.2705,2.2959,2.3096,2.3135,2.3135,2.3135,2.3135,2.3135,2.3135,2.3135,2.3135,2.3135,2.3682,2.4512,2.5441,2.8241,3.0676,3.1134,3.2239,3.3081,3.3081,3.3081,3.3081,3.3081,3.3081,3.3081,3.3081,3.3081,3.3081,3.3081,3.3081,3.2896,3.2513,3.2884,3.2884,3.2513,3.2426,3.2612,3.3068,3.2339,3.2064,3.2426,3.2052,3.1877,3.1877,3.2711,3.3081,3.3081,3.3081,3.3081,0.0,0.0,0.0,-0.465,-0.475,-0.4593,-0.3816,-0.1833,-0.0134,-0.0067,-0.0067,-0.0068,-0.0,0.0,0.0,0.0,0.0,0.0,0.0,0.0,0.0781,0.2806,0.4999,0.6261,0.6247,0.6251,0.6254,0.6254,0.6257,0.6718,0.7706,0.7783,0.8761,1.0708,1.2037,1.2732,1.2822,1.3046,1.3347,1.3627,1.3641,1.3794,1.4075,1.4082,1.4088,1.4088,1.4088,1.4088,1.4166,1.522,1.5703,1.5944,1.806,1.8957,1.9204,2.0167,2.0566,2.0625,2.1064,2.1221,2.1377,2.2217,2.25,2.2598,2.3018,2.3135,2.3135,2.3135,2.3135,2.3135,2.3135,2.3135,2.3135,2.3135,2.3467,2.3906,2.4326,2.6988,2.9659,3.0944,3.214,3.3081,3.3068,3.3081,3.3081,3.3081,3.3081,3.3081,3.3081,3.3081,3.3081,3.3081,3.3068,3.2513,3.1223,3.2239,3.2426,3.1211,3.1134,3.1689,3.2982,3.0687,2.9943,3.1122,3.0045,2.9407,2.9407,3.1877,3.3068,3.3068,3.3068,3.3081,-0.4711,0.0,0.0,0.0,0.0,0.0,-0.4732,-0.428,-0.3558,-0.2209,-0.1942,-0.1545,-0.0271,0.0,0.0,0.0,0.0,0.0,0.0,0.0,0.0668,0.2594,0.4686,0.5959,0.5932,0.603,0.6095,0.6095,0.6196,0.6416,0.6718,0.7403,0.8761,1.0708,1.116,1.1834,1.2822,1.2909,1.3026,1.3333,1.354,1.3687,1.3774,1.3988,1.4088,1.4088,1.4088,1.4088,1.4088,1.4412,1.547,1.6846,1.6675,1.8052,2.0079,1.9599,1.9923,2.0586,2.0703,2.0967,2.1328,2.1885,2.2266,2.2598,2.3018,2.3135,2.3135,2.3135,2.3135,2.3135,2.3135,2.3135,2.3135,2.3135,2.3467,2.3906,2.4326,2.6115,2.8082,2.9613,3.0866,3.2052,3.2982,3.3081,3.3081,3.3081,3.3081,3.3081,3.3081,3.3081,3.2797,3.1865,3.1689,3.1223,3.0045,3.0226,3.0226,2.9954,2.9863,3.0045,3.0418,2.9772,2.959,2.9863,2.959,2.9407,2.9407,3.0956,3.1689,3.1777,3.2698,3.3081,0.0,0.0,0.0,-0.4539,0.0,0.0,-0.4992,-0.5233,-0.5113,-0.4023,-0.3823,-0.3487,-0.2479,-0.1005,0.0,0.0,0.0,0.0,0.0,0.0,0.0364,0.1452,0.4005,0.5692,0.5738,0.5884,0.5962,0.6023,0.6112,0.6193,0.6335,0.7253,0.8309,0.9513,1.0335,1.1166,1.1935,1.2408,1.2712,1.3019,1.3186,1.34,1.3654,1.3821,1.3968,1.4088,1.4088,1.4088,1.4088,1.4088,1.5061,1.6601,1.6437,1.7568,1.9274,1.952,1.9766,2.0001,2.0401,2.0732,2.1025,2.1465,2.1904,2.2324,2.2754,2.2998,2.3135,2.3135,2.3135,2.3135,2.3135,2.3135,2.3135,2.3135,2.333,2.3682,2.4287,2.5155,2.6423,2.8272,3.0033,3.1412,3.2152,3.2326,3.2326,3.2326,3.2326,3.2326,3.2326,3.2326,3.2052,3.1311,3.0765,2.9954,2.8773,2.9131,2.9223,2.868,2.868,2.8855,2.9407,2.8402,2.8121,2.868,2.8132,2.8132,2.868,3.0406,3.1488,3.2052,3.2797,3.3081,0.0,0.0,0.0,-0.4539,-0.4704,0.0,-0.4918,-0.5145,-0.5345,-0.5332,-0.5335,-0.5342,-0.5345,-0.2723,-0.0464,-0.0066,0.0,0.0,0.0,0.0,0.0,0.0,0.2812,0.506,0.5626,0.5704,0.5837,0.5969,0.601,0.6098,0.6251,0.7176,0.7706,0.7783,0.9513,1.0559,1.0783,1.1694,1.2357,1.2775,1.2808,1.3026,1.3547,1.3532,1.3788,1.4041,1.4075,1.4088,1.4088,1.4088,1.4734,1.5779,1.6764,1.7253,1.7738,1.9511,1.9756,1.9283,2.0157,2.0489,2.0635,2.1094,2.1494,2.1904,2.2373,2.2773,2.3076,2.3125,2.3135,2.3135,2.3135,2.3135,2.3135,2.3135,2.3135,2.3369,2.4228,2.4414,2.504,2.7044,2.9223,3.0855,3.1122,3.1134,3.1033,3.1211,3.1134,3.1033,3.1033,3.1033,3.0944,3.0765,2.9863,2.868,2.7494,2.8402,2.8495,2.7505,2.74,2.7861,2.8947,2.6839,2.6197,2.741,2.6294,2.6294,2.7589,2.9761,3.1412,3.2711,3.2711,3.2797,-0.4911,-0.4697,-0.4546,-0.4616,-0.4782,0.0,-0.4918,-0.5053,-0.5145,-0.5033,-0.5009,-0.5016,-0.5154,-0.4581,-0.319,-0.0438,0.0,0.0,0.0,0.0,0.0,0.0,0.0613,0.2245,0.5187,0.55,0.551,0.5674,0.5895,0.6098,0.6251,0.649,0.6945,0.7783,0.8161,0.9135,1.0783,1.1013,1.1496,1.2392,1.2708,1.2882,1.2939,1.342,1.3674,1.3741,1.3981,1.4088,1.4088,1.4088,1.4734,1.5696,1.5944,1.7082,1.863,1.8149,1.8948,2.0157,1.952,1.9844,2.0635,2.1094,2.1289,2.1504,2.2275,2.2568,2.2705,2.3047,2.3135,2.3135,2.3135,2.3135,2.3135,2.3135,2.3135,2.3369,2.4228,2.4414,2.4771,2.5836,2.7305,2.8958,3.0855,3.0406,3.0045,3.1033,3.0406,2.9772,2.9772,2.9772,2.9407,2.8412,2.8132,2.74,2.6197,2.6294,2.6294,2.611,2.611,2.6197,2.638,2.5917,2.583,2.611,2.583,2.6294,2.7589,2.8038,2.8958,3.0135,3.0135,3.0687,-0.4918,-0.4752,-0.4613,-0.4765,-0.4863,0.0,0.0,-0.4972,-0.5006,-0.4935,-0.4918,-0.4921,-0.4989,-0.4996,-0.4378,-0.2709,-0.1073,0.0,0.0,0.0,0.0,0.0,0.0,0.1406,0.5052,0.5386,0.545,0.5586,0.5864,0.6064,0.6142,0.6217,0.6567,0.7022,0.7557,0.8309,0.9286,1.0335,1.1087,1.1545,1.2221,1.2681,1.2835,1.322,1.3507,1.3661,1.3955,1.4088,1.4088,1.4088,1.4412,1.4977,1.5455,1.6675,1.8149,1.8149,1.847,1.9027,1.9599,1.9766,1.9951,2.0663,2.1055,2.1318,2.1748,2.2178,2.2598,2.3018,2.3135,2.3135,2.3135,2.3135,2.3135,2.3135,2.3135,2.3369,2.4228,2.4414,2.4678,2.5566,2.6197,2.721,2.9131,2.8866,2.868,2.9315,2.8866,2.8495,2.8495,2.8495,2.8226,2.7683,2.703,2.639,2.5732,2.5742,2.5742,2.5742,2.5742,2.5742,2.5742,2.5742,2.5742,2.5742,2.5742,2.6014,2.6668,2.6668,2.7579,2.9407,2.9407,2.9681,-0.4969,-0.4826,-0.4728,-0.488,-0.4897,-0.4874,0.0,0.0,0.0,-0.4836,-0.483,-0.483,-0.483,-0.4777,-0.4787,-0.4803,-0.2358,-0.0314,-0.0061,0.0,0.0,0.0,0.0,0.1138,0.4082,0.4942,0.5406,0.5579,0.5786,0.5939,0.6023,0.6149,0.623,0.6335,0.7099,0.7629,0.7783,0.9588,1.0634,1.0783,1.1848,1.2425,1.2748,1.2979,1.328,1.3574,1.3874,1.4035,1.4088,1.4088,1.4088,1.4166,1.5296,1.6191,1.709,1.823,1.823,1.7827,1.9432,1.9678,1.9441,2.0079,2.0701,2.123,2.123,2.1836,2.2578,2.292,2.3076,2.3135,2.3135,2.3135,2.3135,2.3135,2.3135,2.335,2.4131,2.4365,2.4648,2.5449,2.5674,2.61,2.74,2.741,2.7315,2.7589,2.74,2.722,2.722,2.722,2.722,2.722,2.6294,2.5742,2.5742,2.5742,2.5742,2.5742,2.5742,2.5742,2.5742,2.5742,2.5742,2.5742,2.5742,2.5742,2.5742,2.5742,2.6754,2.8669,2.8669,2.8855,-0.5142,-0.4904,-0.4728,-0.488,-0.4816,-0.4718,-0.4718,0.0,-0.4677,-0.4597,0.0,-0.457,-0.457,0.0,0.0,-0.4545,-0.308,-0.1481,-0.0178,0.0,0.0,0.0,0.0,0.0133,0.0584,0.3356,0.5229,0.5441,0.543,0.561,0.601,0.6047,0.6118,0.6257,0.6412,0.6872,0.7783,0.8917,0.989,1.0783,1.1848,1.2318,1.2365,1.2665,1.2966,1.3273,1.3567,1.3841,1.4088,1.4088,1.4088,1.4166,1.5296,1.5779,1.6026,1.709,1.8069,1.8718,1.7908,1.8868,2.0245,1.9441,2.0137,2.123,2.123,2.1836,2.2519,2.2568,2.2852,2.3135,2.3135,2.3135,2.3135,2.3135,2.3135,2.3271,2.376,2.415,2.456,2.5049,2.5469,2.61,2.74,2.6658,2.6294,2.741,2.6668,2.5927,2.5927,2.5927,2.5927,2.5927,2.583,2.5742,2.5742,2.5742,2.5742,2.5742,2.5742,2.5742,2.5742,2.5742,2.5742,2.5742,2.5742,2.5742,2.5742,2.5742,2.583,2.61,2.61,2.6754,-0.5047,-0.4979,-0.4942,-0.4925,-0.487,-0.4799,-0.4711,-0.4623,-0.4594,-0.4532,0.0,0.0,0.0,0.0,0.0,0.0,-0.322,-0.1689,-0.023,0.0,0.0,0.0,0.0,0.0,0.0,0.2281,0.4125,0.5116,0.5416,0.561,0.5881,0.5983,0.6101,0.6254,0.6338,0.649,0.6945,0.7936,0.8917,0.997,1.0944,1.1768,1.2311,1.2688,1.2896,1.2966,1.344,1.3714,1.3841,1.4015,1.4088,1.4173,1.4573,1.5137,1.5779,1.6191,1.709,1.7989,1.7504,1.7908,1.8709,1.8957,1.9809,2.0898,2.1152,2.166,2.2197,2.2441,2.2812,2.3135,2.3135,2.3135,2.3135,2.3135,2.3135,2.3262,2.3691,2.3926,2.418,2.4609,2.5049,2.5533,2.6084,2.5932,2.5927,2.639,2.6014,2.5742,2.5742,2.5742,2.5742,2.5742,2.5742,2.5742,2.5742,2.5742,2.5742,2.5742,2.5742,2.5742,2.5742,2.5742,2.5742,2.5742,2.5742,2.5742,2.5742,2.5742,2.5742,2.5742,2.5742,2.6014,-0.5041,-0.5021,-0.5087,-0.4901,-0.4823,-0.4765,-0.4653,-0.4597,-0.4519,-0.4519,-0.4519,0.0,0.0,0.0,-0.4525,-0.4487,0.0,-0.1663,-0.0225,0.0,0.0,0.0,0.0,0.0,0.0,0.1165,0.2823,0.5045,0.5346,0.5549,0.5735,0.5884,0.6037,0.6193,0.624,0.6338,0.6338,0.7326,0.8313,0.9301,1.034,1.1316,1.2311,1.2525,1.2741,1.2849,1.3206,1.3494,1.3579,1.3874,1.4015,1.4088,1.4088,1.4573,1.5296,1.5621,1.6355,1.7342,1.7342,1.7496,1.7908,1.8718,1.9766,2.0625,2.0947,2.1357,2.1797,2.2217,2.2646,2.2998,2.3105,2.3135,2.3135,2.3135,2.3135,2.3223,2.3545,2.3711,2.3887,2.418,2.459,2.4893,2.4893,2.5361,2.5742,2.5742,2.5742,2.5742,2.5742,2.5742,2.5742,2.5742,2.5742,2.5742,2.5742,2.5742,2.5742,2.5742,2.5742,2.5742,2.5742,2.5742,2.5742,2.5742,2.5742,2.5742,2.5742,2.5742,2.5742,2.5742,2.5742,2.5742,-0.5271,-0.5114,-0.506,-0.4769,-0.4585,-0.4532,-0.4525,-0.4522,-0.4519,-0.4519,-0.4519,-0.4519,-0.4519,-0.4519,-0.4522,-0.4477,-0.3186,0.0,0.0,0.0,0.0,0.0,0.0,0.0,0.0,0.0062,0.156,0.5098,0.5233,0.5287,0.5583,0.5732,0.5878,0.603,0.6183,0.6338,0.6338,0.7326,0.8313,0.9301,1.034,1.1316,1.2305,1.2311,1.2472,1.2822,1.2842,1.3106,1.3559,1.3572,1.3828,1.4088,1.4088,1.4088,1.425,1.5296,1.6355,1.7342,1.7342,1.7989,1.8957,1.8966,1.9766,2.0566,2.0586,2.0898,2.1348,2.1787,2.2207,2.2627,2.3027,2.3135,2.3135,2.3135,2.3135,2.3144,2.3154,2.3496,2.3799,2.3809,2.415,2.4443,2.4443,2.5156,2.5742,2.5742,2.5742,2.5742,2.5742,2.5742,2.5742,2.5742,2.5742,2.5742,2.5742,2.5742,2.5742,2.5742,2.5742,2.5742,2.5742,2.5742,2.5742,2.5742,2.5742,2.5742,2.5742,2.5742,2.5742,2.5742,2.5742,2.5742,-0.5253,-0.529,-0.4931,-0.4609,-0.4645,-0.4663,-0.4541,-0.4522,-0.4519,-0.4519,-0.4519,-0.4519,-0.4519,-0.4519,-0.4522,-0.4477,-0.4089,-0.2852,0.0,0.0,0.0,0.0,0.0,0.0,0.0,0.1113,0.2285,0.353,0.4643,0.5376,0.5579,0.5725,0.5871,0.6023,0.6179,0.6338,0.6338,0.6644,0.7629,0.9296,0.9674,1.0645,1.2305,1.2305,1.2358,1.2465,1.2735,1.2979,1.3373,1.3567,1.3814,1.4088,1.4088,1.4088,1.4173,1.4496,1.5304,1.6355,1.7009,1.709,1.7082,1.855,1.9283,1.9678,2.0401,2.0879,2.126,2.1416,2.1963,2.2549,2.2685,2.293,2.3135,2.3135,2.3135,2.3135,2.3135,2.3252,2.3359,2.3359,2.3711,2.4004,2.4004,2.4482,2.4961,2.5254,2.5547,2.5742,2.5742,2.5742,2.5742,2.5742,2.5742,2.5742,2.5742,2.5742,2.5742,2.5742,2.5742,2.5742,2.5742,2.5742,2.5742,2.5742,2.5742,2.5742,2.5742,2.5742,2.5742,2.5742,2.5742,2.5742,-0.3367,-0.4025,-0.428,-0.417,-0.4223,-0.4364,-0.4598,-0.4589,-0.4545,-0.4545,-0.4556,-0.4497,-0.4609,-0.4538,-0.4484,-0.4495,-0.4524,-0.3418,0.0,0.0,0.0,0.0,0.0,0.0,0.0,0.1036,0.226,0.3592,0.4711,0.5425,0.5501,0.5694,0.5847,0.5945,0.6152,0.6338,0.6338,0.6338,0.7099,0.8765,0.915,1.0196,1.1768,1.215,1.2305,1.2311,1.2505,1.2759,1.3066,1.3367,1.3661,1.3941,1.4048,1.4088,1.4088,1.4088,1.4817,1.5779,1.6519,1.6519,1.6437,1.7496,1.839,1.9125,1.9844,2.0437,2.1064,2.1377,2.1748,2.2158,2.2617,2.2822,2.2949,2.3105,2.3135,2.3135,2.3135,2.3135,2.3135,2.3135,2.3359,2.3555,2.3555,2.3906,2.4394,2.498,2.5312,2.5557,2.5713,2.5742,2.5742,2.5742,2.5742,2.5742,2.5742,2.5742,2.5742,2.5742,2.5742,2.5742,2.5742,2.5742,2.581,2.5967,2.582,2.581,2.5967,2.581,2.5742,2.5742,2.5742,2.5742]}]]